<?xml version="1.0" encoding="UTF-8" standalone="no" ?>
<gpx xmlns="http://www.topografix.com/GPX/1/1" xmlns:xsi="http://www.w3.org/2001/XMLSchema-instance" xsi:schemaLocation="http://www.topografix.com/GPX/1/1 http://www.topografix.com/GPX/1/1/gpx.xsd" version="1.1" creator="VisuGPX - https://www.visugpx.com">
  <metadata>
    <name>RSPFY-carrefour de Pecqueuse </name>
    <desc><![CDATA[marche nordique au départ du carrefour de Pecqueuse (entre Saint-Léger-en-Yvelines et Poigny La Forêt) ]]></desc>
  </metadata>
  <trk>
    <name><![CDATA[2018-12-18 09:17]]></name>
    <trkseg>
      <trkpt lat="48.69544" lon="1.72683">
        <ele>167</ele>
        <time>2018-12-18T08:19:09Z</time>
      </trkpt>
      <trkpt lat="48.69539" lon="1.72682">
        <ele>166</ele>
        <time>2018-12-18T08:19:11Z</time>
      </trkpt>
      <trkpt lat="48.69552" lon="1.72692">
        <ele>167</ele>
        <time>2018-12-18T08:19:13Z</time>
      </trkpt>
      <trkpt lat="48.69557" lon="1.72692">
        <ele>167</ele>
        <time>2018-12-18T08:19:37Z</time>
      </trkpt>
      <trkpt lat="48.69557" lon="1.72699">
        <ele>167</ele>
        <time>2018-12-18T08:22:01Z</time>
      </trkpt>
      <trkpt lat="48.69554" lon="1.72695">
        <ele>167</ele>
        <time>2018-12-18T08:22:31Z</time>
      </trkpt>
      <trkpt lat="48.69555" lon="1.72703">
        <ele>167</ele>
        <time>2018-12-18T08:28:42Z</time>
      </trkpt>
      <trkpt lat="48.69559" lon="1.72696">
        <ele>167</ele>
        <time>2018-12-18T08:29:08Z</time>
      </trkpt>
      <trkpt lat="48.69565" lon="1.72699">
        <ele>167</ele>
        <time>2018-12-18T08:29:16Z</time>
      </trkpt>
      <trkpt lat="48.69569" lon="1.72702">
        <ele>167</ele>
        <time>2018-12-18T08:29:22Z</time>
      </trkpt>
      <trkpt lat="48.69575" lon="1.72702">
        <ele>167</ele>
        <time>2018-12-18T08:29:28Z</time>
      </trkpt>
      <trkpt lat="48.69581" lon="1.72702">
        <ele>167</ele>
        <time>2018-12-18T08:29:34Z</time>
      </trkpt>
      <trkpt lat="48.69583" lon="1.72694">
        <ele>168</ele>
        <time>2018-12-18T08:29:42Z</time>
      </trkpt>
      <trkpt lat="48.69586" lon="1.72688">
        <ele>169</ele>
        <time>2018-12-18T08:29:50Z</time>
      </trkpt>
      <trkpt lat="48.69591" lon="1.72686">
        <ele>169</ele>
        <time>2018-12-18T08:29:54Z</time>
      </trkpt>
      <trkpt lat="48.69594" lon="1.72679">
        <ele>170</ele>
        <time>2018-12-18T08:30:04Z</time>
      </trkpt>
      <trkpt lat="48.696" lon="1.72675">
        <ele>170</ele>
        <time>2018-12-18T08:30:10Z</time>
      </trkpt>
      <trkpt lat="48.69604" lon="1.7267">
        <ele>170</ele>
        <time>2018-12-18T08:30:14Z</time>
      </trkpt>
      <trkpt lat="48.69608" lon="1.72664">
        <ele>170</ele>
        <time>2018-12-18T08:30:20Z</time>
      </trkpt>
      <trkpt lat="48.69611" lon="1.72656">
        <ele>170</ele>
        <time>2018-12-18T08:30:28Z</time>
      </trkpt>
      <trkpt lat="48.69612" lon="1.72649">
        <ele>170</ele>
        <time>2018-12-18T08:30:34Z</time>
      </trkpt>
      <trkpt lat="48.69618" lon="1.72647">
        <ele>170</ele>
        <time>2018-12-18T08:30:42Z</time>
      </trkpt>
      <trkpt lat="48.69622" lon="1.72643">
        <ele>170</ele>
        <time>2018-12-18T08:30:46Z</time>
      </trkpt>
      <trkpt lat="48.69628" lon="1.72639">
        <ele>170</ele>
        <time>2018-12-18T08:30:50Z</time>
      </trkpt>
      <trkpt lat="48.69632" lon="1.72634">
        <ele>170</ele>
        <time>2018-12-18T08:30:54Z</time>
      </trkpt>
      <trkpt lat="48.69636" lon="1.7263">
        <ele>170</ele>
        <time>2018-12-18T08:31:00Z</time>
      </trkpt>
      <trkpt lat="48.6964" lon="1.72626">
        <ele>170</ele>
        <time>2018-12-18T08:31:04Z</time>
      </trkpt>
      <trkpt lat="48.69646" lon="1.72622">
        <ele>170</ele>
        <time>2018-12-18T08:31:10Z</time>
      </trkpt>
      <trkpt lat="48.69651" lon="1.72619">
        <ele>170</ele>
        <time>2018-12-18T08:31:14Z</time>
      </trkpt>
      <trkpt lat="48.69656" lon="1.72618">
        <ele>170</ele>
        <time>2018-12-18T08:31:18Z</time>
      </trkpt>
      <trkpt lat="48.6966" lon="1.72615">
        <ele>170</ele>
        <time>2018-12-18T08:31:22Z</time>
      </trkpt>
      <trkpt lat="48.69665" lon="1.72613">
        <ele>170</ele>
        <time>2018-12-18T08:31:26Z</time>
      </trkpt>
      <trkpt lat="48.6967" lon="1.72609">
        <ele>169</ele>
        <time>2018-12-18T08:31:32Z</time>
      </trkpt>
      <trkpt lat="48.69675" lon="1.72604">
        <ele>169</ele>
        <time>2018-12-18T08:31:38Z</time>
      </trkpt>
      <trkpt lat="48.6968" lon="1.72596">
        <ele>169</ele>
        <time>2018-12-18T08:31:44Z</time>
      </trkpt>
      <trkpt lat="48.69683" lon="1.72591">
        <ele>169</ele>
        <time>2018-12-18T08:31:50Z</time>
      </trkpt>
      <trkpt lat="48.69689" lon="1.72589">
        <ele>169</ele>
        <time>2018-12-18T08:31:54Z</time>
      </trkpt>
      <trkpt lat="48.69694" lon="1.72588">
        <ele>169</ele>
        <time>2018-12-18T08:31:58Z</time>
      </trkpt>
      <trkpt lat="48.69699" lon="1.72584">
        <ele>169</ele>
        <time>2018-12-18T08:32:02Z</time>
      </trkpt>
      <trkpt lat="48.69704" lon="1.7258">
        <ele>169</ele>
        <time>2018-12-18T08:32:06Z</time>
      </trkpt>
      <trkpt lat="48.69709" lon="1.72577">
        <ele>169</ele>
        <time>2018-12-18T08:32:10Z</time>
      </trkpt>
      <trkpt lat="48.69714" lon="1.72574">
        <ele>169</ele>
        <time>2018-12-18T08:32:16Z</time>
      </trkpt>
      <trkpt lat="48.69719" lon="1.7257">
        <ele>169</ele>
        <time>2018-12-18T08:32:22Z</time>
      </trkpt>
      <trkpt lat="48.69723" lon="1.72568">
        <ele>169</ele>
        <time>2018-12-18T08:32:28Z</time>
      </trkpt>
      <trkpt lat="48.69728" lon="1.72566">
        <ele>169</ele>
        <time>2018-12-18T08:32:32Z</time>
      </trkpt>
      <trkpt lat="48.69731" lon="1.72561">
        <ele>169</ele>
        <time>2018-12-18T08:32:38Z</time>
      </trkpt>
      <trkpt lat="48.69737" lon="1.72557">
        <ele>169</ele>
        <time>2018-12-18T08:32:44Z</time>
      </trkpt>
      <trkpt lat="48.69742" lon="1.72554">
        <ele>169</ele>
        <time>2018-12-18T08:32:46Z</time>
      </trkpt>
      <trkpt lat="48.69746" lon="1.72551">
        <ele>169</ele>
        <time>2018-12-18T08:32:52Z</time>
      </trkpt>
      <trkpt lat="48.6975" lon="1.72546">
        <ele>170</ele>
        <time>2018-12-18T08:32:56Z</time>
      </trkpt>
      <trkpt lat="48.69754" lon="1.72543">
        <ele>170</ele>
        <time>2018-12-18T08:33:02Z</time>
      </trkpt>
      <trkpt lat="48.69762" lon="1.72539">
        <ele>170</ele>
        <time>2018-12-18T08:33:06Z</time>
      </trkpt>
      <trkpt lat="48.69769" lon="1.72533">
        <ele>170</ele>
        <time>2018-12-18T08:33:10Z</time>
      </trkpt>
      <trkpt lat="48.69774" lon="1.72529">
        <ele>170</ele>
        <time>2018-12-18T08:33:14Z</time>
      </trkpt>
      <trkpt lat="48.69778" lon="1.72526">
        <ele>170</ele>
        <time>2018-12-18T08:33:18Z</time>
      </trkpt>
      <trkpt lat="48.69782" lon="1.72523">
        <ele>170</ele>
        <time>2018-12-18T08:33:22Z</time>
      </trkpt>
      <trkpt lat="48.69788" lon="1.72522">
        <ele>170</ele>
        <time>2018-12-18T08:33:28Z</time>
      </trkpt>
      <trkpt lat="48.69793" lon="1.72517">
        <ele>170</ele>
        <time>2018-12-18T08:33:34Z</time>
      </trkpt>
      <trkpt lat="48.69797" lon="1.72514">
        <ele>170</ele>
        <time>2018-12-18T08:33:40Z</time>
      </trkpt>
      <trkpt lat="48.69801" lon="1.72509">
        <ele>171</ele>
        <time>2018-12-18T08:33:44Z</time>
      </trkpt>
      <trkpt lat="48.69806" lon="1.72506">
        <ele>171</ele>
        <time>2018-12-18T08:33:48Z</time>
      </trkpt>
      <trkpt lat="48.69811" lon="1.72503">
        <ele>171</ele>
        <time>2018-12-18T08:33:52Z</time>
      </trkpt>
      <trkpt lat="48.69817" lon="1.725">
        <ele>171</ele>
        <time>2018-12-18T08:33:58Z</time>
      </trkpt>
      <trkpt lat="48.69821" lon="1.72495">
        <ele>172</ele>
        <time>2018-12-18T08:34:04Z</time>
      </trkpt>
      <trkpt lat="48.69825" lon="1.72491">
        <ele>172</ele>
        <time>2018-12-18T08:34:10Z</time>
      </trkpt>
      <trkpt lat="48.69831" lon="1.72489">
        <ele>172</ele>
        <time>2018-12-18T08:34:14Z</time>
      </trkpt>
      <trkpt lat="48.69837" lon="1.72486">
        <ele>172</ele>
        <time>2018-12-18T08:34:22Z</time>
      </trkpt>
      <trkpt lat="48.69841" lon="1.72481">
        <ele>172</ele>
        <time>2018-12-18T08:34:26Z</time>
      </trkpt>
      <trkpt lat="48.69846" lon="1.72478">
        <ele>172</ele>
        <time>2018-12-18T08:34:30Z</time>
      </trkpt>
      <trkpt lat="48.69851" lon="1.72472">
        <ele>172</ele>
        <time>2018-12-18T08:34:36Z</time>
      </trkpt>
      <trkpt lat="48.69856" lon="1.72467">
        <ele>172</ele>
        <time>2018-12-18T08:34:40Z</time>
      </trkpt>
      <trkpt lat="48.69862" lon="1.72465">
        <ele>172</ele>
        <time>2018-12-18T08:34:46Z</time>
      </trkpt>
      <trkpt lat="48.69866" lon="1.7246">
        <ele>173</ele>
        <time>2018-12-18T08:34:50Z</time>
      </trkpt>
      <trkpt lat="48.69871" lon="1.72457">
        <ele>173</ele>
        <time>2018-12-18T08:34:54Z</time>
      </trkpt>
      <trkpt lat="48.69876" lon="1.72455">
        <ele>173</ele>
        <time>2018-12-18T08:35:00Z</time>
      </trkpt>
      <trkpt lat="48.69882" lon="1.72452">
        <ele>173</ele>
        <time>2018-12-18T08:35:04Z</time>
      </trkpt>
      <trkpt lat="48.69888" lon="1.72451">
        <ele>173</ele>
        <time>2018-12-18T08:35:08Z</time>
      </trkpt>
      <trkpt lat="48.69894" lon="1.72447">
        <ele>173</ele>
        <time>2018-12-18T08:35:12Z</time>
      </trkpt>
      <trkpt lat="48.69898" lon="1.72444">
        <ele>173</ele>
        <time>2018-12-18T08:35:16Z</time>
      </trkpt>
      <trkpt lat="48.69903" lon="1.72442">
        <ele>173</ele>
        <time>2018-12-18T08:35:22Z</time>
      </trkpt>
      <trkpt lat="48.69908" lon="1.72437">
        <ele>173</ele>
        <time>2018-12-18T08:35:32Z</time>
      </trkpt>
      <trkpt lat="48.69912" lon="1.72433">
        <ele>173</ele>
        <time>2018-12-18T08:35:40Z</time>
      </trkpt>
      <trkpt lat="48.69919" lon="1.7243">
        <ele>172</ele>
        <time>2018-12-18T08:35:48Z</time>
      </trkpt>
      <trkpt lat="48.69925" lon="1.72425">
        <ele>172</ele>
        <time>2018-12-18T08:35:54Z</time>
      </trkpt>
      <trkpt lat="48.69928" lon="1.7242">
        <ele>172</ele>
        <time>2018-12-18T08:35:58Z</time>
      </trkpt>
      <trkpt lat="48.69932" lon="1.72417">
        <ele>172</ele>
        <time>2018-12-18T08:36:04Z</time>
      </trkpt>
      <trkpt lat="48.69938" lon="1.72411">
        <ele>173</ele>
        <time>2018-12-18T08:36:08Z</time>
      </trkpt>
      <trkpt lat="48.69942" lon="1.72407">
        <ele>173</ele>
        <time>2018-12-18T08:36:12Z</time>
      </trkpt>
      <trkpt lat="48.69947" lon="1.72404">
        <ele>173</ele>
        <time>2018-12-18T08:36:16Z</time>
      </trkpt>
      <trkpt lat="48.69955" lon="1.724">
        <ele>173</ele>
        <time>2018-12-18T08:36:20Z</time>
      </trkpt>
      <trkpt lat="48.6996" lon="1.72398">
        <ele>173</ele>
        <time>2018-12-18T08:36:24Z</time>
      </trkpt>
      <trkpt lat="48.69965" lon="1.72395">
        <ele>173</ele>
        <time>2018-12-18T08:36:28Z</time>
      </trkpt>
      <trkpt lat="48.69968" lon="1.7239">
        <ele>173</ele>
        <time>2018-12-18T08:36:34Z</time>
      </trkpt>
      <trkpt lat="48.69974" lon="1.72385">
        <ele>173</ele>
        <time>2018-12-18T08:36:40Z</time>
      </trkpt>
      <trkpt lat="48.69979" lon="1.72381">
        <ele>173</ele>
        <time>2018-12-18T08:36:46Z</time>
      </trkpt>
      <trkpt lat="48.69983" lon="1.72377">
        <ele>173</ele>
        <time>2018-12-18T08:36:50Z</time>
      </trkpt>
      <trkpt lat="48.69988" lon="1.72374">
        <ele>173</ele>
        <time>2018-12-18T08:36:54Z</time>
      </trkpt>
      <trkpt lat="48.69994" lon="1.7237">
        <ele>173</ele>
        <time>2018-12-18T08:37:02Z</time>
      </trkpt>
      <trkpt lat="48.7" lon="1.72365">
        <ele>173</ele>
        <time>2018-12-18T08:37:08Z</time>
      </trkpt>
      <trkpt lat="48.70005" lon="1.7236">
        <ele>175</ele>
        <time>2018-12-18T08:37:12Z</time>
      </trkpt>
      <trkpt lat="48.70013" lon="1.72356">
        <ele>175</ele>
        <time>2018-12-18T08:37:16Z</time>
      </trkpt>
      <trkpt lat="48.7002" lon="1.7235">
        <ele>175</ele>
        <time>2018-12-18T08:37:20Z</time>
      </trkpt>
      <trkpt lat="48.70025" lon="1.72347">
        <ele>175</ele>
        <time>2018-12-18T08:37:24Z</time>
      </trkpt>
      <trkpt lat="48.70031" lon="1.72344">
        <ele>176</ele>
        <time>2018-12-18T08:37:28Z</time>
      </trkpt>
      <trkpt lat="48.70036" lon="1.7234">
        <ele>176</ele>
        <time>2018-12-18T08:37:32Z</time>
      </trkpt>
      <trkpt lat="48.70042" lon="1.72339">
        <ele>176</ele>
        <time>2018-12-18T08:37:36Z</time>
      </trkpt>
      <trkpt lat="48.70046" lon="1.72337">
        <ele>176</ele>
        <time>2018-12-18T08:37:40Z</time>
      </trkpt>
      <trkpt lat="48.70051" lon="1.72336">
        <ele>176</ele>
        <time>2018-12-18T08:37:44Z</time>
      </trkpt>
      <trkpt lat="48.70058" lon="1.72333">
        <ele>176</ele>
        <time>2018-12-18T08:37:48Z</time>
      </trkpt>
      <trkpt lat="48.70063" lon="1.72331">
        <ele>176</ele>
        <time>2018-12-18T08:37:52Z</time>
      </trkpt>
      <trkpt lat="48.70069" lon="1.72328">
        <ele>176</ele>
        <time>2018-12-18T08:37:56Z</time>
      </trkpt>
      <trkpt lat="48.70074" lon="1.72326">
        <ele>177</ele>
        <time>2018-12-18T08:38:00Z</time>
      </trkpt>
      <trkpt lat="48.70081" lon="1.72323">
        <ele>177</ele>
        <time>2018-12-18T08:38:06Z</time>
      </trkpt>
      <trkpt lat="48.70086" lon="1.72319">
        <ele>178</ele>
        <time>2018-12-18T08:38:12Z</time>
      </trkpt>
      <trkpt lat="48.7009" lon="1.72315">
        <ele>178</ele>
        <time>2018-12-18T08:38:16Z</time>
      </trkpt>
      <trkpt lat="48.70096" lon="1.72312">
        <ele>178</ele>
        <time>2018-12-18T08:38:22Z</time>
      </trkpt>
      <trkpt lat="48.701" lon="1.72308">
        <ele>178</ele>
        <time>2018-12-18T08:38:26Z</time>
      </trkpt>
      <trkpt lat="48.70106" lon="1.72301">
        <ele>178</ele>
        <time>2018-12-18T08:38:30Z</time>
      </trkpt>
      <trkpt lat="48.70109" lon="1.72297">
        <ele>178</ele>
        <time>2018-12-18T08:38:32Z</time>
      </trkpt>
      <trkpt lat="48.70114" lon="1.72294">
        <ele>178</ele>
        <time>2018-12-18T08:38:34Z</time>
      </trkpt>
      <trkpt lat="48.70118" lon="1.72289">
        <ele>178</ele>
        <time>2018-12-18T08:38:36Z</time>
      </trkpt>
      <trkpt lat="48.70123" lon="1.72284">
        <ele>178</ele>
        <time>2018-12-18T08:38:40Z</time>
      </trkpt>
      <trkpt lat="48.70128" lon="1.72281">
        <ele>178</ele>
        <time>2018-12-18T08:38:44Z</time>
      </trkpt>
      <trkpt lat="48.70134" lon="1.72276">
        <ele>178</ele>
        <time>2018-12-18T08:38:48Z</time>
      </trkpt>
      <trkpt lat="48.70139" lon="1.72274">
        <ele>178</ele>
        <time>2018-12-18T08:38:54Z</time>
      </trkpt>
      <trkpt lat="48.70146" lon="1.72267">
        <ele>178</ele>
        <time>2018-12-18T08:38:58Z</time>
      </trkpt>
      <trkpt lat="48.7015" lon="1.72265">
        <ele>178</ele>
        <time>2018-12-18T08:39:02Z</time>
      </trkpt>
      <trkpt lat="48.70155" lon="1.72262">
        <ele>178</ele>
        <time>2018-12-18T08:39:06Z</time>
      </trkpt>
      <trkpt lat="48.7016" lon="1.72259">
        <ele>178</ele>
        <time>2018-12-18T08:39:10Z</time>
      </trkpt>
      <trkpt lat="48.70166" lon="1.72254">
        <ele>178</ele>
        <time>2018-12-18T08:39:14Z</time>
      </trkpt>
      <trkpt lat="48.70171" lon="1.7225">
        <ele>178</ele>
        <time>2018-12-18T08:39:18Z</time>
      </trkpt>
      <trkpt lat="48.70175" lon="1.72246">
        <ele>179</ele>
        <time>2018-12-18T08:39:22Z</time>
      </trkpt>
      <trkpt lat="48.70181" lon="1.72244">
        <ele>179</ele>
        <time>2018-12-18T08:39:28Z</time>
      </trkpt>
      <trkpt lat="48.70186" lon="1.72239">
        <ele>180</ele>
        <time>2018-12-18T08:39:32Z</time>
      </trkpt>
      <trkpt lat="48.70191" lon="1.72234">
        <ele>180</ele>
        <time>2018-12-18T08:39:34Z</time>
      </trkpt>
      <trkpt lat="48.70196" lon="1.72231">
        <ele>180</ele>
        <time>2018-12-18T08:39:38Z</time>
      </trkpt>
      <trkpt lat="48.70201" lon="1.7223">
        <ele>180</ele>
        <time>2018-12-18T08:39:42Z</time>
      </trkpt>
      <trkpt lat="48.70206" lon="1.72228">
        <ele>181</ele>
        <time>2018-12-18T08:39:46Z</time>
      </trkpt>
      <trkpt lat="48.70211" lon="1.72225">
        <ele>181</ele>
        <time>2018-12-18T08:39:50Z</time>
      </trkpt>
      <trkpt lat="48.70217" lon="1.72219">
        <ele>181</ele>
        <time>2018-12-18T08:39:54Z</time>
      </trkpt>
      <trkpt lat="48.70223" lon="1.72215">
        <ele>181</ele>
        <time>2018-12-18T08:39:58Z</time>
      </trkpt>
      <trkpt lat="48.70227" lon="1.72211">
        <ele>181</ele>
        <time>2018-12-18T08:40:02Z</time>
      </trkpt>
      <trkpt lat="48.70234" lon="1.72205">
        <ele>182</ele>
        <time>2018-12-18T08:40:08Z</time>
      </trkpt>
      <trkpt lat="48.7024" lon="1.72202">
        <ele>182</ele>
        <time>2018-12-18T08:40:12Z</time>
      </trkpt>
      <trkpt lat="48.70246" lon="1.72197">
        <ele>182</ele>
        <time>2018-12-18T08:40:16Z</time>
      </trkpt>
      <trkpt lat="48.70251" lon="1.72194">
        <ele>185</ele>
        <time>2018-12-18T08:40:20Z</time>
      </trkpt>
      <trkpt lat="48.70255" lon="1.72188">
        <ele>185</ele>
        <time>2018-12-18T08:40:26Z</time>
      </trkpt>
      <trkpt lat="48.70261" lon="1.72184">
        <ele>185</ele>
        <time>2018-12-18T08:40:30Z</time>
      </trkpt>
      <trkpt lat="48.70268" lon="1.72179">
        <ele>185</ele>
        <time>2018-12-18T08:40:34Z</time>
      </trkpt>
      <trkpt lat="48.70272" lon="1.72176">
        <ele>185</ele>
        <time>2018-12-18T08:40:38Z</time>
      </trkpt>
      <trkpt lat="48.70277" lon="1.72175">
        <ele>185</ele>
        <time>2018-12-18T08:40:42Z</time>
      </trkpt>
      <trkpt lat="48.70282" lon="1.72172">
        <ele>185</ele>
        <time>2018-12-18T08:40:46Z</time>
      </trkpt>
      <trkpt lat="48.70287" lon="1.7217">
        <ele>185</ele>
        <time>2018-12-18T08:40:50Z</time>
      </trkpt>
      <trkpt lat="48.70292" lon="1.72167">
        <ele>184</ele>
        <time>2018-12-18T08:40:54Z</time>
      </trkpt>
      <trkpt lat="48.70297" lon="1.72162">
        <ele>184</ele>
        <time>2018-12-18T08:40:58Z</time>
      </trkpt>
      <trkpt lat="48.70302" lon="1.72158">
        <ele>185</ele>
        <time>2018-12-18T08:41:02Z</time>
      </trkpt>
      <trkpt lat="48.70307" lon="1.72153">
        <ele>185</ele>
        <time>2018-12-18T08:41:06Z</time>
      </trkpt>
      <trkpt lat="48.70314" lon="1.72149">
        <ele>185</ele>
        <time>2018-12-18T08:41:12Z</time>
      </trkpt>
      <trkpt lat="48.70318" lon="1.72141">
        <ele>185</ele>
        <time>2018-12-18T08:41:18Z</time>
      </trkpt>
      <trkpt lat="48.70323" lon="1.72139">
        <ele>185</ele>
        <time>2018-12-18T08:41:22Z</time>
      </trkpt>
      <trkpt lat="48.70328" lon="1.72134">
        <ele>185</ele>
        <time>2018-12-18T08:41:30Z</time>
      </trkpt>
      <trkpt lat="48.70332" lon="1.72131">
        <ele>185</ele>
        <time>2018-12-18T08:41:34Z</time>
      </trkpt>
      <trkpt lat="48.70338" lon="1.72129">
        <ele>185</ele>
        <time>2018-12-18T08:41:38Z</time>
      </trkpt>
      <trkpt lat="48.70342" lon="1.72124">
        <ele>185</ele>
        <time>2018-12-18T08:41:42Z</time>
      </trkpt>
      <trkpt lat="48.70347" lon="1.7212">
        <ele>185</ele>
        <time>2018-12-18T08:41:46Z</time>
      </trkpt>
      <trkpt lat="48.70352" lon="1.72116">
        <ele>185</ele>
        <time>2018-12-18T08:41:50Z</time>
      </trkpt>
      <trkpt lat="48.70358" lon="1.72112">
        <ele>185</ele>
        <time>2018-12-18T08:41:54Z</time>
      </trkpt>
      <trkpt lat="48.70362" lon="1.72108">
        <ele>185</ele>
        <time>2018-12-18T08:41:58Z</time>
      </trkpt>
      <trkpt lat="48.70369" lon="1.72104">
        <ele>185</ele>
        <time>2018-12-18T08:42:04Z</time>
      </trkpt>
      <trkpt lat="48.70374" lon="1.721">
        <ele>185</ele>
        <time>2018-12-18T08:42:08Z</time>
      </trkpt>
      <trkpt lat="48.7038" lon="1.72098">
        <ele>185</ele>
        <time>2018-12-18T08:42:12Z</time>
      </trkpt>
      <trkpt lat="48.70387" lon="1.72094">
        <ele>185</ele>
        <time>2018-12-18T08:42:16Z</time>
      </trkpt>
      <trkpt lat="48.70394" lon="1.7209">
        <ele>185</ele>
        <time>2018-12-18T08:42:20Z</time>
      </trkpt>
      <trkpt lat="48.70399" lon="1.72087">
        <ele>185</ele>
        <time>2018-12-18T08:42:24Z</time>
      </trkpt>
      <trkpt lat="48.70405" lon="1.72084">
        <ele>185</ele>
        <time>2018-12-18T08:42:28Z</time>
      </trkpt>
      <trkpt lat="48.7041" lon="1.72078">
        <ele>185</ele>
        <time>2018-12-18T08:42:32Z</time>
      </trkpt>
      <trkpt lat="48.70415" lon="1.72078">
        <ele>185</ele>
        <time>2018-12-18T08:42:36Z</time>
      </trkpt>
      <trkpt lat="48.7042" lon="1.72076">
        <ele>185</ele>
        <time>2018-12-18T08:42:40Z</time>
      </trkpt>
      <trkpt lat="48.70425" lon="1.72072">
        <ele>186</ele>
        <time>2018-12-18T08:42:44Z</time>
      </trkpt>
      <trkpt lat="48.70429" lon="1.7207">
        <ele>186</ele>
        <time>2018-12-18T08:42:48Z</time>
      </trkpt>
      <trkpt lat="48.70436" lon="1.72065">
        <ele>186</ele>
        <time>2018-12-18T08:42:52Z</time>
      </trkpt>
      <trkpt lat="48.70444" lon="1.72061">
        <ele>186</ele>
        <time>2018-12-18T08:42:56Z</time>
      </trkpt>
      <trkpt lat="48.7045" lon="1.72058">
        <ele>187</ele>
        <time>2018-12-18T08:43:00Z</time>
      </trkpt>
      <trkpt lat="48.70458" lon="1.72056">
        <ele>187</ele>
        <time>2018-12-18T08:43:04Z</time>
      </trkpt>
      <trkpt lat="48.70464" lon="1.72054">
        <ele>187</ele>
        <time>2018-12-18T08:43:08Z</time>
      </trkpt>
      <trkpt lat="48.70469" lon="1.72051">
        <ele>187</ele>
        <time>2018-12-18T08:43:12Z</time>
      </trkpt>
      <trkpt lat="48.70475" lon="1.72047">
        <ele>187</ele>
        <time>2018-12-18T08:43:16Z</time>
      </trkpt>
      <trkpt lat="48.70479" lon="1.72044">
        <ele>187</ele>
        <time>2018-12-18T08:43:20Z</time>
      </trkpt>
      <trkpt lat="48.70485" lon="1.72039">
        <ele>187</ele>
        <time>2018-12-18T08:43:26Z</time>
      </trkpt>
      <trkpt lat="48.70491" lon="1.72037">
        <ele>187</ele>
        <time>2018-12-18T08:43:32Z</time>
      </trkpt>
      <trkpt lat="48.70496" lon="1.72034">
        <ele>187</ele>
        <time>2018-12-18T08:43:36Z</time>
      </trkpt>
      <trkpt lat="48.70501" lon="1.72027">
        <ele>189</ele>
        <time>2018-12-18T08:43:42Z</time>
      </trkpt>
      <trkpt lat="48.70505" lon="1.72023">
        <ele>189</ele>
        <time>2018-12-18T08:43:46Z</time>
      </trkpt>
      <trkpt lat="48.70511" lon="1.72018">
        <ele>189</ele>
        <time>2018-12-18T08:43:52Z</time>
      </trkpt>
      <trkpt lat="48.70515" lon="1.72014">
        <ele>189</ele>
        <time>2018-12-18T08:43:56Z</time>
      </trkpt>
      <trkpt lat="48.70521" lon="1.72012">
        <ele>189</ele>
        <time>2018-12-18T08:44:00Z</time>
      </trkpt>
      <trkpt lat="48.70527" lon="1.72009">
        <ele>189</ele>
        <time>2018-12-18T08:44:04Z</time>
      </trkpt>
      <trkpt lat="48.70533" lon="1.72001">
        <ele>189</ele>
        <time>2018-12-18T08:44:08Z</time>
      </trkpt>
      <trkpt lat="48.70537" lon="1.71996">
        <ele>189</ele>
        <time>2018-12-18T08:44:10Z</time>
      </trkpt>
      <trkpt lat="48.70544" lon="1.71988">
        <ele>189</ele>
        <time>2018-12-18T08:44:16Z</time>
      </trkpt>
      <trkpt lat="48.70547" lon="1.71983">
        <ele>189</ele>
        <time>2018-12-18T08:44:20Z</time>
      </trkpt>
      <trkpt lat="48.70552" lon="1.71979">
        <ele>189</ele>
        <time>2018-12-18T08:44:22Z</time>
      </trkpt>
      <trkpt lat="48.70557" lon="1.71976">
        <ele>189</ele>
        <time>2018-12-18T08:44:26Z</time>
      </trkpt>
      <trkpt lat="48.70562" lon="1.71973">
        <ele>189</ele>
        <time>2018-12-18T08:44:30Z</time>
      </trkpt>
      <trkpt lat="48.70568" lon="1.71971">
        <ele>189</ele>
        <time>2018-12-18T08:44:34Z</time>
      </trkpt>
      <trkpt lat="48.70574" lon="1.71968">
        <ele>189</ele>
        <time>2018-12-18T08:44:38Z</time>
      </trkpt>
      <trkpt lat="48.70581" lon="1.71963">
        <ele>189</ele>
        <time>2018-12-18T08:44:42Z</time>
      </trkpt>
      <trkpt lat="48.70588" lon="1.7196">
        <ele>188</ele>
        <time>2018-12-18T08:44:46Z</time>
      </trkpt>
      <trkpt lat="48.70594" lon="1.71956">
        <ele>188</ele>
        <time>2018-12-18T08:44:50Z</time>
      </trkpt>
      <trkpt lat="48.70599" lon="1.71951">
        <ele>188</ele>
        <time>2018-12-18T08:44:56Z</time>
      </trkpt>
      <trkpt lat="48.70604" lon="1.71948">
        <ele>188</ele>
        <time>2018-12-18T08:45:00Z</time>
      </trkpt>
      <trkpt lat="48.70608" lon="1.71944">
        <ele>188</ele>
        <time>2018-12-18T08:45:02Z</time>
      </trkpt>
      <trkpt lat="48.70613" lon="1.71941">
        <ele>188</ele>
        <time>2018-12-18T08:45:06Z</time>
      </trkpt>
      <trkpt lat="48.70619" lon="1.71937">
        <ele>188</ele>
        <time>2018-12-18T08:45:10Z</time>
      </trkpt>
      <trkpt lat="48.70626" lon="1.71933">
        <ele>188</ele>
        <time>2018-12-18T08:45:14Z</time>
      </trkpt>
      <trkpt lat="48.70632" lon="1.71928">
        <ele>188</ele>
        <time>2018-12-18T08:45:18Z</time>
      </trkpt>
      <trkpt lat="48.70637" lon="1.71924">
        <ele>188</ele>
        <time>2018-12-18T08:45:22Z</time>
      </trkpt>
      <trkpt lat="48.70643" lon="1.7192">
        <ele>188</ele>
        <time>2018-12-18T08:45:26Z</time>
      </trkpt>
      <trkpt lat="48.70647" lon="1.71916">
        <ele>189</ele>
        <time>2018-12-18T08:45:30Z</time>
      </trkpt>
      <trkpt lat="48.70652" lon="1.71913">
        <ele>189</ele>
        <time>2018-12-18T08:45:34Z</time>
      </trkpt>
      <trkpt lat="48.70656" lon="1.71909">
        <ele>189</ele>
        <time>2018-12-18T08:45:36Z</time>
      </trkpt>
      <trkpt lat="48.70662" lon="1.71904">
        <ele>189</ele>
        <time>2018-12-18T08:45:40Z</time>
      </trkpt>
      <trkpt lat="48.70667" lon="1.719">
        <ele>189</ele>
        <time>2018-12-18T08:45:44Z</time>
      </trkpt>
      <trkpt lat="48.70674" lon="1.71897">
        <ele>189</ele>
        <time>2018-12-18T08:45:48Z</time>
      </trkpt>
      <trkpt lat="48.70679" lon="1.71894">
        <ele>189</ele>
        <time>2018-12-18T08:45:52Z</time>
      </trkpt>
      <trkpt lat="48.70684" lon="1.71891">
        <ele>189</ele>
        <time>2018-12-18T08:45:58Z</time>
      </trkpt>
      <trkpt lat="48.70688" lon="1.71888">
        <ele>189</ele>
        <time>2018-12-18T08:46:02Z</time>
      </trkpt>
      <trkpt lat="48.70692" lon="1.71885">
        <ele>189</ele>
        <time>2018-12-18T08:46:06Z</time>
      </trkpt>
      <trkpt lat="48.70698" lon="1.71879">
        <ele>189</ele>
        <time>2018-12-18T08:46:10Z</time>
      </trkpt>
      <trkpt lat="48.70701" lon="1.71873">
        <ele>189</ele>
        <time>2018-12-18T08:46:14Z</time>
      </trkpt>
      <trkpt lat="48.70705" lon="1.71869">
        <ele>189</ele>
        <time>2018-12-18T08:46:16Z</time>
      </trkpt>
      <trkpt lat="48.70709" lon="1.71866">
        <ele>189</ele>
        <time>2018-12-18T08:46:20Z</time>
      </trkpt>
      <trkpt lat="48.70715" lon="1.71862">
        <ele>189</ele>
        <time>2018-12-18T08:46:24Z</time>
      </trkpt>
      <trkpt lat="48.70719" lon="1.71858">
        <ele>189</ele>
        <time>2018-12-18T08:46:26Z</time>
      </trkpt>
      <trkpt lat="48.70724" lon="1.71853">
        <ele>189</ele>
        <time>2018-12-18T08:46:30Z</time>
      </trkpt>
      <trkpt lat="48.70728" lon="1.71846">
        <ele>189</ele>
        <time>2018-12-18T08:46:34Z</time>
      </trkpt>
      <trkpt lat="48.70733" lon="1.7184">
        <ele>188</ele>
        <time>2018-12-18T08:46:38Z</time>
      </trkpt>
      <trkpt lat="48.70739" lon="1.71834">
        <ele>188</ele>
        <time>2018-12-18T08:46:42Z</time>
      </trkpt>
      <trkpt lat="48.70744" lon="1.71831">
        <ele>188</ele>
        <time>2018-12-18T08:46:46Z</time>
      </trkpt>
      <trkpt lat="48.70749" lon="1.71825">
        <ele>188</ele>
        <time>2018-12-18T08:46:50Z</time>
      </trkpt>
      <trkpt lat="48.70754" lon="1.71821">
        <ele>187</ele>
        <time>2018-12-18T08:46:54Z</time>
      </trkpt>
      <trkpt lat="48.7076" lon="1.71819">
        <ele>187</ele>
        <time>2018-12-18T08:46:58Z</time>
      </trkpt>
      <trkpt lat="48.70764" lon="1.71816">
        <ele>187</ele>
        <time>2018-12-18T08:47:02Z</time>
      </trkpt>
      <trkpt lat="48.70771" lon="1.71811">
        <ele>187</ele>
        <time>2018-12-18T08:47:06Z</time>
      </trkpt>
      <trkpt lat="48.70777" lon="1.71807">
        <ele>187</ele>
        <time>2018-12-18T08:47:10Z</time>
      </trkpt>
      <trkpt lat="48.70782" lon="1.71802">
        <ele>186</ele>
        <time>2018-12-18T08:47:14Z</time>
      </trkpt>
      <trkpt lat="48.70788" lon="1.71796">
        <ele>186</ele>
        <time>2018-12-18T08:47:20Z</time>
      </trkpt>
      <trkpt lat="48.70792" lon="1.71791">
        <ele>186</ele>
        <time>2018-12-18T08:47:24Z</time>
      </trkpt>
      <trkpt lat="48.70797" lon="1.71791">
        <ele>186</ele>
        <time>2018-12-18T08:47:28Z</time>
      </trkpt>
      <trkpt lat="48.70802" lon="1.7179">
        <ele>186</ele>
        <time>2018-12-18T08:47:32Z</time>
      </trkpt>
      <trkpt lat="48.70807" lon="1.71786">
        <ele>186</ele>
        <time>2018-12-18T08:47:38Z</time>
      </trkpt>
      <trkpt lat="48.70811" lon="1.71779">
        <ele>186</ele>
        <time>2018-12-18T08:47:42Z</time>
      </trkpt>
      <trkpt lat="48.70815" lon="1.71772">
        <ele>186</ele>
        <time>2018-12-18T08:47:46Z</time>
      </trkpt>
      <trkpt lat="48.7082" lon="1.71766">
        <ele>185</ele>
        <time>2018-12-18T08:47:50Z</time>
      </trkpt>
      <trkpt lat="48.70826" lon="1.71763">
        <ele>185</ele>
        <time>2018-12-18T08:47:54Z</time>
      </trkpt>
      <trkpt lat="48.70832" lon="1.71757">
        <ele>185</ele>
        <time>2018-12-18T08:47:58Z</time>
      </trkpt>
      <trkpt lat="48.70837" lon="1.71753">
        <ele>185</ele>
        <time>2018-12-18T08:48:04Z</time>
      </trkpt>
      <trkpt lat="48.70841" lon="1.71748">
        <ele>185</ele>
        <time>2018-12-18T08:48:08Z</time>
      </trkpt>
      <trkpt lat="48.70846" lon="1.71745">
        <ele>185</ele>
        <time>2018-12-18T08:48:12Z</time>
      </trkpt>
      <trkpt lat="48.7085" lon="1.71736">
        <ele>185</ele>
        <time>2018-12-18T08:48:16Z</time>
      </trkpt>
      <trkpt lat="48.70855" lon="1.71731">
        <ele>186</ele>
        <time>2018-12-18T08:48:20Z</time>
      </trkpt>
      <trkpt lat="48.7086" lon="1.71726">
        <ele>186</ele>
        <time>2018-12-18T08:48:24Z</time>
      </trkpt>
      <trkpt lat="48.70865" lon="1.71722">
        <ele>186</ele>
        <time>2018-12-18T08:48:28Z</time>
      </trkpt>
      <trkpt lat="48.70871" lon="1.71719">
        <ele>186</ele>
        <time>2018-12-18T08:48:32Z</time>
      </trkpt>
      <trkpt lat="48.70877" lon="1.71715">
        <ele>186</ele>
        <time>2018-12-18T08:48:36Z</time>
      </trkpt>
      <trkpt lat="48.70883" lon="1.71709">
        <ele>187</ele>
        <time>2018-12-18T08:48:40Z</time>
      </trkpt>
      <trkpt lat="48.70888" lon="1.71702">
        <ele>187</ele>
        <time>2018-12-18T08:48:44Z</time>
      </trkpt>
      <trkpt lat="48.70893" lon="1.71696">
        <ele>187</ele>
        <time>2018-12-18T08:48:48Z</time>
      </trkpt>
      <trkpt lat="48.70898" lon="1.71693">
        <ele>187</ele>
        <time>2018-12-18T08:48:52Z</time>
      </trkpt>
      <trkpt lat="48.70903" lon="1.71687">
        <ele>187</ele>
        <time>2018-12-18T08:48:56Z</time>
      </trkpt>
      <trkpt lat="48.70908" lon="1.71681">
        <ele>187</ele>
        <time>2018-12-18T08:49:00Z</time>
      </trkpt>
      <trkpt lat="48.7091" lon="1.71675">
        <ele>187</ele>
        <time>2018-12-18T08:49:04Z</time>
      </trkpt>
      <trkpt lat="48.70914" lon="1.71671">
        <ele>187</ele>
        <time>2018-12-18T08:49:08Z</time>
      </trkpt>
      <trkpt lat="48.70919" lon="1.71666">
        <ele>187</ele>
        <time>2018-12-18T08:49:12Z</time>
      </trkpt>
      <trkpt lat="48.70924" lon="1.7166">
        <ele>187</ele>
        <time>2018-12-18T08:49:16Z</time>
      </trkpt>
      <trkpt lat="48.70931" lon="1.71655">
        <ele>187</ele>
        <time>2018-12-18T08:49:20Z</time>
      </trkpt>
      <trkpt lat="48.70935" lon="1.71652">
        <ele>186</ele>
        <time>2018-12-18T08:49:24Z</time>
      </trkpt>
      <trkpt lat="48.7094" lon="1.71649">
        <ele>186</ele>
        <time>2018-12-18T08:49:28Z</time>
      </trkpt>
      <trkpt lat="48.70946" lon="1.71647">
        <ele>186</ele>
        <time>2018-12-18T08:49:32Z</time>
      </trkpt>
      <trkpt lat="48.70953" lon="1.71639">
        <ele>186</ele>
        <time>2018-12-18T08:49:36Z</time>
      </trkpt>
      <trkpt lat="48.70958" lon="1.71635">
        <ele>186</ele>
        <time>2018-12-18T08:49:40Z</time>
      </trkpt>
      <trkpt lat="48.70961" lon="1.71631">
        <ele>186</ele>
        <time>2018-12-18T08:49:42Z</time>
      </trkpt>
      <trkpt lat="48.70968" lon="1.71628">
        <ele>186</ele>
        <time>2018-12-18T08:49:46Z</time>
      </trkpt>
      <trkpt lat="48.70975" lon="1.71619">
        <ele>186</ele>
        <time>2018-12-18T08:49:52Z</time>
      </trkpt>
      <trkpt lat="48.7098" lon="1.71618">
        <ele>186</ele>
        <time>2018-12-18T08:49:54Z</time>
      </trkpt>
      <trkpt lat="48.70984" lon="1.71613">
        <ele>185</ele>
        <time>2018-12-18T08:49:58Z</time>
      </trkpt>
      <trkpt lat="48.70989" lon="1.7161">
        <ele>185</ele>
        <time>2018-12-18T08:50:02Z</time>
      </trkpt>
      <trkpt lat="48.70994" lon="1.71608">
        <ele>185</ele>
        <time>2018-12-18T08:50:18Z</time>
      </trkpt>
      <trkpt lat="48.70998" lon="1.71611">
        <ele>185</ele>
        <time>2018-12-18T08:51:44Z</time>
      </trkpt>
      <trkpt lat="48.71003" lon="1.71606">
        <ele>181</ele>
        <time>2018-12-18T08:53:42Z</time>
      </trkpt>
      <trkpt lat="48.71009" lon="1.716">
        <ele>181</ele>
        <time>2018-12-18T08:53:46Z</time>
      </trkpt>
      <trkpt lat="48.71013" lon="1.71598">
        <ele>181</ele>
        <time>2018-12-18T08:53:50Z</time>
      </trkpt>
      <trkpt lat="48.71019" lon="1.71599">
        <ele>180</ele>
        <time>2018-12-18T08:54:02Z</time>
      </trkpt>
      <trkpt lat="48.71024" lon="1.71601">
        <ele>180</ele>
        <time>2018-12-18T08:54:06Z</time>
      </trkpt>
      <trkpt lat="48.71028" lon="1.71606">
        <ele>179</ele>
        <time>2018-12-18T08:54:10Z</time>
      </trkpt>
      <trkpt lat="48.71033" lon="1.71611">
        <ele>179</ele>
        <time>2018-12-18T08:54:18Z</time>
      </trkpt>
      <trkpt lat="48.71038" lon="1.71615">
        <ele>179</ele>
        <time>2018-12-18T08:54:28Z</time>
      </trkpt>
      <trkpt lat="48.71043" lon="1.71616">
        <ele>178</ele>
        <time>2018-12-18T08:54:32Z</time>
      </trkpt>
      <trkpt lat="48.71049" lon="1.71618">
        <ele>178</ele>
        <time>2018-12-18T08:54:36Z</time>
      </trkpt>
      <trkpt lat="48.71054" lon="1.71626">
        <ele>178</ele>
        <time>2018-12-18T08:54:40Z</time>
      </trkpt>
      <trkpt lat="48.71058" lon="1.71632">
        <ele>178</ele>
        <time>2018-12-18T08:54:46Z</time>
      </trkpt>
      <trkpt lat="48.71064" lon="1.71635">
        <ele>177</ele>
        <time>2018-12-18T08:54:50Z</time>
      </trkpt>
      <trkpt lat="48.71065" lon="1.71641">
        <ele>177</ele>
        <time>2018-12-18T08:54:54Z</time>
      </trkpt>
      <trkpt lat="48.7107" lon="1.71652">
        <ele>177</ele>
        <time>2018-12-18T08:55:00Z</time>
      </trkpt>
      <trkpt lat="48.71076" lon="1.71658">
        <ele>177</ele>
        <time>2018-12-18T08:55:04Z</time>
      </trkpt>
      <trkpt lat="48.71084" lon="1.71663">
        <ele>174</ele>
        <time>2018-12-18T08:55:06Z</time>
      </trkpt>
      <trkpt lat="48.71089" lon="1.71665">
        <ele>173</ele>
        <time>2018-12-18T08:55:08Z</time>
      </trkpt>
      <trkpt lat="48.71095" lon="1.71667">
        <ele>174</ele>
        <time>2018-12-18T08:55:10Z</time>
      </trkpt>
      <trkpt lat="48.71101" lon="1.71671">
        <ele>173</ele>
        <time>2018-12-18T08:55:12Z</time>
      </trkpt>
      <trkpt lat="48.71108" lon="1.71675">
        <ele>173</ele>
        <time>2018-12-18T08:55:16Z</time>
      </trkpt>
      <trkpt lat="48.71113" lon="1.7168">
        <ele>172</ele>
        <time>2018-12-18T08:55:20Z</time>
      </trkpt>
      <trkpt lat="48.71118" lon="1.71685">
        <ele>171</ele>
        <time>2018-12-18T08:55:24Z</time>
      </trkpt>
      <trkpt lat="48.71121" lon="1.71692">
        <ele>171</ele>
        <time>2018-12-18T08:55:30Z</time>
      </trkpt>
      <trkpt lat="48.71124" lon="1.71701">
        <ele>171</ele>
        <time>2018-12-18T08:55:34Z</time>
      </trkpt>
      <trkpt lat="48.7113" lon="1.71696">
        <ele>171</ele>
        <time>2018-12-18T08:55:40Z</time>
      </trkpt>
      <trkpt lat="48.71134" lon="1.71702">
        <ele>171</ele>
        <time>2018-12-18T08:55:44Z</time>
      </trkpt>
      <trkpt lat="48.71138" lon="1.71705">
        <ele>170</ele>
        <time>2018-12-18T08:55:48Z</time>
      </trkpt>
      <trkpt lat="48.71143" lon="1.71711">
        <ele>170</ele>
        <time>2018-12-18T08:55:54Z</time>
      </trkpt>
      <trkpt lat="48.71146" lon="1.71718">
        <ele>171</ele>
        <time>2018-12-18T08:55:58Z</time>
      </trkpt>
      <trkpt lat="48.71153" lon="1.7172">
        <ele>170</ele>
        <time>2018-12-18T08:56:02Z</time>
      </trkpt>
      <trkpt lat="48.71157" lon="1.71725">
        <ele>170</ele>
        <time>2018-12-18T08:56:06Z</time>
      </trkpt>
      <trkpt lat="48.71161" lon="1.71732">
        <ele>170</ele>
        <time>2018-12-18T08:56:12Z</time>
      </trkpt>
      <trkpt lat="48.71163" lon="1.71738">
        <ele>170</ele>
        <time>2018-12-18T08:56:16Z</time>
      </trkpt>
      <trkpt lat="48.7117" lon="1.71743">
        <ele>167</ele>
        <time>2018-12-18T08:56:20Z</time>
      </trkpt>
      <trkpt lat="48.71172" lon="1.7175">
        <ele>168</ele>
        <time>2018-12-18T08:56:22Z</time>
      </trkpt>
      <trkpt lat="48.71174" lon="1.71756">
        <ele>168</ele>
        <time>2018-12-18T08:56:26Z</time>
      </trkpt>
      <trkpt lat="48.71179" lon="1.71757">
        <ele>168</ele>
        <time>2018-12-18T08:56:28Z</time>
      </trkpt>
      <trkpt lat="48.71185" lon="1.71764">
        <ele>167</ele>
        <time>2018-12-18T08:56:32Z</time>
      </trkpt>
      <trkpt lat="48.71192" lon="1.71768">
        <ele>166</ele>
        <time>2018-12-18T08:56:36Z</time>
      </trkpt>
      <trkpt lat="48.71202" lon="1.71775">
        <ele>165</ele>
        <time>2018-12-18T08:56:40Z</time>
      </trkpt>
      <trkpt lat="48.71208" lon="1.71782">
        <ele>164</ele>
        <time>2018-12-18T08:56:44Z</time>
      </trkpt>
      <trkpt lat="48.71216" lon="1.71787">
        <ele>164</ele>
        <time>2018-12-18T08:56:48Z</time>
      </trkpt>
      <trkpt lat="48.71221" lon="1.71789">
        <ele>164</ele>
        <time>2018-12-18T08:56:52Z</time>
      </trkpt>
      <trkpt lat="48.71226" lon="1.71789">
        <ele>163</ele>
        <time>2018-12-18T08:56:54Z</time>
      </trkpt>
      <trkpt lat="48.71234" lon="1.7179">
        <ele>163</ele>
        <time>2018-12-18T08:56:58Z</time>
      </trkpt>
      <trkpt lat="48.71238" lon="1.71792">
        <ele>163</ele>
        <time>2018-12-18T08:57:02Z</time>
      </trkpt>
      <trkpt lat="48.71242" lon="1.71793">
        <ele>162</ele>
        <time>2018-12-18T08:57:06Z</time>
      </trkpt>
      <trkpt lat="48.71247" lon="1.71793">
        <ele>162</ele>
        <time>2018-12-18T08:57:10Z</time>
      </trkpt>
      <trkpt lat="48.71255" lon="1.71795">
        <ele>155</ele>
        <time>2018-12-18T08:57:14Z</time>
      </trkpt>
      <trkpt lat="48.71262" lon="1.71797">
        <ele>155</ele>
        <time>2018-12-18T08:57:18Z</time>
      </trkpt>
      <trkpt lat="48.71267" lon="1.71797">
        <ele>154</ele>
        <time>2018-12-18T08:57:22Z</time>
      </trkpt>
      <trkpt lat="48.71271" lon="1.71799">
        <ele>154</ele>
        <time>2018-12-18T08:57:26Z</time>
      </trkpt>
      <trkpt lat="48.71278" lon="1.71801">
        <ele>154</ele>
        <time>2018-12-18T08:57:30Z</time>
      </trkpt>
      <trkpt lat="48.71284" lon="1.71804">
        <ele>154</ele>
        <time>2018-12-18T08:57:34Z</time>
      </trkpt>
      <trkpt lat="48.71289" lon="1.71806">
        <ele>154</ele>
        <time>2018-12-18T08:57:40Z</time>
      </trkpt>
      <trkpt lat="48.71296" lon="1.71809">
        <ele>153</ele>
        <time>2018-12-18T08:57:46Z</time>
      </trkpt>
      <trkpt lat="48.713" lon="1.71814">
        <ele>153</ele>
        <time>2018-12-18T08:57:50Z</time>
      </trkpt>
      <trkpt lat="48.71305" lon="1.71821">
        <ele>153</ele>
        <time>2018-12-18T08:57:54Z</time>
      </trkpt>
      <trkpt lat="48.71313" lon="1.71823">
        <ele>152</ele>
        <time>2018-12-18T08:57:58Z</time>
      </trkpt>
      <trkpt lat="48.71319" lon="1.71828">
        <ele>152</ele>
        <time>2018-12-18T08:58:00Z</time>
      </trkpt>
      <trkpt lat="48.71323" lon="1.71829">
        <ele>151</ele>
        <time>2018-12-18T08:58:08Z</time>
      </trkpt>
      <trkpt lat="48.71328" lon="1.71831">
        <ele>151</ele>
        <time>2018-12-18T08:59:36Z</time>
      </trkpt>
      <trkpt lat="48.71333" lon="1.71835">
        <ele>150</ele>
        <time>2018-12-18T08:59:44Z</time>
      </trkpt>
      <trkpt lat="48.7134" lon="1.71835">
        <ele>150</ele>
        <time>2018-12-18T08:59:52Z</time>
      </trkpt>
      <trkpt lat="48.71348" lon="1.71836">
        <ele>149</ele>
        <time>2018-12-18T08:59:56Z</time>
      </trkpt>
      <trkpt lat="48.71355" lon="1.71835">
        <ele>149</ele>
        <time>2018-12-18T09:00:00Z</time>
      </trkpt>
      <trkpt lat="48.71361" lon="1.71835">
        <ele>149</ele>
        <time>2018-12-18T09:00:02Z</time>
      </trkpt>
      <trkpt lat="48.71365" lon="1.71835">
        <ele>149</ele>
        <time>2018-12-18T09:00:04Z</time>
      </trkpt>
      <trkpt lat="48.7137" lon="1.71838">
        <ele>148</ele>
        <time>2018-12-18T09:00:06Z</time>
      </trkpt>
      <trkpt lat="48.71378" lon="1.71839">
        <ele>148</ele>
        <time>2018-12-18T09:00:10Z</time>
      </trkpt>
      <trkpt lat="48.71384" lon="1.71841">
        <ele>148</ele>
        <time>2018-12-18T09:00:14Z</time>
      </trkpt>
      <trkpt lat="48.71389" lon="1.71843">
        <ele>148</ele>
        <time>2018-12-18T09:00:18Z</time>
      </trkpt>
      <trkpt lat="48.71394" lon="1.71845">
        <ele>148</ele>
        <time>2018-12-18T09:00:22Z</time>
      </trkpt>
      <trkpt lat="48.714" lon="1.71847">
        <ele>148</ele>
        <time>2018-12-18T09:00:26Z</time>
      </trkpt>
      <trkpt lat="48.7141" lon="1.71848">
        <ele>148</ele>
        <time>2018-12-18T09:00:34Z</time>
      </trkpt>
      <trkpt lat="48.71415" lon="1.71851">
        <ele>148</ele>
        <time>2018-12-18T09:00:36Z</time>
      </trkpt>
      <trkpt lat="48.71422" lon="1.71856">
        <ele>147</ele>
        <time>2018-12-18T09:00:40Z</time>
      </trkpt>
      <trkpt lat="48.7143" lon="1.71857">
        <ele>147</ele>
        <time>2018-12-18T09:00:44Z</time>
      </trkpt>
      <trkpt lat="48.71436" lon="1.71861">
        <ele>147</ele>
        <time>2018-12-18T09:00:48Z</time>
      </trkpt>
      <trkpt lat="48.71441" lon="1.71862">
        <ele>147</ele>
        <time>2018-12-18T09:00:50Z</time>
      </trkpt>
      <trkpt lat="48.71447" lon="1.71864">
        <ele>147</ele>
        <time>2018-12-18T09:00:56Z</time>
      </trkpt>
      <trkpt lat="48.71451" lon="1.71867">
        <ele>147</ele>
        <time>2018-12-18T09:01:00Z</time>
      </trkpt>
      <trkpt lat="48.71457" lon="1.71869">
        <ele>147</ele>
        <time>2018-12-18T09:01:04Z</time>
      </trkpt>
      <trkpt lat="48.71464" lon="1.71871">
        <ele>147</ele>
        <time>2018-12-18T09:01:10Z</time>
      </trkpt>
      <trkpt lat="48.7147" lon="1.71871">
        <ele>147</ele>
        <time>2018-12-18T09:01:14Z</time>
      </trkpt>
      <trkpt lat="48.71477" lon="1.71872">
        <ele>147</ele>
        <time>2018-12-18T09:01:20Z</time>
      </trkpt>
      <trkpt lat="48.71484" lon="1.71872">
        <ele>147</ele>
        <time>2018-12-18T09:01:24Z</time>
      </trkpt>
      <trkpt lat="48.7149" lon="1.71873">
        <ele>147</ele>
        <time>2018-12-18T09:01:28Z</time>
      </trkpt>
      <trkpt lat="48.71496" lon="1.71875">
        <ele>146</ele>
        <time>2018-12-18T09:01:32Z</time>
      </trkpt>
      <trkpt lat="48.71502" lon="1.71877">
        <ele>145</ele>
        <time>2018-12-18T09:01:36Z</time>
      </trkpt>
      <trkpt lat="48.71507" lon="1.71878">
        <ele>145</ele>
        <time>2018-12-18T09:01:40Z</time>
      </trkpt>
      <trkpt lat="48.71511" lon="1.71878">
        <ele>145</ele>
        <time>2018-12-18T09:01:44Z</time>
      </trkpt>
      <trkpt lat="48.71518" lon="1.71879">
        <ele>145</ele>
        <time>2018-12-18T09:01:50Z</time>
      </trkpt>
      <trkpt lat="48.71523" lon="1.71881">
        <ele>145</ele>
        <time>2018-12-18T09:01:54Z</time>
      </trkpt>
      <trkpt lat="48.71528" lon="1.71881">
        <ele>144</ele>
        <time>2018-12-18T09:01:58Z</time>
      </trkpt>
      <trkpt lat="48.71533" lon="1.71882">
        <ele>144</ele>
        <time>2018-12-18T09:02:04Z</time>
      </trkpt>
      <trkpt lat="48.71541" lon="1.71885">
        <ele>144</ele>
        <time>2018-12-18T09:02:08Z</time>
      </trkpt>
      <trkpt lat="48.71546" lon="1.71885">
        <ele>144</ele>
        <time>2018-12-18T09:02:12Z</time>
      </trkpt>
      <trkpt lat="48.71551" lon="1.71884">
        <ele>144</ele>
        <time>2018-12-18T09:02:18Z</time>
      </trkpt>
      <trkpt lat="48.71556" lon="1.71884">
        <ele>144</ele>
        <time>2018-12-18T09:02:22Z</time>
      </trkpt>
      <trkpt lat="48.71561" lon="1.71884">
        <ele>144</ele>
        <time>2018-12-18T09:02:26Z</time>
      </trkpt>
      <trkpt lat="48.71568" lon="1.71887">
        <ele>144</ele>
        <time>2018-12-18T09:02:30Z</time>
      </trkpt>
      <trkpt lat="48.71574" lon="1.71889">
        <ele>143</ele>
        <time>2018-12-18T09:02:34Z</time>
      </trkpt>
      <trkpt lat="48.7158" lon="1.71892">
        <ele>143</ele>
        <time>2018-12-18T09:02:38Z</time>
      </trkpt>
      <trkpt lat="48.71585" lon="1.71893">
        <ele>142</ele>
        <time>2018-12-18T09:02:42Z</time>
      </trkpt>
      <trkpt lat="48.71591" lon="1.71894">
        <ele>142</ele>
        <time>2018-12-18T09:02:46Z</time>
      </trkpt>
      <trkpt lat="48.71595" lon="1.71898">
        <ele>142</ele>
        <time>2018-12-18T09:02:54Z</time>
      </trkpt>
      <trkpt lat="48.716" lon="1.71902">
        <ele>142</ele>
        <time>2018-12-18T09:02:58Z</time>
      </trkpt>
      <trkpt lat="48.71605" lon="1.71904">
        <ele>142</ele>
        <time>2018-12-18T09:03:02Z</time>
      </trkpt>
      <trkpt lat="48.7161" lon="1.71906">
        <ele>142</ele>
        <time>2018-12-18T09:03:06Z</time>
      </trkpt>
      <trkpt lat="48.71618" lon="1.71906">
        <ele>141</ele>
        <time>2018-12-18T09:03:10Z</time>
      </trkpt>
      <trkpt lat="48.71624" lon="1.71907">
        <ele>141</ele>
        <time>2018-12-18T09:03:14Z</time>
      </trkpt>
      <trkpt lat="48.7163" lon="1.71909">
        <ele>141</ele>
        <time>2018-12-18T09:03:18Z</time>
      </trkpt>
      <trkpt lat="48.71635" lon="1.71911">
        <ele>141</ele>
        <time>2018-12-18T09:03:20Z</time>
      </trkpt>
      <trkpt lat="48.71643" lon="1.71912">
        <ele>141</ele>
        <time>2018-12-18T09:03:24Z</time>
      </trkpt>
      <trkpt lat="48.71649" lon="1.71915">
        <ele>140</ele>
        <time>2018-12-18T09:03:28Z</time>
      </trkpt>
      <trkpt lat="48.71657" lon="1.71918">
        <ele>139</ele>
        <time>2018-12-18T09:03:32Z</time>
      </trkpt>
      <trkpt lat="48.71662" lon="1.71923">
        <ele>139</ele>
        <time>2018-12-18T09:03:36Z</time>
      </trkpt>
      <trkpt lat="48.71667" lon="1.71925">
        <ele>138</ele>
        <time>2018-12-18T09:03:42Z</time>
      </trkpt>
      <trkpt lat="48.71671" lon="1.71929">
        <ele>138</ele>
        <time>2018-12-18T09:03:46Z</time>
      </trkpt>
      <trkpt lat="48.71677" lon="1.7193">
        <ele>137</ele>
        <time>2018-12-18T09:03:50Z</time>
      </trkpt>
      <trkpt lat="48.71683" lon="1.71934">
        <ele>137</ele>
        <time>2018-12-18T09:03:54Z</time>
      </trkpt>
      <trkpt lat="48.7169" lon="1.71938">
        <ele>137</ele>
        <time>2018-12-18T09:03:58Z</time>
      </trkpt>
      <trkpt lat="48.71695" lon="1.71941">
        <ele>136</ele>
        <time>2018-12-18T09:04:00Z</time>
      </trkpt>
      <trkpt lat="48.71701" lon="1.71943">
        <ele>136</ele>
        <time>2018-12-18T09:04:04Z</time>
      </trkpt>
      <trkpt lat="48.71707" lon="1.71943">
        <ele>136</ele>
        <time>2018-12-18T09:04:08Z</time>
      </trkpt>
      <trkpt lat="48.71712" lon="1.71945">
        <ele>136</ele>
        <time>2018-12-18T09:04:12Z</time>
      </trkpt>
      <trkpt lat="48.71717" lon="1.71945">
        <ele>136</ele>
        <time>2018-12-18T09:04:14Z</time>
      </trkpt>
      <trkpt lat="48.71725" lon="1.71951">
        <ele>136</ele>
        <time>2018-12-18T09:04:20Z</time>
      </trkpt>
      <trkpt lat="48.71731" lon="1.71954">
        <ele>136</ele>
        <time>2018-12-18T09:04:22Z</time>
      </trkpt>
      <trkpt lat="48.71735" lon="1.71957">
        <ele>135</ele>
        <time>2018-12-18T09:04:24Z</time>
      </trkpt>
      <trkpt lat="48.71742" lon="1.7196">
        <ele>135</ele>
        <time>2018-12-18T09:04:26Z</time>
      </trkpt>
      <trkpt lat="48.71748" lon="1.71963">
        <ele>135</ele>
        <time>2018-12-18T09:04:28Z</time>
      </trkpt>
      <trkpt lat="48.71755" lon="1.71967">
        <ele>135</ele>
        <time>2018-12-18T09:04:32Z</time>
      </trkpt>
      <trkpt lat="48.7176" lon="1.71971">
        <ele>135</ele>
        <time>2018-12-18T09:04:36Z</time>
      </trkpt>
      <trkpt lat="48.71765" lon="1.71976">
        <ele>135</ele>
        <time>2018-12-18T09:04:40Z</time>
      </trkpt>
      <trkpt lat="48.7177" lon="1.71981">
        <ele>135</ele>
        <time>2018-12-18T09:04:44Z</time>
      </trkpt>
      <trkpt lat="48.71777" lon="1.71984">
        <ele>135</ele>
        <time>2018-12-18T09:04:50Z</time>
      </trkpt>
      <trkpt lat="48.71783" lon="1.71988">
        <ele>135</ele>
        <time>2018-12-18T09:04:54Z</time>
      </trkpt>
      <trkpt lat="48.71789" lon="1.71991">
        <ele>135</ele>
        <time>2018-12-18T09:04:58Z</time>
      </trkpt>
      <trkpt lat="48.71795" lon="1.71998">
        <ele>135</ele>
        <time>2018-12-18T09:05:04Z</time>
      </trkpt>
      <trkpt lat="48.718" lon="1.72001">
        <ele>134</ele>
        <time>2018-12-18T09:05:10Z</time>
      </trkpt>
      <trkpt lat="48.71807" lon="1.72004">
        <ele>134</ele>
        <time>2018-12-18T09:05:14Z</time>
      </trkpt>
      <trkpt lat="48.71812" lon="1.72008">
        <ele>134</ele>
        <time>2018-12-18T09:05:18Z</time>
      </trkpt>
      <trkpt lat="48.71822" lon="1.72013">
        <ele>134</ele>
        <time>2018-12-18T09:05:22Z</time>
      </trkpt>
      <trkpt lat="48.71828" lon="1.72017">
        <ele>134</ele>
        <time>2018-12-18T09:05:26Z</time>
      </trkpt>
      <trkpt lat="48.71835" lon="1.7202">
        <ele>134</ele>
        <time>2018-12-18T09:05:30Z</time>
      </trkpt>
      <trkpt lat="48.71839" lon="1.72025">
        <ele>133</ele>
        <time>2018-12-18T09:05:34Z</time>
      </trkpt>
      <trkpt lat="48.71844" lon="1.72027">
        <ele>133</ele>
        <time>2018-12-18T09:05:36Z</time>
      </trkpt>
      <trkpt lat="48.71852" lon="1.72031">
        <ele>133</ele>
        <time>2018-12-18T09:05:40Z</time>
      </trkpt>
      <trkpt lat="48.71862" lon="1.72035">
        <ele>133</ele>
        <time>2018-12-18T09:05:44Z</time>
      </trkpt>
      <trkpt lat="48.71868" lon="1.72039">
        <ele>133</ele>
        <time>2018-12-18T09:05:48Z</time>
      </trkpt>
      <trkpt lat="48.71875" lon="1.72042">
        <ele>132</ele>
        <time>2018-12-18T09:05:52Z</time>
      </trkpt>
      <trkpt lat="48.71881" lon="1.72046">
        <ele>132</ele>
        <time>2018-12-18T09:05:56Z</time>
      </trkpt>
      <trkpt lat="48.71888" lon="1.72049">
        <ele>132</ele>
        <time>2018-12-18T09:06:00Z</time>
      </trkpt>
      <trkpt lat="48.71893" lon="1.72052">
        <ele>132</ele>
        <time>2018-12-18T09:06:04Z</time>
      </trkpt>
      <trkpt lat="48.71898" lon="1.72055">
        <ele>132</ele>
        <time>2018-12-18T09:06:08Z</time>
      </trkpt>
      <trkpt lat="48.71903" lon="1.72058">
        <ele>132</ele>
        <time>2018-12-18T09:06:12Z</time>
      </trkpt>
      <trkpt lat="48.71909" lon="1.72063">
        <ele>132</ele>
        <time>2018-12-18T09:06:16Z</time>
      </trkpt>
      <trkpt lat="48.71915" lon="1.72067">
        <ele>132</ele>
        <time>2018-12-18T09:06:20Z</time>
      </trkpt>
      <trkpt lat="48.71922" lon="1.72069">
        <ele>132</ele>
        <time>2018-12-18T09:06:24Z</time>
      </trkpt>
      <trkpt lat="48.71929" lon="1.72072">
        <ele>132</ele>
        <time>2018-12-18T09:06:28Z</time>
      </trkpt>
      <trkpt lat="48.71936" lon="1.72074">
        <ele>132</ele>
        <time>2018-12-18T09:06:32Z</time>
      </trkpt>
      <trkpt lat="48.71942" lon="1.72078">
        <ele>132</ele>
        <time>2018-12-18T09:06:36Z</time>
      </trkpt>
      <trkpt lat="48.71947" lon="1.72082">
        <ele>132</ele>
        <time>2018-12-18T09:06:40Z</time>
      </trkpt>
      <trkpt lat="48.71955" lon="1.72084">
        <ele>132</ele>
        <time>2018-12-18T09:06:46Z</time>
      </trkpt>
      <trkpt lat="48.7196" lon="1.7209">
        <ele>132</ele>
        <time>2018-12-18T09:06:50Z</time>
      </trkpt>
      <trkpt lat="48.71964" lon="1.72094">
        <ele>132</ele>
        <time>2018-12-18T09:06:54Z</time>
      </trkpt>
      <trkpt lat="48.71969" lon="1.72096">
        <ele>132</ele>
        <time>2018-12-18T09:06:58Z</time>
      </trkpt>
      <trkpt lat="48.71975" lon="1.72099">
        <ele>132</ele>
        <time>2018-12-18T09:07:02Z</time>
      </trkpt>
      <trkpt lat="48.7198" lon="1.72103">
        <ele>132</ele>
        <time>2018-12-18T09:07:06Z</time>
      </trkpt>
      <trkpt lat="48.71984" lon="1.72106">
        <ele>132</ele>
        <time>2018-12-18T09:07:10Z</time>
      </trkpt>
      <trkpt lat="48.71989" lon="1.72112">
        <ele>132</ele>
        <time>2018-12-18T09:07:14Z</time>
      </trkpt>
      <trkpt lat="48.71995" lon="1.72114">
        <ele>132</ele>
        <time>2018-12-18T09:07:18Z</time>
      </trkpt>
      <trkpt lat="48.71999" lon="1.7212">
        <ele>132</ele>
        <time>2018-12-18T09:07:24Z</time>
      </trkpt>
      <trkpt lat="48.72004" lon="1.72121">
        <ele>131</ele>
        <time>2018-12-18T09:07:28Z</time>
      </trkpt>
      <trkpt lat="48.7201" lon="1.72124">
        <ele>131</ele>
        <time>2018-12-18T09:07:32Z</time>
      </trkpt>
      <trkpt lat="48.72015" lon="1.72127">
        <ele>131</ele>
        <time>2018-12-18T09:07:36Z</time>
      </trkpt>
      <trkpt lat="48.72022" lon="1.72132">
        <ele>131</ele>
        <time>2018-12-18T09:07:42Z</time>
      </trkpt>
      <trkpt lat="48.72029" lon="1.72135">
        <ele>130</ele>
        <time>2018-12-18T09:07:48Z</time>
      </trkpt>
      <trkpt lat="48.72035" lon="1.72135">
        <ele>130</ele>
        <time>2018-12-18T09:07:50Z</time>
      </trkpt>
      <trkpt lat="48.72041" lon="1.72139">
        <ele>130</ele>
        <time>2018-12-18T09:07:54Z</time>
      </trkpt>
      <trkpt lat="48.72048" lon="1.72141">
        <ele>130</ele>
        <time>2018-12-18T09:07:58Z</time>
      </trkpt>
      <trkpt lat="48.72052" lon="1.72142">
        <ele>130</ele>
        <time>2018-12-18T09:08:14Z</time>
      </trkpt>
      <trkpt lat="48.72054" lon="1.72136">
        <ele>130</ele>
        <time>2018-12-18T09:08:24Z</time>
      </trkpt>
      <trkpt lat="48.72051" lon="1.72129">
        <ele>130</ele>
        <time>2018-12-18T09:08:32Z</time>
      </trkpt>
      <trkpt lat="48.72047" lon="1.72124">
        <ele>130</ele>
        <time>2018-12-18T09:08:38Z</time>
      </trkpt>
      <trkpt lat="48.72044" lon="1.72115">
        <ele>130</ele>
        <time>2018-12-18T09:08:44Z</time>
      </trkpt>
      <trkpt lat="48.72039" lon="1.72108">
        <ele>131</ele>
        <time>2018-12-18T09:08:50Z</time>
      </trkpt>
      <trkpt lat="48.72037" lon="1.72101">
        <ele>131</ele>
        <time>2018-12-18T09:08:54Z</time>
      </trkpt>
      <trkpt lat="48.72034" lon="1.72095">
        <ele>131</ele>
        <time>2018-12-18T09:08:58Z</time>
      </trkpt>
      <trkpt lat="48.72032" lon="1.72086">
        <ele>131</ele>
        <time>2018-12-18T09:09:04Z</time>
      </trkpt>
      <trkpt lat="48.72029" lon="1.72081">
        <ele>132</ele>
        <time>2018-12-18T09:09:10Z</time>
      </trkpt>
      <trkpt lat="48.72025" lon="1.72077">
        <ele>132</ele>
        <time>2018-12-18T09:09:14Z</time>
      </trkpt>
      <trkpt lat="48.7202" lon="1.72069">
        <ele>132</ele>
        <time>2018-12-18T09:09:20Z</time>
      </trkpt>
      <trkpt lat="48.72016" lon="1.72063">
        <ele>132</ele>
        <time>2018-12-18T09:09:24Z</time>
      </trkpt>
      <trkpt lat="48.72012" lon="1.72057">
        <ele>132</ele>
        <time>2018-12-18T09:09:28Z</time>
      </trkpt>
      <trkpt lat="48.72008" lon="1.72049">
        <ele>132</ele>
        <time>2018-12-18T09:09:32Z</time>
      </trkpt>
      <trkpt lat="48.72004" lon="1.72041">
        <ele>133</ele>
        <time>2018-12-18T09:09:36Z</time>
      </trkpt>
      <trkpt lat="48.72001" lon="1.72034">
        <ele>133</ele>
        <time>2018-12-18T09:09:40Z</time>
      </trkpt>
      <trkpt lat="48.71996" lon="1.72026">
        <ele>133</ele>
        <time>2018-12-18T09:09:44Z</time>
      </trkpt>
      <trkpt lat="48.71992" lon="1.72019">
        <ele>133</ele>
        <time>2018-12-18T09:09:48Z</time>
      </trkpt>
      <trkpt lat="48.71989" lon="1.72011">
        <ele>133</ele>
        <time>2018-12-18T09:09:52Z</time>
      </trkpt>
      <trkpt lat="48.71984" lon="1.72004">
        <ele>133</ele>
        <time>2018-12-18T09:09:56Z</time>
      </trkpt>
      <trkpt lat="48.71979" lon="1.71998">
        <ele>134</ele>
        <time>2018-12-18T09:10:00Z</time>
      </trkpt>
      <trkpt lat="48.71974" lon="1.71991">
        <ele>134</ele>
        <time>2018-12-18T09:10:04Z</time>
      </trkpt>
      <trkpt lat="48.71971" lon="1.71985">
        <ele>134</ele>
        <time>2018-12-18T09:10:08Z</time>
      </trkpt>
      <trkpt lat="48.71966" lon="1.71978">
        <ele>134</ele>
        <time>2018-12-18T09:10:12Z</time>
      </trkpt>
      <trkpt lat="48.71963" lon="1.71971">
        <ele>134</ele>
        <time>2018-12-18T09:10:16Z</time>
      </trkpt>
      <trkpt lat="48.7196" lon="1.71963">
        <ele>134</ele>
        <time>2018-12-18T09:10:20Z</time>
      </trkpt>
      <trkpt lat="48.71957" lon="1.71957">
        <ele>134</ele>
        <time>2018-12-18T09:10:24Z</time>
      </trkpt>
      <trkpt lat="48.71954" lon="1.71949">
        <ele>134</ele>
        <time>2018-12-18T09:10:28Z</time>
      </trkpt>
      <trkpt lat="48.71951" lon="1.71944">
        <ele>134</ele>
        <time>2018-12-18T09:10:32Z</time>
      </trkpt>
      <trkpt lat="48.71949" lon="1.71937">
        <ele>134</ele>
        <time>2018-12-18T09:10:36Z</time>
      </trkpt>
      <trkpt lat="48.71946" lon="1.7193">
        <ele>134</ele>
        <time>2018-12-18T09:10:40Z</time>
      </trkpt>
      <trkpt lat="48.71943" lon="1.71924">
        <ele>134</ele>
        <time>2018-12-18T09:10:44Z</time>
      </trkpt>
      <trkpt lat="48.71938" lon="1.71919">
        <ele>134</ele>
        <time>2018-12-18T09:10:48Z</time>
      </trkpt>
      <trkpt lat="48.71934" lon="1.71913">
        <ele>135</ele>
        <time>2018-12-18T09:10:52Z</time>
      </trkpt>
      <trkpt lat="48.71929" lon="1.71907">
        <ele>135</ele>
        <time>2018-12-18T09:10:56Z</time>
      </trkpt>
      <trkpt lat="48.71925" lon="1.71902">
        <ele>135</ele>
        <time>2018-12-18T09:11:00Z</time>
      </trkpt>
      <trkpt lat="48.71922" lon="1.71897">
        <ele>135</ele>
        <time>2018-12-18T09:11:04Z</time>
      </trkpt>
      <trkpt lat="48.71918" lon="1.71891">
        <ele>135</ele>
        <time>2018-12-18T09:11:08Z</time>
      </trkpt>
      <trkpt lat="48.71914" lon="1.71884">
        <ele>136</ele>
        <time>2018-12-18T09:11:12Z</time>
      </trkpt>
      <trkpt lat="48.71909" lon="1.71878">
        <ele>136</ele>
        <time>2018-12-18T09:11:16Z</time>
      </trkpt>
      <trkpt lat="48.71906" lon="1.71872">
        <ele>136</ele>
        <time>2018-12-18T09:11:20Z</time>
      </trkpt>
      <trkpt lat="48.71901" lon="1.71866">
        <ele>136</ele>
        <time>2018-12-18T09:11:24Z</time>
      </trkpt>
      <trkpt lat="48.71898" lon="1.71861">
        <ele>136</ele>
        <time>2018-12-18T09:11:28Z</time>
      </trkpt>
      <trkpt lat="48.71894" lon="1.71854">
        <ele>136</ele>
        <time>2018-12-18T09:11:32Z</time>
      </trkpt>
      <trkpt lat="48.71891" lon="1.71847">
        <ele>136</ele>
        <time>2018-12-18T09:11:36Z</time>
      </trkpt>
      <trkpt lat="48.71886" lon="1.71841">
        <ele>136</ele>
        <time>2018-12-18T09:11:40Z</time>
      </trkpt>
      <trkpt lat="48.71882" lon="1.71835">
        <ele>136</ele>
        <time>2018-12-18T09:11:44Z</time>
      </trkpt>
      <trkpt lat="48.71876" lon="1.71828">
        <ele>136</ele>
        <time>2018-12-18T09:11:48Z</time>
      </trkpt>
      <trkpt lat="48.71871" lon="1.71823">
        <ele>136</ele>
        <time>2018-12-18T09:11:52Z</time>
      </trkpt>
      <trkpt lat="48.71865" lon="1.71817">
        <ele>136</ele>
        <time>2018-12-18T09:11:56Z</time>
      </trkpt>
      <trkpt lat="48.7186" lon="1.7181">
        <ele>136</ele>
        <time>2018-12-18T09:12:00Z</time>
      </trkpt>
      <trkpt lat="48.71856" lon="1.71803">
        <ele>136</ele>
        <time>2018-12-18T09:12:04Z</time>
      </trkpt>
      <trkpt lat="48.71853" lon="1.71797">
        <ele>136</ele>
        <time>2018-12-18T09:12:08Z</time>
      </trkpt>
      <trkpt lat="48.7185" lon="1.71792">
        <ele>136</ele>
        <time>2018-12-18T09:12:12Z</time>
      </trkpt>
      <trkpt lat="48.71845" lon="1.71785">
        <ele>136</ele>
        <time>2018-12-18T09:12:16Z</time>
      </trkpt>
      <trkpt lat="48.71841" lon="1.71779">
        <ele>136</ele>
        <time>2018-12-18T09:12:20Z</time>
      </trkpt>
      <trkpt lat="48.71837" lon="1.71773">
        <ele>136</ele>
        <time>2018-12-18T09:12:24Z</time>
      </trkpt>
      <trkpt lat="48.71832" lon="1.71768">
        <ele>137</ele>
        <time>2018-12-18T09:12:28Z</time>
      </trkpt>
      <trkpt lat="48.71827" lon="1.71761">
        <ele>137</ele>
        <time>2018-12-18T09:12:32Z</time>
      </trkpt>
      <trkpt lat="48.71822" lon="1.71754">
        <ele>137</ele>
        <time>2018-12-18T09:12:38Z</time>
      </trkpt>
      <trkpt lat="48.71818" lon="1.71746">
        <ele>137</ele>
        <time>2018-12-18T09:12:44Z</time>
      </trkpt>
      <trkpt lat="48.71814" lon="1.71741">
        <ele>137</ele>
        <time>2018-12-18T09:12:48Z</time>
      </trkpt>
      <trkpt lat="48.71811" lon="1.71736">
        <ele>137</ele>
        <time>2018-12-18T09:12:52Z</time>
      </trkpt>
      <trkpt lat="48.71807" lon="1.71729">
        <ele>137</ele>
        <time>2018-12-18T09:12:56Z</time>
      </trkpt>
      <trkpt lat="48.71801" lon="1.71724">
        <ele>137</ele>
        <time>2018-12-18T09:13:00Z</time>
      </trkpt>
      <trkpt lat="48.71797" lon="1.71719">
        <ele>137</ele>
        <time>2018-12-18T09:13:04Z</time>
      </trkpt>
      <trkpt lat="48.71794" lon="1.71714">
        <ele>137</ele>
        <time>2018-12-18T09:13:08Z</time>
      </trkpt>
      <trkpt lat="48.7179" lon="1.71708">
        <ele>137</ele>
        <time>2018-12-18T09:13:12Z</time>
      </trkpt>
      <trkpt lat="48.71786" lon="1.71702">
        <ele>137</ele>
        <time>2018-12-18T09:13:18Z</time>
      </trkpt>
      <trkpt lat="48.7178" lon="1.71695">
        <ele>137</ele>
        <time>2018-12-18T09:13:22Z</time>
      </trkpt>
      <trkpt lat="48.71775" lon="1.71688">
        <ele>137</ele>
        <time>2018-12-18T09:13:26Z</time>
      </trkpt>
      <trkpt lat="48.7177" lon="1.71681">
        <ele>137</ele>
        <time>2018-12-18T09:13:32Z</time>
      </trkpt>
      <trkpt lat="48.71767" lon="1.71675">
        <ele>138</ele>
        <time>2018-12-18T09:13:36Z</time>
      </trkpt>
      <trkpt lat="48.71763" lon="1.71668">
        <ele>138</ele>
        <time>2018-12-18T09:13:40Z</time>
      </trkpt>
      <trkpt lat="48.71758" lon="1.71662">
        <ele>138</ele>
        <time>2018-12-18T09:13:44Z</time>
      </trkpt>
      <trkpt lat="48.71753" lon="1.71658">
        <ele>138</ele>
        <time>2018-12-18T09:13:48Z</time>
      </trkpt>
      <trkpt lat="48.7175" lon="1.71651">
        <ele>138</ele>
        <time>2018-12-18T09:13:52Z</time>
      </trkpt>
      <trkpt lat="48.71745" lon="1.71643">
        <ele>138</ele>
        <time>2018-12-18T09:13:56Z</time>
      </trkpt>
      <trkpt lat="48.71741" lon="1.71637">
        <ele>138</ele>
        <time>2018-12-18T09:14:00Z</time>
      </trkpt>
      <trkpt lat="48.71737" lon="1.71633">
        <ele>138</ele>
        <time>2018-12-18T09:14:04Z</time>
      </trkpt>
      <trkpt lat="48.71733" lon="1.71627">
        <ele>138</ele>
        <time>2018-12-18T09:14:08Z</time>
      </trkpt>
      <trkpt lat="48.71729" lon="1.7162">
        <ele>138</ele>
        <time>2018-12-18T09:14:12Z</time>
      </trkpt>
      <trkpt lat="48.71725" lon="1.71613">
        <ele>138</ele>
        <time>2018-12-18T09:14:18Z</time>
      </trkpt>
      <trkpt lat="48.7172" lon="1.71605">
        <ele>138</ele>
        <time>2018-12-18T09:14:22Z</time>
      </trkpt>
      <trkpt lat="48.71715" lon="1.716">
        <ele>138</ele>
        <time>2018-12-18T09:14:26Z</time>
      </trkpt>
      <trkpt lat="48.71711" lon="1.71594">
        <ele>138</ele>
        <time>2018-12-18T09:14:30Z</time>
      </trkpt>
      <trkpt lat="48.71705" lon="1.71585">
        <ele>138</ele>
        <time>2018-12-18T09:14:34Z</time>
      </trkpt>
      <trkpt lat="48.717" lon="1.71579">
        <ele>138</ele>
        <time>2018-12-18T09:14:38Z</time>
      </trkpt>
      <trkpt lat="48.71696" lon="1.71574">
        <ele>138</ele>
        <time>2018-12-18T09:14:42Z</time>
      </trkpt>
      <trkpt lat="48.71693" lon="1.71568">
        <ele>138</ele>
        <time>2018-12-18T09:14:46Z</time>
      </trkpt>
      <trkpt lat="48.71689" lon="1.71562">
        <ele>138</ele>
        <time>2018-12-18T09:14:52Z</time>
      </trkpt>
      <trkpt lat="48.71684" lon="1.71558">
        <ele>138</ele>
        <time>2018-12-18T09:14:56Z</time>
      </trkpt>
      <trkpt lat="48.71678" lon="1.7155">
        <ele>138</ele>
        <time>2018-12-18T09:15:00Z</time>
      </trkpt>
      <trkpt lat="48.71673" lon="1.71542">
        <ele>138</ele>
        <time>2018-12-18T09:15:04Z</time>
      </trkpt>
      <trkpt lat="48.71669" lon="1.71536">
        <ele>138</ele>
        <time>2018-12-18T09:15:08Z</time>
      </trkpt>
      <trkpt lat="48.71664" lon="1.71529">
        <ele>137</ele>
        <time>2018-12-18T09:15:12Z</time>
      </trkpt>
      <trkpt lat="48.71659" lon="1.71524">
        <ele>137</ele>
        <time>2018-12-18T09:15:16Z</time>
      </trkpt>
      <trkpt lat="48.71655" lon="1.71518">
        <ele>137</ele>
        <time>2018-12-18T09:15:20Z</time>
      </trkpt>
      <trkpt lat="48.71651" lon="1.71511">
        <ele>137</ele>
        <time>2018-12-18T09:15:24Z</time>
      </trkpt>
      <trkpt lat="48.71646" lon="1.71505">
        <ele>137</ele>
        <time>2018-12-18T09:15:28Z</time>
      </trkpt>
      <trkpt lat="48.71643" lon="1.71499">
        <ele>137</ele>
        <time>2018-12-18T09:15:32Z</time>
      </trkpt>
      <trkpt lat="48.71639" lon="1.71493">
        <ele>136</ele>
        <time>2018-12-18T09:15:38Z</time>
      </trkpt>
      <trkpt lat="48.71635" lon="1.71486">
        <ele>136</ele>
        <time>2018-12-18T09:15:42Z</time>
      </trkpt>
      <trkpt lat="48.7163" lon="1.71479">
        <ele>136</ele>
        <time>2018-12-18T09:15:46Z</time>
      </trkpt>
      <trkpt lat="48.71626" lon="1.71473">
        <ele>136</ele>
        <time>2018-12-18T09:15:50Z</time>
      </trkpt>
      <trkpt lat="48.71622" lon="1.71468">
        <ele>136</ele>
        <time>2018-12-18T09:15:54Z</time>
      </trkpt>
      <trkpt lat="48.71618" lon="1.71464">
        <ele>136</ele>
        <time>2018-12-18T09:15:58Z</time>
      </trkpt>
      <trkpt lat="48.71615" lon="1.71458">
        <ele>136</ele>
        <time>2018-12-18T09:16:02Z</time>
      </trkpt>
      <trkpt lat="48.71612" lon="1.71451">
        <ele>136</ele>
        <time>2018-12-18T09:16:06Z</time>
      </trkpt>
      <trkpt lat="48.71608" lon="1.71445">
        <ele>136</ele>
        <time>2018-12-18T09:16:10Z</time>
      </trkpt>
      <trkpt lat="48.71604" lon="1.71439">
        <ele>136</ele>
        <time>2018-12-18T09:16:14Z</time>
      </trkpt>
      <trkpt lat="48.71599" lon="1.71433">
        <ele>136</ele>
        <time>2018-12-18T09:16:18Z</time>
      </trkpt>
      <trkpt lat="48.71595" lon="1.71426">
        <ele>136</ele>
        <time>2018-12-18T09:16:22Z</time>
      </trkpt>
      <trkpt lat="48.7159" lon="1.71421">
        <ele>136</ele>
        <time>2018-12-18T09:16:26Z</time>
      </trkpt>
      <trkpt lat="48.71586" lon="1.71416">
        <ele>136</ele>
        <time>2018-12-18T09:16:30Z</time>
      </trkpt>
      <trkpt lat="48.71582" lon="1.71409">
        <ele>136</ele>
        <time>2018-12-18T09:16:34Z</time>
      </trkpt>
      <trkpt lat="48.71579" lon="1.71402">
        <ele>135</ele>
        <time>2018-12-18T09:16:38Z</time>
      </trkpt>
      <trkpt lat="48.71574" lon="1.71397">
        <ele>135</ele>
        <time>2018-12-18T09:16:44Z</time>
      </trkpt>
      <trkpt lat="48.71569" lon="1.71395">
        <ele>135</ele>
        <time>2018-12-18T09:16:52Z</time>
      </trkpt>
      <trkpt lat="48.71565" lon="1.71391">
        <ele>135</ele>
        <time>2018-12-18T09:17:04Z</time>
      </trkpt>
      <trkpt lat="48.71561" lon="1.71386">
        <ele>135</ele>
        <time>2018-12-18T09:17:14Z</time>
      </trkpt>
      <trkpt lat="48.71561" lon="1.71379">
        <ele>134</ele>
        <time>2018-12-18T09:17:32Z</time>
      </trkpt>
      <trkpt lat="48.71555" lon="1.71383">
        <ele>134</ele>
        <time>2018-12-18T09:17:48Z</time>
      </trkpt>
      <trkpt lat="48.71549" lon="1.71388">
        <ele>135</ele>
        <time>2018-12-18T09:17:56Z</time>
      </trkpt>
      <trkpt lat="48.71542" lon="1.71389">
        <ele>135</ele>
        <time>2018-12-18T09:18:02Z</time>
      </trkpt>
      <trkpt lat="48.71538" lon="1.71392">
        <ele>135</ele>
        <time>2018-12-18T09:18:08Z</time>
      </trkpt>
      <trkpt lat="48.71531" lon="1.71396">
        <ele>135</ele>
        <time>2018-12-18T09:18:14Z</time>
      </trkpt>
      <trkpt lat="48.71526" lon="1.71399">
        <ele>135</ele>
        <time>2018-12-18T09:18:18Z</time>
      </trkpt>
      <trkpt lat="48.71521" lon="1.714">
        <ele>135</ele>
        <time>2018-12-18T09:18:30Z</time>
      </trkpt>
      <trkpt lat="48.71517" lon="1.71399">
        <ele>135</ele>
        <time>2018-12-18T09:18:56Z</time>
      </trkpt>
      <trkpt lat="48.71512" lon="1.71401">
        <ele>135</ele>
        <time>2018-12-18T09:19:20Z</time>
      </trkpt>
      <trkpt lat="48.71508" lon="1.71403">
        <ele>135</ele>
        <time>2018-12-18T09:19:24Z</time>
      </trkpt>
      <trkpt lat="48.71503" lon="1.71406">
        <ele>135</ele>
        <time>2018-12-18T09:19:28Z</time>
      </trkpt>
      <trkpt lat="48.71498" lon="1.71407">
        <ele>136</ele>
        <time>2018-12-18T09:19:32Z</time>
      </trkpt>
      <trkpt lat="48.71493" lon="1.7141">
        <ele>136</ele>
        <time>2018-12-18T09:19:38Z</time>
      </trkpt>
      <trkpt lat="48.71487" lon="1.71412">
        <ele>136</ele>
        <time>2018-12-18T09:19:42Z</time>
      </trkpt>
      <trkpt lat="48.71481" lon="1.71413">
        <ele>136</ele>
        <time>2018-12-18T09:19:46Z</time>
      </trkpt>
      <trkpt lat="48.71477" lon="1.71416">
        <ele>136</ele>
        <time>2018-12-18T09:19:50Z</time>
      </trkpt>
      <trkpt lat="48.7147" lon="1.71418">
        <ele>137</ele>
        <time>2018-12-18T09:19:56Z</time>
      </trkpt>
      <trkpt lat="48.71464" lon="1.71422">
        <ele>138</ele>
        <time>2018-12-18T09:20:00Z</time>
      </trkpt>
      <trkpt lat="48.71459" lon="1.71425">
        <ele>138</ele>
        <time>2018-12-18T09:20:04Z</time>
      </trkpt>
      <trkpt lat="48.71453" lon="1.71427">
        <ele>138</ele>
        <time>2018-12-18T09:20:08Z</time>
      </trkpt>
      <trkpt lat="48.71446" lon="1.7143">
        <ele>138</ele>
        <time>2018-12-18T09:20:12Z</time>
      </trkpt>
      <trkpt lat="48.71441" lon="1.71432">
        <ele>138</ele>
        <time>2018-12-18T09:20:16Z</time>
      </trkpt>
      <trkpt lat="48.71436" lon="1.71433">
        <ele>138</ele>
        <time>2018-12-18T09:20:20Z</time>
      </trkpt>
      <trkpt lat="48.7143" lon="1.71435">
        <ele>138</ele>
        <time>2018-12-18T09:20:26Z</time>
      </trkpt>
      <trkpt lat="48.71424" lon="1.71437">
        <ele>138</ele>
        <time>2018-12-18T09:20:30Z</time>
      </trkpt>
      <trkpt lat="48.71419" lon="1.71439">
        <ele>138</ele>
        <time>2018-12-18T09:20:34Z</time>
      </trkpt>
      <trkpt lat="48.71414" lon="1.71442">
        <ele>139</ele>
        <time>2018-12-18T09:20:38Z</time>
      </trkpt>
      <trkpt lat="48.71407" lon="1.71445">
        <ele>140</ele>
        <time>2018-12-18T09:20:42Z</time>
      </trkpt>
      <trkpt lat="48.71402" lon="1.71447">
        <ele>140</ele>
        <time>2018-12-18T09:20:50Z</time>
      </trkpt>
      <trkpt lat="48.71397" lon="1.71449">
        <ele>140</ele>
        <time>2018-12-18T09:20:54Z</time>
      </trkpt>
      <trkpt lat="48.7139" lon="1.71453">
        <ele>140</ele>
        <time>2018-12-18T09:20:58Z</time>
      </trkpt>
      <trkpt lat="48.71385" lon="1.71455">
        <ele>140</ele>
        <time>2018-12-18T09:21:02Z</time>
      </trkpt>
      <trkpt lat="48.71378" lon="1.71458">
        <ele>140</ele>
        <time>2018-12-18T09:21:08Z</time>
      </trkpt>
      <trkpt lat="48.71371" lon="1.71461">
        <ele>140</ele>
        <time>2018-12-18T09:21:12Z</time>
      </trkpt>
      <trkpt lat="48.71365" lon="1.71462">
        <ele>140</ele>
        <time>2018-12-18T09:21:16Z</time>
      </trkpt>
      <trkpt lat="48.71358" lon="1.71464">
        <ele>141</ele>
        <time>2018-12-18T09:21:22Z</time>
      </trkpt>
      <trkpt lat="48.71354" lon="1.71468">
        <ele>141</ele>
        <time>2018-12-18T09:21:26Z</time>
      </trkpt>
      <trkpt lat="48.71348" lon="1.7147">
        <ele>141</ele>
        <time>2018-12-18T09:21:30Z</time>
      </trkpt>
      <trkpt lat="48.71342" lon="1.71471">
        <ele>141</ele>
        <time>2018-12-18T09:21:34Z</time>
      </trkpt>
      <trkpt lat="48.71336" lon="1.71472">
        <ele>141</ele>
        <time>2018-12-18T09:21:38Z</time>
      </trkpt>
      <trkpt lat="48.71331" lon="1.71472">
        <ele>143</ele>
        <time>2018-12-18T09:21:42Z</time>
      </trkpt>
      <trkpt lat="48.71324" lon="1.71472">
        <ele>143</ele>
        <time>2018-12-18T09:21:46Z</time>
      </trkpt>
      <trkpt lat="48.71319" lon="1.71473">
        <ele>143</ele>
        <time>2018-12-18T09:21:50Z</time>
      </trkpt>
      <trkpt lat="48.71314" lon="1.71469">
        <ele>143</ele>
        <time>2018-12-18T09:21:56Z</time>
      </trkpt>
      <trkpt lat="48.71312" lon="1.71463">
        <ele>143</ele>
        <time>2018-12-18T09:22:00Z</time>
      </trkpt>
      <trkpt lat="48.71308" lon="1.71457">
        <ele>143</ele>
        <time>2018-12-18T09:22:04Z</time>
      </trkpt>
      <trkpt lat="48.71305" lon="1.71449">
        <ele>143</ele>
        <time>2018-12-18T09:22:08Z</time>
      </trkpt>
      <trkpt lat="48.71303" lon="1.71439">
        <ele>143</ele>
        <time>2018-12-18T09:22:12Z</time>
      </trkpt>
      <trkpt lat="48.71303" lon="1.71426">
        <ele>143</ele>
        <time>2018-12-18T09:22:18Z</time>
      </trkpt>
      <trkpt lat="48.713" lon="1.71417">
        <ele>143</ele>
        <time>2018-12-18T09:22:22Z</time>
      </trkpt>
      <trkpt lat="48.71299" lon="1.71408">
        <ele>143</ele>
        <time>2018-12-18T09:22:26Z</time>
      </trkpt>
      <trkpt lat="48.71298" lon="1.71397">
        <ele>143</ele>
        <time>2018-12-18T09:22:32Z</time>
      </trkpt>
      <trkpt lat="48.71297" lon="1.71388">
        <ele>143</ele>
        <time>2018-12-18T09:22:36Z</time>
      </trkpt>
      <trkpt lat="48.71296" lon="1.71379">
        <ele>143</ele>
        <time>2018-12-18T09:22:40Z</time>
      </trkpt>
      <trkpt lat="48.71296" lon="1.71371">
        <ele>143</ele>
        <time>2018-12-18T09:22:44Z</time>
      </trkpt>
      <trkpt lat="48.71294" lon="1.71363">
        <ele>143</ele>
        <time>2018-12-18T09:22:48Z</time>
      </trkpt>
      <trkpt lat="48.71292" lon="1.71354">
        <ele>143</ele>
        <time>2018-12-18T09:22:52Z</time>
      </trkpt>
      <trkpt lat="48.7129" lon="1.71346">
        <ele>143</ele>
        <time>2018-12-18T09:22:56Z</time>
      </trkpt>
      <trkpt lat="48.7129" lon="1.71336">
        <ele>143</ele>
        <time>2018-12-18T09:23:00Z</time>
      </trkpt>
      <trkpt lat="48.7129" lon="1.71325">
        <ele>142</ele>
        <time>2018-12-18T09:23:04Z</time>
      </trkpt>
      <trkpt lat="48.71287" lon="1.71315">
        <ele>142</ele>
        <time>2018-12-18T09:23:08Z</time>
      </trkpt>
      <trkpt lat="48.71284" lon="1.71305">
        <ele>142</ele>
        <time>2018-12-18T09:23:12Z</time>
      </trkpt>
      <trkpt lat="48.71281" lon="1.71298">
        <ele>142</ele>
        <time>2018-12-18T09:23:16Z</time>
      </trkpt>
      <trkpt lat="48.71279" lon="1.71291">
        <ele>142</ele>
        <time>2018-12-18T09:23:20Z</time>
      </trkpt>
      <trkpt lat="48.7128" lon="1.71277">
        <ele>142</ele>
        <time>2018-12-18T09:23:24Z</time>
      </trkpt>
      <trkpt lat="48.71279" lon="1.7127">
        <ele>142</ele>
        <time>2018-12-18T09:23:26Z</time>
      </trkpt>
      <trkpt lat="48.71276" lon="1.71261">
        <ele>142</ele>
        <time>2018-12-18T09:23:30Z</time>
      </trkpt>
      <trkpt lat="48.71277" lon="1.71254">
        <ele>142</ele>
        <time>2018-12-18T09:23:34Z</time>
      </trkpt>
      <trkpt lat="48.71276" lon="1.71244">
        <ele>141</ele>
        <time>2018-12-18T09:23:38Z</time>
      </trkpt>
      <trkpt lat="48.71277" lon="1.71235">
        <ele>141</ele>
        <time>2018-12-18T09:23:42Z</time>
      </trkpt>
      <trkpt lat="48.71277" lon="1.71226">
        <ele>141</ele>
        <time>2018-12-18T09:23:46Z</time>
      </trkpt>
      <trkpt lat="48.71278" lon="1.71216">
        <ele>141</ele>
        <time>2018-12-18T09:23:50Z</time>
      </trkpt>
      <trkpt lat="48.71279" lon="1.71205">
        <ele>141</ele>
        <time>2018-12-18T09:23:54Z</time>
      </trkpt>
      <trkpt lat="48.71278" lon="1.71196">
        <ele>141</ele>
        <time>2018-12-18T09:23:58Z</time>
      </trkpt>
      <trkpt lat="48.71277" lon="1.71187">
        <ele>141</ele>
        <time>2018-12-18T09:24:02Z</time>
      </trkpt>
      <trkpt lat="48.71275" lon="1.71177">
        <ele>141</ele>
        <time>2018-12-18T09:24:08Z</time>
      </trkpt>
      <trkpt lat="48.71273" lon="1.71167">
        <ele>141</ele>
        <time>2018-12-18T09:24:12Z</time>
      </trkpt>
      <trkpt lat="48.71271" lon="1.71157">
        <ele>141</ele>
        <time>2018-12-18T09:24:18Z</time>
      </trkpt>
      <trkpt lat="48.71269" lon="1.71147">
        <ele>141</ele>
        <time>2018-12-18T09:24:24Z</time>
      </trkpt>
      <trkpt lat="48.71265" lon="1.71141">
        <ele>141</ele>
        <time>2018-12-18T09:24:28Z</time>
      </trkpt>
      <trkpt lat="48.71263" lon="1.71134">
        <ele>141</ele>
        <time>2018-12-18T09:24:32Z</time>
      </trkpt>
      <trkpt lat="48.71259" lon="1.71128">
        <ele>141</ele>
        <time>2018-12-18T09:24:36Z</time>
      </trkpt>
      <trkpt lat="48.71256" lon="1.71121">
        <ele>141</ele>
        <time>2018-12-18T09:24:40Z</time>
      </trkpt>
      <trkpt lat="48.71252" lon="1.71115">
        <ele>141</ele>
        <time>2018-12-18T09:24:44Z</time>
      </trkpt>
      <trkpt lat="48.71247" lon="1.71109">
        <ele>144</ele>
        <time>2018-12-18T09:24:50Z</time>
      </trkpt>
      <trkpt lat="48.71242" lon="1.71102">
        <ele>144</ele>
        <time>2018-12-18T09:24:54Z</time>
      </trkpt>
      <trkpt lat="48.71237" lon="1.71094">
        <ele>143</ele>
        <time>2018-12-18T09:25:00Z</time>
      </trkpt>
      <trkpt lat="48.71233" lon="1.71084">
        <ele>143</ele>
        <time>2018-12-18T09:25:04Z</time>
      </trkpt>
      <trkpt lat="48.71229" lon="1.71076">
        <ele>144</ele>
        <time>2018-12-18T09:25:08Z</time>
      </trkpt>
      <trkpt lat="48.71226" lon="1.71064">
        <ele>145</ele>
        <time>2018-12-18T09:25:12Z</time>
      </trkpt>
      <trkpt lat="48.71223" lon="1.71054">
        <ele>145</ele>
        <time>2018-12-18T09:25:16Z</time>
      </trkpt>
      <trkpt lat="48.71219" lon="1.71045">
        <ele>145</ele>
        <time>2018-12-18T09:25:20Z</time>
      </trkpt>
      <trkpt lat="48.7122" lon="1.71034">
        <ele>145</ele>
        <time>2018-12-18T09:25:24Z</time>
      </trkpt>
      <trkpt lat="48.71218" lon="1.71025">
        <ele>145</ele>
        <time>2018-12-18T09:25:28Z</time>
      </trkpt>
      <trkpt lat="48.71217" lon="1.71015">
        <ele>145</ele>
        <time>2018-12-18T09:25:32Z</time>
      </trkpt>
      <trkpt lat="48.71216" lon="1.71003">
        <ele>145</ele>
        <time>2018-12-18T09:25:36Z</time>
      </trkpt>
      <trkpt lat="48.71215" lon="1.70989">
        <ele>146</ele>
        <time>2018-12-18T09:25:40Z</time>
      </trkpt>
      <trkpt lat="48.71214" lon="1.70977">
        <ele>146</ele>
        <time>2018-12-18T09:25:44Z</time>
      </trkpt>
      <trkpt lat="48.71213" lon="1.70965">
        <ele>146</ele>
        <time>2018-12-18T09:25:48Z</time>
      </trkpt>
      <trkpt lat="48.71212" lon="1.70956">
        <ele>146</ele>
        <time>2018-12-18T09:25:54Z</time>
      </trkpt>
      <trkpt lat="48.71212" lon="1.70949">
        <ele>146</ele>
        <time>2018-12-18T09:25:56Z</time>
      </trkpt>
      <trkpt lat="48.71212" lon="1.70942">
        <ele>146</ele>
        <time>2018-12-18T09:25:58Z</time>
      </trkpt>
      <trkpt lat="48.71215" lon="1.70932">
        <ele>146</ele>
        <time>2018-12-18T09:26:02Z</time>
      </trkpt>
      <trkpt lat="48.71214" lon="1.70924">
        <ele>146</ele>
        <time>2018-12-18T09:26:06Z</time>
      </trkpt>
      <trkpt lat="48.71214" lon="1.70917">
        <ele>148</ele>
        <time>2018-12-18T09:26:10Z</time>
      </trkpt>
      <trkpt lat="48.71214" lon="1.70909">
        <ele>148</ele>
        <time>2018-12-18T09:26:14Z</time>
      </trkpt>
      <trkpt lat="48.71213" lon="1.70902">
        <ele>148</ele>
        <time>2018-12-18T09:26:22Z</time>
      </trkpt>
      <trkpt lat="48.71212" lon="1.70895">
        <ele>148</ele>
        <time>2018-12-18T09:26:36Z</time>
      </trkpt>
      <trkpt lat="48.71211" lon="1.70888">
        <ele>149</ele>
        <time>2018-12-18T09:26:40Z</time>
      </trkpt>
      <trkpt lat="48.71209" lon="1.70882">
        <ele>149</ele>
        <time>2018-12-18T09:26:52Z</time>
      </trkpt>
      <trkpt lat="48.71207" lon="1.70875">
        <ele>149</ele>
        <time>2018-12-18T09:27:50Z</time>
      </trkpt>
      <trkpt lat="48.71203" lon="1.70869">
        <ele>149</ele>
        <time>2018-12-18T09:27:56Z</time>
      </trkpt>
      <trkpt lat="48.712" lon="1.70861">
        <ele>150</ele>
        <time>2018-12-18T09:28:02Z</time>
      </trkpt>
      <trkpt lat="48.71194" lon="1.70858">
        <ele>150</ele>
        <time>2018-12-18T09:28:06Z</time>
      </trkpt>
      <trkpt lat="48.71189" lon="1.70851">
        <ele>151</ele>
        <time>2018-12-18T09:28:12Z</time>
      </trkpt>
      <trkpt lat="48.71184" lon="1.70844">
        <ele>152</ele>
        <time>2018-12-18T09:28:18Z</time>
      </trkpt>
      <trkpt lat="48.71181" lon="1.70838">
        <ele>152</ele>
        <time>2018-12-18T09:28:24Z</time>
      </trkpt>
      <trkpt lat="48.71176" lon="1.70832">
        <ele>154</ele>
        <time>2018-12-18T09:28:30Z</time>
      </trkpt>
      <trkpt lat="48.71172" lon="1.70827">
        <ele>154</ele>
        <time>2018-12-18T09:28:34Z</time>
      </trkpt>
      <trkpt lat="48.71168" lon="1.70821">
        <ele>153</ele>
        <time>2018-12-18T09:28:38Z</time>
      </trkpt>
      <trkpt lat="48.71163" lon="1.70813">
        <ele>155</ele>
        <time>2018-12-18T09:28:42Z</time>
      </trkpt>
      <trkpt lat="48.71159" lon="1.70805">
        <ele>155</ele>
        <time>2018-12-18T09:28:46Z</time>
      </trkpt>
      <trkpt lat="48.71155" lon="1.70801">
        <ele>155</ele>
        <time>2018-12-18T09:28:50Z</time>
      </trkpt>
      <trkpt lat="48.71151" lon="1.70798">
        <ele>155</ele>
        <time>2018-12-18T09:28:54Z</time>
      </trkpt>
      <trkpt lat="48.71148" lon="1.70792">
        <ele>155</ele>
        <time>2018-12-18T09:28:58Z</time>
      </trkpt>
      <trkpt lat="48.71143" lon="1.70783">
        <ele>155</ele>
        <time>2018-12-18T09:29:02Z</time>
      </trkpt>
      <trkpt lat="48.7114" lon="1.70776">
        <ele>155</ele>
        <time>2018-12-18T09:29:06Z</time>
      </trkpt>
      <trkpt lat="48.71136" lon="1.70771">
        <ele>155</ele>
        <time>2018-12-18T09:29:10Z</time>
      </trkpt>
      <trkpt lat="48.71132" lon="1.70766">
        <ele>155</ele>
        <time>2018-12-18T09:29:14Z</time>
      </trkpt>
      <trkpt lat="48.71128" lon="1.70759">
        <ele>156</ele>
        <time>2018-12-18T09:29:18Z</time>
      </trkpt>
      <trkpt lat="48.71123" lon="1.70752">
        <ele>156</ele>
        <time>2018-12-18T09:29:22Z</time>
      </trkpt>
      <trkpt lat="48.71119" lon="1.70744">
        <ele>155</ele>
        <time>2018-12-18T09:29:26Z</time>
      </trkpt>
      <trkpt lat="48.71114" lon="1.70737">
        <ele>156</ele>
        <time>2018-12-18T09:29:30Z</time>
      </trkpt>
      <trkpt lat="48.71109" lon="1.70729">
        <ele>156</ele>
        <time>2018-12-18T09:29:34Z</time>
      </trkpt>
      <trkpt lat="48.71104" lon="1.70721">
        <ele>156</ele>
        <time>2018-12-18T09:29:38Z</time>
      </trkpt>
      <trkpt lat="48.711" lon="1.70715">
        <ele>156</ele>
        <time>2018-12-18T09:29:42Z</time>
      </trkpt>
      <trkpt lat="48.71096" lon="1.70709">
        <ele>156</ele>
        <time>2018-12-18T09:29:46Z</time>
      </trkpt>
      <trkpt lat="48.7109" lon="1.70701">
        <ele>156</ele>
        <time>2018-12-18T09:29:52Z</time>
      </trkpt>
      <trkpt lat="48.71085" lon="1.70694">
        <ele>156</ele>
        <time>2018-12-18T09:29:56Z</time>
      </trkpt>
      <trkpt lat="48.71079" lon="1.70687">
        <ele>159</ele>
        <time>2018-12-18T09:30:00Z</time>
      </trkpt>
      <trkpt lat="48.71074" lon="1.70679">
        <ele>158</ele>
        <time>2018-12-18T09:30:04Z</time>
      </trkpt>
      <trkpt lat="48.7107" lon="1.70672">
        <ele>158</ele>
        <time>2018-12-18T09:30:08Z</time>
      </trkpt>
      <trkpt lat="48.71065" lon="1.70665">
        <ele>158</ele>
        <time>2018-12-18T09:30:12Z</time>
      </trkpt>
      <trkpt lat="48.71061" lon="1.70659">
        <ele>158</ele>
        <time>2018-12-18T09:30:16Z</time>
      </trkpt>
      <trkpt lat="48.71057" lon="1.70656">
        <ele>158</ele>
        <time>2018-12-18T09:30:20Z</time>
      </trkpt>
      <trkpt lat="48.71052" lon="1.70651">
        <ele>159</ele>
        <time>2018-12-18T09:30:26Z</time>
      </trkpt>
      <trkpt lat="48.71048" lon="1.70645">
        <ele>159</ele>
        <time>2018-12-18T09:30:32Z</time>
      </trkpt>
      <trkpt lat="48.71044" lon="1.70638">
        <ele>159</ele>
        <time>2018-12-18T09:30:38Z</time>
      </trkpt>
      <trkpt lat="48.71042" lon="1.70631">
        <ele>159</ele>
        <time>2018-12-18T09:30:50Z</time>
      </trkpt>
      <trkpt lat="48.71037" lon="1.70626">
        <ele>159</ele>
        <time>2018-12-18T09:30:58Z</time>
      </trkpt>
      <trkpt lat="48.71032" lon="1.70622">
        <ele>159</ele>
        <time>2018-12-18T09:31:02Z</time>
      </trkpt>
      <trkpt lat="48.71028" lon="1.70617">
        <ele>159</ele>
        <time>2018-12-18T09:31:06Z</time>
      </trkpt>
      <trkpt lat="48.71023" lon="1.70611">
        <ele>159</ele>
        <time>2018-12-18T09:31:10Z</time>
      </trkpt>
      <trkpt lat="48.71017" lon="1.70606">
        <ele>159</ele>
        <time>2018-12-18T09:31:16Z</time>
      </trkpt>
      <trkpt lat="48.71014" lon="1.706">
        <ele>160</ele>
        <time>2018-12-18T09:31:20Z</time>
      </trkpt>
      <trkpt lat="48.71009" lon="1.70597">
        <ele>160</ele>
        <time>2018-12-18T09:31:24Z</time>
      </trkpt>
      <trkpt lat="48.71005" lon="1.70589">
        <ele>160</ele>
        <time>2018-12-18T09:31:28Z</time>
      </trkpt>
      <trkpt lat="48.71002" lon="1.70582">
        <ele>160</ele>
        <time>2018-12-18T09:31:30Z</time>
      </trkpt>
      <trkpt lat="48.70997" lon="1.70574">
        <ele>159</ele>
        <time>2018-12-18T09:31:34Z</time>
      </trkpt>
      <trkpt lat="48.70992" lon="1.70569">
        <ele>159</ele>
        <time>2018-12-18T09:31:38Z</time>
      </trkpt>
      <trkpt lat="48.70986" lon="1.70566">
        <ele>159</ele>
        <time>2018-12-18T09:31:44Z</time>
      </trkpt>
      <trkpt lat="48.70982" lon="1.70561">
        <ele>159</ele>
        <time>2018-12-18T09:31:48Z</time>
      </trkpt>
      <trkpt lat="48.70978" lon="1.70556">
        <ele>158</ele>
        <time>2018-12-18T09:31:54Z</time>
      </trkpt>
      <trkpt lat="48.70974" lon="1.70551">
        <ele>158</ele>
        <time>2018-12-18T09:31:58Z</time>
      </trkpt>
      <trkpt lat="48.7097" lon="1.70551">
        <ele>158</ele>
        <time>2018-12-18T09:32:02Z</time>
      </trkpt>
      <trkpt lat="48.70965" lon="1.70545">
        <ele>158</ele>
        <time>2018-12-18T09:32:06Z</time>
      </trkpt>
      <trkpt lat="48.70962" lon="1.70535">
        <ele>158</ele>
        <time>2018-12-18T09:32:10Z</time>
      </trkpt>
      <trkpt lat="48.70957" lon="1.70527">
        <ele>158</ele>
        <time>2018-12-18T09:32:14Z</time>
      </trkpt>
      <trkpt lat="48.70952" lon="1.70519">
        <ele>158</ele>
        <time>2018-12-18T09:32:20Z</time>
      </trkpt>
      <trkpt lat="48.7095" lon="1.70512">
        <ele>157</ele>
        <time>2018-12-18T09:32:24Z</time>
      </trkpt>
      <trkpt lat="48.70949" lon="1.70505">
        <ele>157</ele>
        <time>2018-12-18T09:32:26Z</time>
      </trkpt>
      <trkpt lat="48.70948" lon="1.70493">
        <ele>157</ele>
        <time>2018-12-18T09:32:30Z</time>
      </trkpt>
      <trkpt lat="48.70945" lon="1.70487">
        <ele>158</ele>
        <time>2018-12-18T09:32:36Z</time>
      </trkpt>
      <trkpt lat="48.70942" lon="1.70477">
        <ele>158</ele>
        <time>2018-12-18T09:32:40Z</time>
      </trkpt>
      <trkpt lat="48.7094" lon="1.70467">
        <ele>158</ele>
        <time>2018-12-18T09:32:44Z</time>
      </trkpt>
      <trkpt lat="48.70938" lon="1.70457">
        <ele>159</ele>
        <time>2018-12-18T09:32:48Z</time>
      </trkpt>
      <trkpt lat="48.70936" lon="1.7045">
        <ele>159</ele>
        <time>2018-12-18T09:32:52Z</time>
      </trkpt>
      <trkpt lat="48.70933" lon="1.70443">
        <ele>160</ele>
        <time>2018-12-18T09:32:56Z</time>
      </trkpt>
      <trkpt lat="48.70931" lon="1.70437">
        <ele>160</ele>
        <time>2018-12-18T09:33:00Z</time>
      </trkpt>
      <trkpt lat="48.70928" lon="1.70428">
        <ele>161</ele>
        <time>2018-12-18T09:33:04Z</time>
      </trkpt>
      <trkpt lat="48.70926" lon="1.70419">
        <ele>162</ele>
        <time>2018-12-18T09:33:08Z</time>
      </trkpt>
      <trkpt lat="48.70919" lon="1.70411">
        <ele>164</ele>
        <time>2018-12-18T09:33:12Z</time>
      </trkpt>
      <trkpt lat="48.70916" lon="1.70404">
        <ele>166</ele>
        <time>2018-12-18T09:33:16Z</time>
      </trkpt>
      <trkpt lat="48.70913" lon="1.70397">
        <ele>168</ele>
        <time>2018-12-18T09:33:20Z</time>
      </trkpt>
      <trkpt lat="48.7091" lon="1.7039">
        <ele>168</ele>
        <time>2018-12-18T09:33:24Z</time>
      </trkpt>
      <trkpt lat="48.70907" lon="1.70384">
        <ele>169</ele>
        <time>2018-12-18T09:33:28Z</time>
      </trkpt>
      <trkpt lat="48.70904" lon="1.70376">
        <ele>170</ele>
        <time>2018-12-18T09:33:32Z</time>
      </trkpt>
      <trkpt lat="48.709" lon="1.7037">
        <ele>170</ele>
        <time>2018-12-18T09:33:36Z</time>
      </trkpt>
      <trkpt lat="48.70897" lon="1.70365">
        <ele>171</ele>
        <time>2018-12-18T09:33:40Z</time>
      </trkpt>
      <trkpt lat="48.70894" lon="1.70358">
        <ele>171</ele>
        <time>2018-12-18T09:33:44Z</time>
      </trkpt>
      <trkpt lat="48.70891" lon="1.7035">
        <ele>172</ele>
        <time>2018-12-18T09:33:50Z</time>
      </trkpt>
      <trkpt lat="48.70888" lon="1.70344">
        <ele>172</ele>
        <time>2018-12-18T09:33:54Z</time>
      </trkpt>
      <trkpt lat="48.70884" lon="1.7034">
        <ele>172</ele>
        <time>2018-12-18T09:33:58Z</time>
      </trkpt>
      <trkpt lat="48.7088" lon="1.70335">
        <ele>173</ele>
        <time>2018-12-18T09:34:02Z</time>
      </trkpt>
      <trkpt lat="48.70874" lon="1.70328">
        <ele>179</ele>
        <time>2018-12-18T09:34:08Z</time>
      </trkpt>
      <trkpt lat="48.7087" lon="1.70327">
        <ele>179</ele>
        <time>2018-12-18T09:34:12Z</time>
      </trkpt>
      <trkpt lat="48.70864" lon="1.70323">
        <ele>179</ele>
        <time>2018-12-18T09:34:18Z</time>
      </trkpt>
      <trkpt lat="48.70857" lon="1.70319">
        <ele>179</ele>
        <time>2018-12-18T09:34:22Z</time>
      </trkpt>
      <trkpt lat="48.70851" lon="1.70313">
        <ele>179</ele>
        <time>2018-12-18T09:34:26Z</time>
      </trkpt>
      <trkpt lat="48.70846" lon="1.7031">
        <ele>180</ele>
        <time>2018-12-18T09:34:30Z</time>
      </trkpt>
      <trkpt lat="48.70841" lon="1.70309">
        <ele>180</ele>
        <time>2018-12-18T09:34:34Z</time>
      </trkpt>
      <trkpt lat="48.70837" lon="1.70305">
        <ele>180</ele>
        <time>2018-12-18T09:34:42Z</time>
      </trkpt>
      <trkpt lat="48.70833" lon="1.703">
        <ele>181</ele>
        <time>2018-12-18T09:37:04Z</time>
      </trkpt>
      <trkpt lat="48.70828" lon="1.70298">
        <ele>182</ele>
        <time>2018-12-18T09:37:08Z</time>
      </trkpt>
      <trkpt lat="48.70824" lon="1.70294">
        <ele>182</ele>
        <time>2018-12-18T09:37:14Z</time>
      </trkpt>
      <trkpt lat="48.70818" lon="1.70295">
        <ele>182</ele>
        <time>2018-12-18T09:37:18Z</time>
      </trkpt>
      <trkpt lat="48.70812" lon="1.70294">
        <ele>182</ele>
        <time>2018-12-18T09:37:22Z</time>
      </trkpt>
      <trkpt lat="48.70807" lon="1.70291">
        <ele>182</ele>
        <time>2018-12-18T09:37:28Z</time>
      </trkpt>
      <trkpt lat="48.70802" lon="1.70289">
        <ele>182</ele>
        <time>2018-12-18T09:37:32Z</time>
      </trkpt>
      <trkpt lat="48.70798" lon="1.70288">
        <ele>182</ele>
        <time>2018-12-18T09:37:36Z</time>
      </trkpt>
      <trkpt lat="48.70792" lon="1.70284">
        <ele>182</ele>
        <time>2018-12-18T09:37:40Z</time>
      </trkpt>
      <trkpt lat="48.70787" lon="1.70279">
        <ele>182</ele>
        <time>2018-12-18T09:37:44Z</time>
      </trkpt>
      <trkpt lat="48.70782" lon="1.70276">
        <ele>182</ele>
        <time>2018-12-18T09:37:48Z</time>
      </trkpt>
      <trkpt lat="48.70778" lon="1.70272">
        <ele>182</ele>
        <time>2018-12-18T09:37:52Z</time>
      </trkpt>
      <trkpt lat="48.70774" lon="1.70267">
        <ele>182</ele>
        <time>2018-12-18T09:37:56Z</time>
      </trkpt>
      <trkpt lat="48.7077" lon="1.7026">
        <ele>183</ele>
        <time>2018-12-18T09:38:00Z</time>
      </trkpt>
      <trkpt lat="48.70766" lon="1.70253">
        <ele>183</ele>
        <time>2018-12-18T09:38:04Z</time>
      </trkpt>
      <trkpt lat="48.70761" lon="1.70247">
        <ele>185</ele>
        <time>2018-12-18T09:38:08Z</time>
      </trkpt>
      <trkpt lat="48.70754" lon="1.70243">
        <ele>185</ele>
        <time>2018-12-18T09:38:12Z</time>
      </trkpt>
      <trkpt lat="48.70749" lon="1.7024">
        <ele>184</ele>
        <time>2018-12-18T09:38:16Z</time>
      </trkpt>
      <trkpt lat="48.70744" lon="1.70233">
        <ele>184</ele>
        <time>2018-12-18T09:38:22Z</time>
      </trkpt>
      <trkpt lat="48.70739" lon="1.70228">
        <ele>184</ele>
        <time>2018-12-18T09:38:28Z</time>
      </trkpt>
      <trkpt lat="48.70735" lon="1.70222">
        <ele>184</ele>
        <time>2018-12-18T09:38:34Z</time>
      </trkpt>
      <trkpt lat="48.7073" lon="1.70217">
        <ele>184</ele>
        <time>2018-12-18T09:38:40Z</time>
      </trkpt>
      <trkpt lat="48.70725" lon="1.70212">
        <ele>184</ele>
        <time>2018-12-18T09:38:44Z</time>
      </trkpt>
      <trkpt lat="48.7072" lon="1.70207">
        <ele>184</ele>
        <time>2018-12-18T09:38:48Z</time>
      </trkpt>
      <trkpt lat="48.70715" lon="1.70199">
        <ele>184</ele>
        <time>2018-12-18T09:38:56Z</time>
      </trkpt>
      <trkpt lat="48.7071" lon="1.70196">
        <ele>183</ele>
        <time>2018-12-18T09:39:00Z</time>
      </trkpt>
      <trkpt lat="48.70704" lon="1.70192">
        <ele>183</ele>
        <time>2018-12-18T09:39:04Z</time>
      </trkpt>
      <trkpt lat="48.70698" lon="1.70187">
        <ele>183</ele>
        <time>2018-12-18T09:39:08Z</time>
      </trkpt>
      <trkpt lat="48.70694" lon="1.70182">
        <ele>183</ele>
        <time>2018-12-18T09:39:12Z</time>
      </trkpt>
      <trkpt lat="48.70689" lon="1.70177">
        <ele>183</ele>
        <time>2018-12-18T09:39:18Z</time>
      </trkpt>
      <trkpt lat="48.70684" lon="1.70175">
        <ele>183</ele>
        <time>2018-12-18T09:39:22Z</time>
      </trkpt>
      <trkpt lat="48.70677" lon="1.70169">
        <ele>183</ele>
        <time>2018-12-18T09:39:28Z</time>
      </trkpt>
      <trkpt lat="48.70672" lon="1.70165">
        <ele>184</ele>
        <time>2018-12-18T09:39:32Z</time>
      </trkpt>
      <trkpt lat="48.70668" lon="1.70161">
        <ele>184</ele>
        <time>2018-12-18T09:39:36Z</time>
      </trkpt>
      <trkpt lat="48.70662" lon="1.70157">
        <ele>183</ele>
        <time>2018-12-18T09:39:40Z</time>
      </trkpt>
      <trkpt lat="48.70659" lon="1.70148">
        <ele>183</ele>
        <time>2018-12-18T09:39:44Z</time>
      </trkpt>
      <trkpt lat="48.70653" lon="1.70141">
        <ele>183</ele>
        <time>2018-12-18T09:39:48Z</time>
      </trkpt>
      <trkpt lat="48.70649" lon="1.70137">
        <ele>183</ele>
        <time>2018-12-18T09:39:50Z</time>
      </trkpt>
      <trkpt lat="48.70644" lon="1.70129">
        <ele>183</ele>
        <time>2018-12-18T09:39:54Z</time>
      </trkpt>
      <trkpt lat="48.7064" lon="1.7012">
        <ele>183</ele>
        <time>2018-12-18T09:39:58Z</time>
      </trkpt>
      <trkpt lat="48.70632" lon="1.70112">
        <ele>183</ele>
        <time>2018-12-18T09:40:02Z</time>
      </trkpt>
      <trkpt lat="48.7063" lon="1.70106">
        <ele>183</ele>
        <time>2018-12-18T09:40:04Z</time>
      </trkpt>
      <trkpt lat="48.70626" lon="1.70097">
        <ele>183</ele>
        <time>2018-12-18T09:40:08Z</time>
      </trkpt>
      <trkpt lat="48.7062" lon="1.70089">
        <ele>183</ele>
        <time>2018-12-18T09:40:14Z</time>
      </trkpt>
      <trkpt lat="48.70616" lon="1.70084">
        <ele>183</ele>
        <time>2018-12-18T09:40:18Z</time>
      </trkpt>
      <trkpt lat="48.70611" lon="1.70076">
        <ele>185</ele>
        <time>2018-12-18T09:40:22Z</time>
      </trkpt>
      <trkpt lat="48.70608" lon="1.70071">
        <ele>185</ele>
        <time>2018-12-18T09:40:24Z</time>
      </trkpt>
      <trkpt lat="48.70604" lon="1.70062">
        <ele>185</ele>
        <time>2018-12-18T09:40:28Z</time>
      </trkpt>
      <trkpt lat="48.70599" lon="1.70053">
        <ele>185</ele>
        <time>2018-12-18T09:40:32Z</time>
      </trkpt>
      <trkpt lat="48.70595" lon="1.70048">
        <ele>185</ele>
        <time>2018-12-18T09:40:34Z</time>
      </trkpt>
      <trkpt lat="48.70592" lon="1.70043">
        <ele>185</ele>
        <time>2018-12-18T09:40:36Z</time>
      </trkpt>
      <trkpt lat="48.70586" lon="1.70036">
        <ele>185</ele>
        <time>2018-12-18T09:40:40Z</time>
      </trkpt>
      <trkpt lat="48.70581" lon="1.70028">
        <ele>184</ele>
        <time>2018-12-18T09:40:44Z</time>
      </trkpt>
      <trkpt lat="48.70577" lon="1.70023">
        <ele>184</ele>
        <time>2018-12-18T09:40:48Z</time>
      </trkpt>
      <trkpt lat="48.70572" lon="1.70015">
        <ele>184</ele>
        <time>2018-12-18T09:40:52Z</time>
      </trkpt>
      <trkpt lat="48.70567" lon="1.70009">
        <ele>184</ele>
        <time>2018-12-18T09:40:56Z</time>
      </trkpt>
      <trkpt lat="48.70562" lon="1.70004">
        <ele>184</ele>
        <time>2018-12-18T09:41:00Z</time>
      </trkpt>
      <trkpt lat="48.70558" lon="1.69997">
        <ele>184</ele>
        <time>2018-12-18T09:41:04Z</time>
      </trkpt>
      <trkpt lat="48.70553" lon="1.69993">
        <ele>184</ele>
        <time>2018-12-18T09:41:08Z</time>
      </trkpt>
      <trkpt lat="48.70549" lon="1.69989">
        <ele>184</ele>
        <time>2018-12-18T09:41:12Z</time>
      </trkpt>
      <trkpt lat="48.70544" lon="1.69983">
        <ele>184</ele>
        <time>2018-12-18T09:41:18Z</time>
      </trkpt>
      <trkpt lat="48.70539" lon="1.6998">
        <ele>184</ele>
        <time>2018-12-18T09:41:22Z</time>
      </trkpt>
      <trkpt lat="48.70534" lon="1.69975">
        <ele>184</ele>
        <time>2018-12-18T09:41:28Z</time>
      </trkpt>
      <trkpt lat="48.7053" lon="1.69972">
        <ele>184</ele>
        <time>2018-12-18T09:41:32Z</time>
      </trkpt>
      <trkpt lat="48.70525" lon="1.69967">
        <ele>184</ele>
        <time>2018-12-18T09:41:36Z</time>
      </trkpt>
      <trkpt lat="48.7052" lon="1.69964">
        <ele>184</ele>
        <time>2018-12-18T09:41:40Z</time>
      </trkpt>
      <trkpt lat="48.70515" lon="1.69955">
        <ele>184</ele>
        <time>2018-12-18T09:41:44Z</time>
      </trkpt>
      <trkpt lat="48.70511" lon="1.69948">
        <ele>184</ele>
        <time>2018-12-18T09:41:48Z</time>
      </trkpt>
      <trkpt lat="48.70508" lon="1.69943">
        <ele>184</ele>
        <time>2018-12-18T09:41:52Z</time>
      </trkpt>
      <trkpt lat="48.70505" lon="1.69935">
        <ele>184</ele>
        <time>2018-12-18T09:41:56Z</time>
      </trkpt>
      <trkpt lat="48.70499" lon="1.69928">
        <ele>183</ele>
        <time>2018-12-18T09:42:00Z</time>
      </trkpt>
      <trkpt lat="48.70495" lon="1.69924">
        <ele>183</ele>
        <time>2018-12-18T09:42:04Z</time>
      </trkpt>
      <trkpt lat="48.7049" lon="1.69914">
        <ele>184</ele>
        <time>2018-12-18T09:42:08Z</time>
      </trkpt>
      <trkpt lat="48.70487" lon="1.69907">
        <ele>184</ele>
        <time>2018-12-18T09:42:10Z</time>
      </trkpt>
      <trkpt lat="48.70485" lon="1.69897">
        <ele>183</ele>
        <time>2018-12-18T09:42:14Z</time>
      </trkpt>
      <trkpt lat="48.7048" lon="1.69895">
        <ele>183</ele>
        <time>2018-12-18T09:42:18Z</time>
      </trkpt>
      <trkpt lat="48.70476" lon="1.69891">
        <ele>183</ele>
        <time>2018-12-18T09:42:22Z</time>
      </trkpt>
      <trkpt lat="48.70471" lon="1.69888">
        <ele>183</ele>
        <time>2018-12-18T09:42:26Z</time>
      </trkpt>
      <trkpt lat="48.70467" lon="1.69882">
        <ele>183</ele>
        <time>2018-12-18T09:42:32Z</time>
      </trkpt>
      <trkpt lat="48.70463" lon="1.69878">
        <ele>183</ele>
        <time>2018-12-18T09:42:38Z</time>
      </trkpt>
      <trkpt lat="48.70458" lon="1.69875">
        <ele>183</ele>
        <time>2018-12-18T09:42:44Z</time>
      </trkpt>
      <trkpt lat="48.70456" lon="1.69867">
        <ele>183</ele>
        <time>2018-12-18T09:42:50Z</time>
      </trkpt>
      <trkpt lat="48.70452" lon="1.69864">
        <ele>183</ele>
        <time>2018-12-18T09:42:54Z</time>
      </trkpt>
      <trkpt lat="48.70447" lon="1.69859">
        <ele>183</ele>
        <time>2018-12-18T09:43:00Z</time>
      </trkpt>
      <trkpt lat="48.70441" lon="1.6985">
        <ele>183</ele>
        <time>2018-12-18T09:43:04Z</time>
      </trkpt>
      <trkpt lat="48.70435" lon="1.69842">
        <ele>183</ele>
        <time>2018-12-18T09:43:08Z</time>
      </trkpt>
      <trkpt lat="48.7043" lon="1.69837">
        <ele>182</ele>
        <time>2018-12-18T09:43:12Z</time>
      </trkpt>
      <trkpt lat="48.70424" lon="1.69833">
        <ele>183</ele>
        <time>2018-12-18T09:43:16Z</time>
      </trkpt>
      <trkpt lat="48.70419" lon="1.69828">
        <ele>183</ele>
        <time>2018-12-18T09:43:22Z</time>
      </trkpt>
      <trkpt lat="48.70413" lon="1.69827">
        <ele>183</ele>
        <time>2018-12-18T09:43:26Z</time>
      </trkpt>
      <trkpt lat="48.70408" lon="1.69823">
        <ele>183</ele>
        <time>2018-12-18T09:43:30Z</time>
      </trkpt>
      <trkpt lat="48.70405" lon="1.69817">
        <ele>183</ele>
        <time>2018-12-18T09:43:34Z</time>
      </trkpt>
      <trkpt lat="48.70401" lon="1.6981">
        <ele>184</ele>
        <time>2018-12-18T09:43:38Z</time>
      </trkpt>
      <trkpt lat="48.70395" lon="1.69802">
        <ele>184</ele>
        <time>2018-12-18T09:43:42Z</time>
      </trkpt>
      <trkpt lat="48.70391" lon="1.69797">
        <ele>184</ele>
        <time>2018-12-18T09:43:46Z</time>
      </trkpt>
      <trkpt lat="48.70385" lon="1.69794">
        <ele>184</ele>
        <time>2018-12-18T09:43:52Z</time>
      </trkpt>
      <trkpt lat="48.70382" lon="1.69787">
        <ele>184</ele>
        <time>2018-12-18T09:43:58Z</time>
      </trkpt>
      <trkpt lat="48.70381" lon="1.69778">
        <ele>184</ele>
        <time>2018-12-18T09:44:02Z</time>
      </trkpt>
      <trkpt lat="48.7038" lon="1.69771">
        <ele>184</ele>
        <time>2018-12-18T09:44:06Z</time>
      </trkpt>
      <trkpt lat="48.70375" lon="1.69761">
        <ele>184</ele>
        <time>2018-12-18T09:44:12Z</time>
      </trkpt>
      <trkpt lat="48.7037" lon="1.69754">
        <ele>185</ele>
        <time>2018-12-18T09:44:16Z</time>
      </trkpt>
      <trkpt lat="48.70365" lon="1.69749">
        <ele>185</ele>
        <time>2018-12-18T09:44:20Z</time>
      </trkpt>
      <trkpt lat="48.70361" lon="1.69745">
        <ele>185</ele>
        <time>2018-12-18T09:44:24Z</time>
      </trkpt>
      <trkpt lat="48.70357" lon="1.69739">
        <ele>185</ele>
        <time>2018-12-18T09:44:28Z</time>
      </trkpt>
      <trkpt lat="48.70352" lon="1.69734">
        <ele>186</ele>
        <time>2018-12-18T09:44:32Z</time>
      </trkpt>
      <trkpt lat="48.70347" lon="1.69726">
        <ele>186</ele>
        <time>2018-12-18T09:44:36Z</time>
      </trkpt>
      <trkpt lat="48.70342" lon="1.6972">
        <ele>186</ele>
        <time>2018-12-18T09:44:40Z</time>
      </trkpt>
      <trkpt lat="48.70339" lon="1.69715">
        <ele>186</ele>
        <time>2018-12-18T09:44:44Z</time>
      </trkpt>
      <trkpt lat="48.70334" lon="1.69705">
        <ele>186</ele>
        <time>2018-12-18T09:44:50Z</time>
      </trkpt>
      <trkpt lat="48.70329" lon="1.69696">
        <ele>186</ele>
        <time>2018-12-18T09:44:54Z</time>
      </trkpt>
      <trkpt lat="48.70325" lon="1.69692">
        <ele>186</ele>
        <time>2018-12-18T09:44:56Z</time>
      </trkpt>
      <trkpt lat="48.70319" lon="1.69685">
        <ele>186</ele>
        <time>2018-12-18T09:45:00Z</time>
      </trkpt>
      <trkpt lat="48.70315" lon="1.69678">
        <ele>186</ele>
        <time>2018-12-18T09:45:04Z</time>
      </trkpt>
      <trkpt lat="48.70311" lon="1.69672">
        <ele>186</ele>
        <time>2018-12-18T09:45:08Z</time>
      </trkpt>
      <trkpt lat="48.70305" lon="1.69667">
        <ele>185</ele>
        <time>2018-12-18T09:45:12Z</time>
      </trkpt>
      <trkpt lat="48.703" lon="1.69661">
        <ele>185</ele>
        <time>2018-12-18T09:45:16Z</time>
      </trkpt>
      <trkpt lat="48.70296" lon="1.69656">
        <ele>185</ele>
        <time>2018-12-18T09:45:20Z</time>
      </trkpt>
      <trkpt lat="48.70289" lon="1.69652">
        <ele>185</ele>
        <time>2018-12-18T09:45:24Z</time>
      </trkpt>
      <trkpt lat="48.70285" lon="1.69648">
        <ele>185</ele>
        <time>2018-12-18T09:45:28Z</time>
      </trkpt>
      <trkpt lat="48.7028" lon="1.69641">
        <ele>185</ele>
        <time>2018-12-18T09:45:34Z</time>
      </trkpt>
      <trkpt lat="48.70276" lon="1.69634">
        <ele>184</ele>
        <time>2018-12-18T09:45:38Z</time>
      </trkpt>
      <trkpt lat="48.70271" lon="1.69629">
        <ele>184</ele>
        <time>2018-12-18T09:45:42Z</time>
      </trkpt>
      <trkpt lat="48.70267" lon="1.69624">
        <ele>184</ele>
        <time>2018-12-18T09:45:46Z</time>
      </trkpt>
      <trkpt lat="48.70264" lon="1.69619">
        <ele>184</ele>
        <time>2018-12-18T09:45:50Z</time>
      </trkpt>
      <trkpt lat="48.70259" lon="1.69612">
        <ele>184</ele>
        <time>2018-12-18T09:45:54Z</time>
      </trkpt>
      <trkpt lat="48.70255" lon="1.69607">
        <ele>184</ele>
        <time>2018-12-18T09:45:58Z</time>
      </trkpt>
      <trkpt lat="48.70249" lon="1.69602">
        <ele>183</ele>
        <time>2018-12-18T09:46:02Z</time>
      </trkpt>
      <trkpt lat="48.70246" lon="1.69597">
        <ele>183</ele>
        <time>2018-12-18T09:46:06Z</time>
      </trkpt>
      <trkpt lat="48.70242" lon="1.69591">
        <ele>183</ele>
        <time>2018-12-18T09:46:10Z</time>
      </trkpt>
      <trkpt lat="48.70238" lon="1.69586">
        <ele>183</ele>
        <time>2018-12-18T09:46:14Z</time>
      </trkpt>
      <trkpt lat="48.70233" lon="1.69582">
        <ele>183</ele>
        <time>2018-12-18T09:46:18Z</time>
      </trkpt>
      <trkpt lat="48.70229" lon="1.69578">
        <ele>183</ele>
        <time>2018-12-18T09:46:22Z</time>
      </trkpt>
      <trkpt lat="48.70225" lon="1.69571">
        <ele>183</ele>
        <time>2018-12-18T09:46:26Z</time>
      </trkpt>
      <trkpt lat="48.70222" lon="1.69566">
        <ele>183</ele>
        <time>2018-12-18T09:46:30Z</time>
      </trkpt>
      <trkpt lat="48.70218" lon="1.69559">
        <ele>183</ele>
        <time>2018-12-18T09:46:34Z</time>
      </trkpt>
      <trkpt lat="48.70213" lon="1.69553">
        <ele>183</ele>
        <time>2018-12-18T09:46:38Z</time>
      </trkpt>
      <trkpt lat="48.7021" lon="1.69547">
        <ele>183</ele>
        <time>2018-12-18T09:46:42Z</time>
      </trkpt>
      <trkpt lat="48.70206" lon="1.6954">
        <ele>183</ele>
        <time>2018-12-18T09:46:48Z</time>
      </trkpt>
      <trkpt lat="48.70201" lon="1.69536">
        <ele>183</ele>
        <time>2018-12-18T09:46:52Z</time>
      </trkpt>
      <trkpt lat="48.70197" lon="1.6953">
        <ele>183</ele>
        <time>2018-12-18T09:46:56Z</time>
      </trkpt>
      <trkpt lat="48.70193" lon="1.69525">
        <ele>183</ele>
        <time>2018-12-18T09:47:00Z</time>
      </trkpt>
      <trkpt lat="48.70189" lon="1.69521">
        <ele>183</ele>
        <time>2018-12-18T09:47:04Z</time>
      </trkpt>
      <trkpt lat="48.70184" lon="1.69515">
        <ele>183</ele>
        <time>2018-12-18T09:47:08Z</time>
      </trkpt>
      <trkpt lat="48.7018" lon="1.6951">
        <ele>183</ele>
        <time>2018-12-18T09:47:12Z</time>
      </trkpt>
      <trkpt lat="48.70176" lon="1.69505">
        <ele>183</ele>
        <time>2018-12-18T09:47:16Z</time>
      </trkpt>
      <trkpt lat="48.70172" lon="1.69499">
        <ele>183</ele>
        <time>2018-12-18T09:47:20Z</time>
      </trkpt>
      <trkpt lat="48.70167" lon="1.69493">
        <ele>183</ele>
        <time>2018-12-18T09:47:26Z</time>
      </trkpt>
      <trkpt lat="48.70164" lon="1.69489">
        <ele>183</ele>
        <time>2018-12-18T09:47:30Z</time>
      </trkpt>
      <trkpt lat="48.7016" lon="1.69484">
        <ele>183</ele>
        <time>2018-12-18T09:47:34Z</time>
      </trkpt>
      <trkpt lat="48.70155" lon="1.69476">
        <ele>182</ele>
        <time>2018-12-18T09:47:40Z</time>
      </trkpt>
      <trkpt lat="48.70152" lon="1.69469">
        <ele>182</ele>
        <time>2018-12-18T09:47:46Z</time>
      </trkpt>
      <trkpt lat="48.70148" lon="1.69464">
        <ele>182</ele>
        <time>2018-12-18T09:47:52Z</time>
      </trkpt>
      <trkpt lat="48.70144" lon="1.69459">
        <ele>182</ele>
        <time>2018-12-18T09:47:56Z</time>
      </trkpt>
      <trkpt lat="48.70139" lon="1.69455">
        <ele>182</ele>
        <time>2018-12-18T09:48:00Z</time>
      </trkpt>
      <trkpt lat="48.70134" lon="1.69449">
        <ele>182</ele>
        <time>2018-12-18T09:48:04Z</time>
      </trkpt>
      <trkpt lat="48.7013" lon="1.69444">
        <ele>182</ele>
        <time>2018-12-18T09:48:08Z</time>
      </trkpt>
      <trkpt lat="48.70125" lon="1.69442">
        <ele>182</ele>
        <time>2018-12-18T09:48:12Z</time>
      </trkpt>
      <trkpt lat="48.7012" lon="1.69438">
        <ele>182</ele>
        <time>2018-12-18T09:48:16Z</time>
      </trkpt>
      <trkpt lat="48.70113" lon="1.69431">
        <ele>182</ele>
        <time>2018-12-18T09:48:20Z</time>
      </trkpt>
      <trkpt lat="48.7011" lon="1.69423">
        <ele>181</ele>
        <time>2018-12-18T09:48:24Z</time>
      </trkpt>
      <trkpt lat="48.70104" lon="1.69415">
        <ele>181</ele>
        <time>2018-12-18T09:48:28Z</time>
      </trkpt>
      <trkpt lat="48.70097" lon="1.69409">
        <ele>181</ele>
        <time>2018-12-18T09:48:32Z</time>
      </trkpt>
      <trkpt lat="48.70092" lon="1.69404">
        <ele>180</ele>
        <time>2018-12-18T09:48:36Z</time>
      </trkpt>
      <trkpt lat="48.70088" lon="1.69396">
        <ele>181</ele>
        <time>2018-12-18T09:48:42Z</time>
      </trkpt>
      <trkpt lat="48.70083" lon="1.6939">
        <ele>178</ele>
        <time>2018-12-18T09:48:46Z</time>
      </trkpt>
      <trkpt lat="48.70079" lon="1.69386">
        <ele>178</ele>
        <time>2018-12-18T09:48:48Z</time>
      </trkpt>
      <trkpt lat="48.70075" lon="1.69382">
        <ele>177</ele>
        <time>2018-12-18T09:48:50Z</time>
      </trkpt>
      <trkpt lat="48.70069" lon="1.69378">
        <ele>177</ele>
        <time>2018-12-18T09:48:54Z</time>
      </trkpt>
      <trkpt lat="48.70065" lon="1.69373">
        <ele>177</ele>
        <time>2018-12-18T09:48:58Z</time>
      </trkpt>
      <trkpt lat="48.70061" lon="1.69368">
        <ele>177</ele>
        <time>2018-12-18T09:49:02Z</time>
      </trkpt>
      <trkpt lat="48.70056" lon="1.69364">
        <ele>177</ele>
        <time>2018-12-18T09:49:06Z</time>
      </trkpt>
      <trkpt lat="48.70052" lon="1.6936">
        <ele>177</ele>
        <time>2018-12-18T09:49:08Z</time>
      </trkpt>
      <trkpt lat="48.70048" lon="1.69355">
        <ele>176</ele>
        <time>2018-12-18T09:49:12Z</time>
      </trkpt>
      <trkpt lat="48.70044" lon="1.69347">
        <ele>176</ele>
        <time>2018-12-18T09:49:18Z</time>
      </trkpt>
      <trkpt lat="48.70041" lon="1.69342">
        <ele>176</ele>
        <time>2018-12-18T09:49:20Z</time>
      </trkpt>
      <trkpt lat="48.70036" lon="1.69333">
        <ele>174</ele>
        <time>2018-12-18T09:49:24Z</time>
      </trkpt>
      <trkpt lat="48.70031" lon="1.69327">
        <ele>174</ele>
        <time>2018-12-18T09:49:28Z</time>
      </trkpt>
      <trkpt lat="48.70027" lon="1.69321">
        <ele>174</ele>
        <time>2018-12-18T09:49:32Z</time>
      </trkpt>
      <trkpt lat="48.70022" lon="1.69315">
        <ele>173</ele>
        <time>2018-12-18T09:49:36Z</time>
      </trkpt>
      <trkpt lat="48.70018" lon="1.69311">
        <ele>173</ele>
        <time>2018-12-18T09:49:38Z</time>
      </trkpt>
      <trkpt lat="48.70015" lon="1.69305">
        <ele>173</ele>
        <time>2018-12-18T09:49:40Z</time>
      </trkpt>
      <trkpt lat="48.7001" lon="1.69298">
        <ele>173</ele>
        <time>2018-12-18T09:49:44Z</time>
      </trkpt>
      <trkpt lat="48.70006" lon="1.69293">
        <ele>173</ele>
        <time>2018-12-18T09:49:48Z</time>
      </trkpt>
      <trkpt lat="48.70003" lon="1.69288">
        <ele>173</ele>
        <time>2018-12-18T09:49:52Z</time>
      </trkpt>
      <trkpt lat="48.69997" lon="1.69281">
        <ele>168</ele>
        <time>2018-12-18T09:49:56Z</time>
      </trkpt>
      <trkpt lat="48.69993" lon="1.69278">
        <ele>168</ele>
        <time>2018-12-18T09:49:58Z</time>
      </trkpt>
      <trkpt lat="48.69989" lon="1.69272">
        <ele>168</ele>
        <time>2018-12-18T09:50:02Z</time>
      </trkpt>
      <trkpt lat="48.69985" lon="1.69267">
        <ele>168</ele>
        <time>2018-12-18T09:50:04Z</time>
      </trkpt>
      <trkpt lat="48.69981" lon="1.69261">
        <ele>168</ele>
        <time>2018-12-18T09:50:10Z</time>
      </trkpt>
      <trkpt lat="48.69979" lon="1.69254">
        <ele>168</ele>
        <time>2018-12-18T09:52:08Z</time>
      </trkpt>
      <trkpt lat="48.69974" lon="1.69251">
        <ele>168</ele>
        <time>2018-12-18T09:52:14Z</time>
      </trkpt>
      <trkpt lat="48.6997" lon="1.69245">
        <ele>165</ele>
        <time>2018-12-18T09:52:20Z</time>
      </trkpt>
      <trkpt lat="48.69967" lon="1.69241">
        <ele>165</ele>
        <time>2018-12-18T09:52:24Z</time>
      </trkpt>
      <trkpt lat="48.69962" lon="1.69237">
        <ele>165</ele>
        <time>2018-12-18T09:52:28Z</time>
      </trkpt>
      <trkpt lat="48.69958" lon="1.69233">
        <ele>164</ele>
        <time>2018-12-18T09:52:34Z</time>
      </trkpt>
      <trkpt lat="48.69953" lon="1.69229">
        <ele>164</ele>
        <time>2018-12-18T09:52:38Z</time>
      </trkpt>
      <trkpt lat="48.69949" lon="1.69225">
        <ele>164</ele>
        <time>2018-12-18T09:52:42Z</time>
      </trkpt>
      <trkpt lat="48.69945" lon="1.69219">
        <ele>163</ele>
        <time>2018-12-18T09:52:46Z</time>
      </trkpt>
      <trkpt lat="48.6994" lon="1.69214">
        <ele>163</ele>
        <time>2018-12-18T09:52:50Z</time>
      </trkpt>
      <trkpt lat="48.69935" lon="1.6921">
        <ele>163</ele>
        <time>2018-12-18T09:52:58Z</time>
      </trkpt>
      <trkpt lat="48.69931" lon="1.69207">
        <ele>162</ele>
        <time>2018-12-18T09:53:04Z</time>
      </trkpt>
      <trkpt lat="48.69926" lon="1.69201">
        <ele>162</ele>
        <time>2018-12-18T09:53:08Z</time>
      </trkpt>
      <trkpt lat="48.69921" lon="1.69195">
        <ele>162</ele>
        <time>2018-12-18T09:53:12Z</time>
      </trkpt>
      <trkpt lat="48.69917" lon="1.6919">
        <ele>161</ele>
        <time>2018-12-18T09:53:16Z</time>
      </trkpt>
      <trkpt lat="48.69911" lon="1.69187">
        <ele>158</ele>
        <time>2018-12-18T09:53:22Z</time>
      </trkpt>
      <trkpt lat="48.69909" lon="1.69181">
        <ele>158</ele>
        <time>2018-12-18T09:53:26Z</time>
      </trkpt>
      <trkpt lat="48.69903" lon="1.69174">
        <ele>158</ele>
        <time>2018-12-18T09:53:32Z</time>
      </trkpt>
      <trkpt lat="48.69898" lon="1.69168">
        <ele>158</ele>
        <time>2018-12-18T09:53:36Z</time>
      </trkpt>
      <trkpt lat="48.69894" lon="1.6916">
        <ele>156</ele>
        <time>2018-12-18T09:53:40Z</time>
      </trkpt>
      <trkpt lat="48.69889" lon="1.69156">
        <ele>156</ele>
        <time>2018-12-18T09:53:44Z</time>
      </trkpt>
      <trkpt lat="48.69886" lon="1.69152">
        <ele>156</ele>
        <time>2018-12-18T09:53:48Z</time>
      </trkpt>
      <trkpt lat="48.69883" lon="1.69145">
        <ele>156</ele>
        <time>2018-12-18T09:53:52Z</time>
      </trkpt>
      <trkpt lat="48.69878" lon="1.69142">
        <ele>155</ele>
        <time>2018-12-18T09:53:56Z</time>
      </trkpt>
      <trkpt lat="48.69875" lon="1.69135">
        <ele>155</ele>
        <time>2018-12-18T09:54:00Z</time>
      </trkpt>
      <trkpt lat="48.6987" lon="1.6913">
        <ele>155</ele>
        <time>2018-12-18T09:54:04Z</time>
      </trkpt>
      <trkpt lat="48.69863" lon="1.69123">
        <ele>155</ele>
        <time>2018-12-18T09:54:08Z</time>
      </trkpt>
      <trkpt lat="48.6986" lon="1.69119">
        <ele>155</ele>
        <time>2018-12-18T09:54:10Z</time>
      </trkpt>
      <trkpt lat="48.69854" lon="1.69114">
        <ele>154</ele>
        <time>2018-12-18T09:54:14Z</time>
      </trkpt>
      <trkpt lat="48.69849" lon="1.69106">
        <ele>154</ele>
        <time>2018-12-18T09:54:18Z</time>
      </trkpt>
      <trkpt lat="48.69844" lon="1.69101">
        <ele>154</ele>
        <time>2018-12-18T09:54:24Z</time>
      </trkpt>
      <trkpt lat="48.69838" lon="1.69095">
        <ele>153</ele>
        <time>2018-12-18T09:54:28Z</time>
      </trkpt>
      <trkpt lat="48.69832" lon="1.69085">
        <ele>152</ele>
        <time>2018-12-18T09:54:32Z</time>
      </trkpt>
      <trkpt lat="48.69828" lon="1.69081">
        <ele>152</ele>
        <time>2018-12-18T09:54:34Z</time>
      </trkpt>
      <trkpt lat="48.69823" lon="1.69078">
        <ele>152</ele>
        <time>2018-12-18T09:54:38Z</time>
      </trkpt>
      <trkpt lat="48.69819" lon="1.69069">
        <ele>152</ele>
        <time>2018-12-18T09:54:42Z</time>
      </trkpt>
      <trkpt lat="48.69815" lon="1.69061">
        <ele>152</ele>
        <time>2018-12-18T09:54:46Z</time>
      </trkpt>
      <trkpt lat="48.69812" lon="1.69053">
        <ele>152</ele>
        <time>2018-12-18T09:54:50Z</time>
      </trkpt>
      <trkpt lat="48.69809" lon="1.69046">
        <ele>152</ele>
        <time>2018-12-18T09:54:54Z</time>
      </trkpt>
      <trkpt lat="48.69804" lon="1.69042">
        <ele>152</ele>
        <time>2018-12-18T09:54:58Z</time>
      </trkpt>
      <trkpt lat="48.698" lon="1.69032">
        <ele>152</ele>
        <time>2018-12-18T09:55:02Z</time>
      </trkpt>
      <trkpt lat="48.69795" lon="1.69029">
        <ele>152</ele>
        <time>2018-12-18T09:55:06Z</time>
      </trkpt>
      <trkpt lat="48.69789" lon="1.69021">
        <ele>152</ele>
        <time>2018-12-18T09:55:12Z</time>
      </trkpt>
      <trkpt lat="48.69784" lon="1.69013">
        <ele>152</ele>
        <time>2018-12-18T09:55:16Z</time>
      </trkpt>
      <trkpt lat="48.6978" lon="1.69008">
        <ele>152</ele>
        <time>2018-12-18T09:55:18Z</time>
      </trkpt>
      <trkpt lat="48.69775" lon="1.69005">
        <ele>152</ele>
        <time>2018-12-18T09:55:24Z</time>
      </trkpt>
      <trkpt lat="48.69771" lon="1.69004">
        <ele>152</ele>
        <time>2018-12-18T09:55:28Z</time>
      </trkpt>
      <trkpt lat="48.69767" lon="1.68996">
        <ele>151</ele>
        <time>2018-12-18T09:55:34Z</time>
      </trkpt>
      <trkpt lat="48.69762" lon="1.68998">
        <ele>151</ele>
        <time>2018-12-18T09:55:38Z</time>
      </trkpt>
      <trkpt lat="48.69762" lon="1.69005">
        <ele>152</ele>
        <time>2018-12-18T09:55:42Z</time>
      </trkpt>
      <trkpt lat="48.69757" lon="1.69013">
        <ele>152</ele>
        <time>2018-12-18T09:55:48Z</time>
      </trkpt>
      <trkpt lat="48.69759" lon="1.69024">
        <ele>152</ele>
        <time>2018-12-18T09:55:56Z</time>
      </trkpt>
      <trkpt lat="48.69755" lon="1.6903">
        <ele>152</ele>
        <time>2018-12-18T09:56:00Z</time>
      </trkpt>
      <trkpt lat="48.69757" lon="1.69039">
        <ele>153</ele>
        <time>2018-12-18T09:56:04Z</time>
      </trkpt>
      <trkpt lat="48.69759" lon="1.69047">
        <ele>153</ele>
        <time>2018-12-18T09:56:08Z</time>
      </trkpt>
      <trkpt lat="48.69757" lon="1.69056">
        <ele>153</ele>
        <time>2018-12-18T09:56:14Z</time>
      </trkpt>
      <trkpt lat="48.6976" lon="1.69062">
        <ele>153</ele>
        <time>2018-12-18T09:56:18Z</time>
      </trkpt>
      <trkpt lat="48.69762" lon="1.69069">
        <ele>154</ele>
        <time>2018-12-18T09:56:22Z</time>
      </trkpt>
      <trkpt lat="48.69762" lon="1.69076">
        <ele>154</ele>
        <time>2018-12-18T09:56:26Z</time>
      </trkpt>
      <trkpt lat="48.69764" lon="1.69086">
        <ele>155</ele>
        <time>2018-12-18T09:56:30Z</time>
      </trkpt>
      <trkpt lat="48.69766" lon="1.69094">
        <ele>155</ele>
        <time>2018-12-18T09:56:34Z</time>
      </trkpt>
      <trkpt lat="48.69764" lon="1.69104">
        <ele>155</ele>
        <time>2018-12-18T09:56:40Z</time>
      </trkpt>
      <trkpt lat="48.69764" lon="1.69116">
        <ele>155</ele>
        <time>2018-12-18T09:56:44Z</time>
      </trkpt>
      <trkpt lat="48.69766" lon="1.69127">
        <ele>155</ele>
        <time>2018-12-18T09:56:50Z</time>
      </trkpt>
      <trkpt lat="48.69767" lon="1.69137">
        <ele>155</ele>
        <time>2018-12-18T09:56:56Z</time>
      </trkpt>
      <trkpt lat="48.69768" lon="1.69146">
        <ele>155</ele>
        <time>2018-12-18T09:57:00Z</time>
      </trkpt>
      <trkpt lat="48.69771" lon="1.69156">
        <ele>155</ele>
        <time>2018-12-18T09:57:04Z</time>
      </trkpt>
      <trkpt lat="48.69772" lon="1.69164">
        <ele>155</ele>
        <time>2018-12-18T09:57:08Z</time>
      </trkpt>
      <trkpt lat="48.69774" lon="1.69177">
        <ele>156</ele>
        <time>2018-12-18T09:57:14Z</time>
      </trkpt>
      <trkpt lat="48.69774" lon="1.69184">
        <ele>156</ele>
        <time>2018-12-18T09:57:18Z</time>
      </trkpt>
      <trkpt lat="48.69773" lon="1.69195">
        <ele>156</ele>
        <time>2018-12-18T09:57:22Z</time>
      </trkpt>
      <trkpt lat="48.69778" lon="1.69203">
        <ele>156</ele>
        <time>2018-12-18T09:57:26Z</time>
      </trkpt>
      <trkpt lat="48.69782" lon="1.6921">
        <ele>156</ele>
        <time>2018-12-18T09:57:30Z</time>
      </trkpt>
      <trkpt lat="48.69787" lon="1.69214">
        <ele>156</ele>
        <time>2018-12-18T09:57:32Z</time>
      </trkpt>
      <trkpt lat="48.69789" lon="1.69223">
        <ele>156</ele>
        <time>2018-12-18T09:57:36Z</time>
      </trkpt>
      <trkpt lat="48.69792" lon="1.69232">
        <ele>156</ele>
        <time>2018-12-18T09:57:40Z</time>
      </trkpt>
      <trkpt lat="48.69791" lon="1.69241">
        <ele>156</ele>
        <time>2018-12-18T09:57:44Z</time>
      </trkpt>
      <trkpt lat="48.69792" lon="1.69249">
        <ele>157</ele>
        <time>2018-12-18T09:57:48Z</time>
      </trkpt>
      <trkpt lat="48.6979" lon="1.69258">
        <ele>157</ele>
        <time>2018-12-18T09:57:54Z</time>
      </trkpt>
      <trkpt lat="48.69789" lon="1.69265">
        <ele>157</ele>
        <time>2018-12-18T09:57:58Z</time>
      </trkpt>
      <trkpt lat="48.69791" lon="1.69274">
        <ele>157</ele>
        <time>2018-12-18T09:58:04Z</time>
      </trkpt>
      <trkpt lat="48.69795" lon="1.69282">
        <ele>157</ele>
        <time>2018-12-18T09:58:08Z</time>
      </trkpt>
      <trkpt lat="48.69796" lon="1.69291">
        <ele>157</ele>
        <time>2018-12-18T09:58:12Z</time>
      </trkpt>
      <trkpt lat="48.698" lon="1.69299">
        <ele>157</ele>
        <time>2018-12-18T09:58:16Z</time>
      </trkpt>
      <trkpt lat="48.69803" lon="1.6931">
        <ele>157</ele>
        <time>2018-12-18T09:58:20Z</time>
      </trkpt>
      <trkpt lat="48.69802" lon="1.6932">
        <ele>157</ele>
        <time>2018-12-18T09:58:24Z</time>
      </trkpt>
      <trkpt lat="48.69805" lon="1.69327">
        <ele>157</ele>
        <time>2018-12-18T09:58:28Z</time>
      </trkpt>
      <trkpt lat="48.69807" lon="1.69336">
        <ele>158</ele>
        <time>2018-12-18T09:58:32Z</time>
      </trkpt>
      <trkpt lat="48.69806" lon="1.69343">
        <ele>158</ele>
        <time>2018-12-18T09:58:36Z</time>
      </trkpt>
      <trkpt lat="48.69808" lon="1.69349">
        <ele>158</ele>
        <time>2018-12-18T09:58:40Z</time>
      </trkpt>
      <trkpt lat="48.69809" lon="1.69358">
        <ele>158</ele>
        <time>2018-12-18T09:58:46Z</time>
      </trkpt>
      <trkpt lat="48.69811" lon="1.69365">
        <ele>158</ele>
        <time>2018-12-18T09:58:50Z</time>
      </trkpt>
      <trkpt lat="48.69814" lon="1.69375">
        <ele>158</ele>
        <time>2018-12-18T09:58:54Z</time>
      </trkpt>
      <trkpt lat="48.69816" lon="1.69381">
        <ele>158</ele>
        <time>2018-12-18T09:58:56Z</time>
      </trkpt>
      <trkpt lat="48.69818" lon="1.69389">
        <ele>159</ele>
        <time>2018-12-18T09:59:00Z</time>
      </trkpt>
      <trkpt lat="48.69819" lon="1.69396">
        <ele>159</ele>
        <time>2018-12-18T09:59:04Z</time>
      </trkpt>
      <trkpt lat="48.69819" lon="1.69405">
        <ele>160</ele>
        <time>2018-12-18T09:59:10Z</time>
      </trkpt>
      <trkpt lat="48.69818" lon="1.69415">
        <ele>160</ele>
        <time>2018-12-18T09:59:16Z</time>
      </trkpt>
      <trkpt lat="48.69819" lon="1.69425">
        <ele>160</ele>
        <time>2018-12-18T09:59:22Z</time>
      </trkpt>
      <trkpt lat="48.69821" lon="1.69433">
        <ele>160</ele>
        <time>2018-12-18T09:59:30Z</time>
      </trkpt>
      <trkpt lat="48.69825" lon="1.6944">
        <ele>160</ele>
        <time>2018-12-18T09:59:34Z</time>
      </trkpt>
      <trkpt lat="48.69828" lon="1.69449">
        <ele>160</ele>
        <time>2018-12-18T09:59:38Z</time>
      </trkpt>
      <trkpt lat="48.69828" lon="1.69457">
        <ele>160</ele>
        <time>2018-12-18T09:59:44Z</time>
      </trkpt>
      <trkpt lat="48.6983" lon="1.69463">
        <ele>160</ele>
        <time>2018-12-18T09:59:50Z</time>
      </trkpt>
      <trkpt lat="48.69831" lon="1.6947">
        <ele>161</ele>
        <time>2018-12-18T09:59:54Z</time>
      </trkpt>
      <trkpt lat="48.69833" lon="1.69479">
        <ele>164</ele>
        <time>2018-12-18T09:59:58Z</time>
      </trkpt>
      <trkpt lat="48.69835" lon="1.6949">
        <ele>164</ele>
        <time>2018-12-18T10:00:02Z</time>
      </trkpt>
      <trkpt lat="48.69839" lon="1.69498">
        <ele>164</ele>
        <time>2018-12-18T10:00:08Z</time>
      </trkpt>
      <trkpt lat="48.69837" lon="1.69506">
        <ele>164</ele>
        <time>2018-12-18T10:00:14Z</time>
      </trkpt>
      <trkpt lat="48.69842" lon="1.69513">
        <ele>164</ele>
        <time>2018-12-18T10:00:18Z</time>
      </trkpt>
      <trkpt lat="48.69847" lon="1.69525">
        <ele>164</ele>
        <time>2018-12-18T10:00:22Z</time>
      </trkpt>
      <trkpt lat="48.69844" lon="1.69532">
        <ele>164</ele>
        <time>2018-12-18T10:00:24Z</time>
      </trkpt>
      <trkpt lat="48.69848" lon="1.6954">
        <ele>164</ele>
        <time>2018-12-18T10:00:28Z</time>
      </trkpt>
      <trkpt lat="48.69851" lon="1.69545">
        <ele>164</ele>
        <time>2018-12-18T10:00:30Z</time>
      </trkpt>
      <trkpt lat="48.69855" lon="1.69553">
        <ele>164</ele>
        <time>2018-12-18T10:00:34Z</time>
      </trkpt>
      <trkpt lat="48.69857" lon="1.69559">
        <ele>164</ele>
        <time>2018-12-18T10:00:38Z</time>
      </trkpt>
      <trkpt lat="48.69859" lon="1.69566">
        <ele>163</ele>
        <time>2018-12-18T10:00:42Z</time>
      </trkpt>
      <trkpt lat="48.69859" lon="1.69573">
        <ele>163</ele>
        <time>2018-12-18T10:00:48Z</time>
      </trkpt>
      <trkpt lat="48.69861" lon="1.69581">
        <ele>163</ele>
        <time>2018-12-18T10:01:00Z</time>
      </trkpt>
      <trkpt lat="48.69862" lon="1.69589">
        <ele>163</ele>
        <time>2018-12-18T10:01:04Z</time>
      </trkpt>
      <trkpt lat="48.69865" lon="1.69596">
        <ele>163</ele>
        <time>2018-12-18T10:01:10Z</time>
      </trkpt>
      <trkpt lat="48.69867" lon="1.69604">
        <ele>163</ele>
        <time>2018-12-18T10:01:18Z</time>
      </trkpt>
      <trkpt lat="48.69868" lon="1.69612">
        <ele>163</ele>
        <time>2018-12-18T10:01:22Z</time>
      </trkpt>
      <trkpt lat="48.6987" lon="1.69621">
        <ele>163</ele>
        <time>2018-12-18T10:01:26Z</time>
      </trkpt>
      <trkpt lat="48.69873" lon="1.69628">
        <ele>163</ele>
        <time>2018-12-18T10:01:30Z</time>
      </trkpt>
      <trkpt lat="48.6988" lon="1.69637">
        <ele>163</ele>
        <time>2018-12-18T10:01:34Z</time>
      </trkpt>
      <trkpt lat="48.69878" lon="1.69645">
        <ele>163</ele>
        <time>2018-12-18T10:01:38Z</time>
      </trkpt>
      <trkpt lat="48.69883" lon="1.69653">
        <ele>163</ele>
        <time>2018-12-18T10:01:42Z</time>
      </trkpt>
      <trkpt lat="48.69884" lon="1.69662">
        <ele>163</ele>
        <time>2018-12-18T10:01:46Z</time>
      </trkpt>
      <trkpt lat="48.69885" lon="1.69672">
        <ele>164</ele>
        <time>2018-12-18T10:01:52Z</time>
      </trkpt>
      <trkpt lat="48.69887" lon="1.69681">
        <ele>164</ele>
        <time>2018-12-18T10:01:58Z</time>
      </trkpt>
      <trkpt lat="48.6989" lon="1.69688">
        <ele>164</ele>
        <time>2018-12-18T10:02:02Z</time>
      </trkpt>
      <trkpt lat="48.69891" lon="1.69695">
        <ele>164</ele>
        <time>2018-12-18T10:02:06Z</time>
      </trkpt>
      <trkpt lat="48.69895" lon="1.69704">
        <ele>165</ele>
        <time>2018-12-18T10:02:10Z</time>
      </trkpt>
      <trkpt lat="48.69899" lon="1.69712">
        <ele>165</ele>
        <time>2018-12-18T10:02:14Z</time>
      </trkpt>
      <trkpt lat="48.69902" lon="1.69718">
        <ele>165</ele>
        <time>2018-12-18T10:02:16Z</time>
      </trkpt>
      <trkpt lat="48.69904" lon="1.69726">
        <ele>166</ele>
        <time>2018-12-18T10:02:20Z</time>
      </trkpt>
      <trkpt lat="48.69906" lon="1.69734">
        <ele>166</ele>
        <time>2018-12-18T10:02:26Z</time>
      </trkpt>
      <trkpt lat="48.6991" lon="1.69743">
        <ele>167</ele>
        <time>2018-12-18T10:02:32Z</time>
      </trkpt>
      <trkpt lat="48.69913" lon="1.69749">
        <ele>168</ele>
        <time>2018-12-18T10:02:36Z</time>
      </trkpt>
      <trkpt lat="48.69917" lon="1.69754">
        <ele>168</ele>
        <time>2018-12-18T10:02:40Z</time>
      </trkpt>
      <trkpt lat="48.69919" lon="1.69761">
        <ele>169</ele>
        <time>2018-12-18T10:02:46Z</time>
      </trkpt>
      <trkpt lat="48.69922" lon="1.69768">
        <ele>170</ele>
        <time>2018-12-18T10:02:50Z</time>
      </trkpt>
      <trkpt lat="48.69923" lon="1.69776">
        <ele>171</ele>
        <time>2018-12-18T10:02:56Z</time>
      </trkpt>
      <trkpt lat="48.69926" lon="1.69782">
        <ele>171</ele>
        <time>2018-12-18T10:03:00Z</time>
      </trkpt>
      <trkpt lat="48.69929" lon="1.69788">
        <ele>171</ele>
        <time>2018-12-18T10:03:04Z</time>
      </trkpt>
      <trkpt lat="48.69933" lon="1.69794">
        <ele>171</ele>
        <time>2018-12-18T10:03:08Z</time>
      </trkpt>
      <trkpt lat="48.69935" lon="1.69804">
        <ele>172</ele>
        <time>2018-12-18T10:03:14Z</time>
      </trkpt>
      <trkpt lat="48.69939" lon="1.6981">
        <ele>172</ele>
        <time>2018-12-18T10:03:18Z</time>
      </trkpt>
      <trkpt lat="48.69942" lon="1.6982">
        <ele>172</ele>
        <time>2018-12-18T10:03:24Z</time>
      </trkpt>
      <trkpt lat="48.69945" lon="1.69827">
        <ele>172</ele>
        <time>2018-12-18T10:03:28Z</time>
      </trkpt>
      <trkpt lat="48.69948" lon="1.69833">
        <ele>172</ele>
        <time>2018-12-18T10:03:32Z</time>
      </trkpt>
      <trkpt lat="48.69949" lon="1.69843">
        <ele>174</ele>
        <time>2018-12-18T10:03:38Z</time>
      </trkpt>
      <trkpt lat="48.69954" lon="1.69851">
        <ele>174</ele>
        <time>2018-12-18T10:03:42Z</time>
      </trkpt>
      <trkpt lat="48.69957" lon="1.69861">
        <ele>174</ele>
        <time>2018-12-18T10:03:48Z</time>
      </trkpt>
      <trkpt lat="48.69959" lon="1.69869">
        <ele>174</ele>
        <time>2018-12-18T10:03:52Z</time>
      </trkpt>
      <trkpt lat="48.69962" lon="1.69876">
        <ele>174</ele>
        <time>2018-12-18T10:03:58Z</time>
      </trkpt>
      <trkpt lat="48.69962" lon="1.69883">
        <ele>174</ele>
        <time>2018-12-18T10:04:06Z</time>
      </trkpt>
      <trkpt lat="48.69966" lon="1.69891">
        <ele>174</ele>
        <time>2018-12-18T10:04:10Z</time>
      </trkpt>
      <trkpt lat="48.69971" lon="1.69897">
        <ele>175</ele>
        <time>2018-12-18T10:04:16Z</time>
      </trkpt>
      <trkpt lat="48.69972" lon="1.69904">
        <ele>175</ele>
        <time>2018-12-18T10:04:22Z</time>
      </trkpt>
      <trkpt lat="48.69977" lon="1.69903">
        <ele>175</ele>
        <time>2018-12-18T10:04:30Z</time>
      </trkpt>
      <trkpt lat="48.6998" lon="1.69909">
        <ele>175</ele>
        <time>2018-12-18T10:04:38Z</time>
      </trkpt>
      <trkpt lat="48.69984" lon="1.69915">
        <ele>175</ele>
        <time>2018-12-18T10:04:42Z</time>
      </trkpt>
      <trkpt lat="48.69986" lon="1.69921">
        <ele>176</ele>
        <time>2018-12-18T10:04:46Z</time>
      </trkpt>
      <trkpt lat="48.6999" lon="1.69926">
        <ele>176</ele>
        <time>2018-12-18T10:04:50Z</time>
      </trkpt>
      <trkpt lat="48.69994" lon="1.69934">
        <ele>176</ele>
        <time>2018-12-18T10:04:56Z</time>
      </trkpt>
      <trkpt lat="48.69998" lon="1.69938">
        <ele>176</ele>
        <time>2018-12-18T10:05:00Z</time>
      </trkpt>
      <trkpt lat="48.7" lon="1.69946">
        <ele>177</ele>
        <time>2018-12-18T10:05:04Z</time>
      </trkpt>
      <trkpt lat="48.70005" lon="1.69953">
        <ele>177</ele>
        <time>2018-12-18T10:05:12Z</time>
      </trkpt>
      <trkpt lat="48.70008" lon="1.69958">
        <ele>177</ele>
        <time>2018-12-18T10:05:16Z</time>
      </trkpt>
      <trkpt lat="48.70012" lon="1.69964">
        <ele>177</ele>
        <time>2018-12-18T10:05:20Z</time>
      </trkpt>
      <trkpt lat="48.70019" lon="1.6997">
        <ele>177</ele>
        <time>2018-12-18T10:05:24Z</time>
      </trkpt>
      <trkpt lat="48.70023" lon="1.69978">
        <ele>178</ele>
        <time>2018-12-18T10:05:28Z</time>
      </trkpt>
      <trkpt lat="48.70027" lon="1.69985">
        <ele>178</ele>
        <time>2018-12-18T10:05:32Z</time>
      </trkpt>
      <trkpt lat="48.70032" lon="1.69991">
        <ele>178</ele>
        <time>2018-12-18T10:05:38Z</time>
      </trkpt>
      <trkpt lat="48.70037" lon="1.69995">
        <ele>178</ele>
        <time>2018-12-18T10:05:42Z</time>
      </trkpt>
      <trkpt lat="48.7004" lon="1.70001">
        <ele>179</ele>
        <time>2018-12-18T10:05:48Z</time>
      </trkpt>
      <trkpt lat="48.70046" lon="1.70002">
        <ele>179</ele>
        <time>2018-12-18T10:05:58Z</time>
      </trkpt>
      <trkpt lat="48.70051" lon="1.70002">
        <ele>179</ele>
        <time>2018-12-18T10:06:08Z</time>
      </trkpt>
      <trkpt lat="48.70052" lon="1.70009">
        <ele>180</ele>
        <time>2018-12-18T10:06:14Z</time>
      </trkpt>
      <trkpt lat="48.70054" lon="1.70018">
        <ele>180</ele>
        <time>2018-12-18T10:06:20Z</time>
      </trkpt>
      <trkpt lat="48.70057" lon="1.70026">
        <ele>180</ele>
        <time>2018-12-18T10:06:26Z</time>
      </trkpt>
      <trkpt lat="48.70058" lon="1.70034">
        <ele>180</ele>
        <time>2018-12-18T10:06:32Z</time>
      </trkpt>
      <trkpt lat="48.70062" lon="1.70041">
        <ele>180</ele>
        <time>2018-12-18T10:06:42Z</time>
      </trkpt>
      <trkpt lat="48.70066" lon="1.70046">
        <ele>180</ele>
        <time>2018-12-18T10:06:46Z</time>
      </trkpt>
      <trkpt lat="48.70069" lon="1.70052">
        <ele>180</ele>
        <time>2018-12-18T10:06:50Z</time>
      </trkpt>
      <trkpt lat="48.70073" lon="1.70057">
        <ele>180</ele>
        <time>2018-12-18T10:06:54Z</time>
      </trkpt>
      <trkpt lat="48.70076" lon="1.70062">
        <ele>180</ele>
        <time>2018-12-18T10:06:58Z</time>
      </trkpt>
      <trkpt lat="48.70081" lon="1.7007">
        <ele>180</ele>
        <time>2018-12-18T10:07:02Z</time>
      </trkpt>
      <trkpt lat="48.70085" lon="1.70075">
        <ele>181</ele>
        <time>2018-12-18T10:07:06Z</time>
      </trkpt>
      <trkpt lat="48.7009" lon="1.70078">
        <ele>181</ele>
        <time>2018-12-18T10:07:10Z</time>
      </trkpt>
      <trkpt lat="48.70096" lon="1.70082">
        <ele>181</ele>
        <time>2018-12-18T10:07:14Z</time>
      </trkpt>
      <trkpt lat="48.70098" lon="1.70089">
        <ele>181</ele>
        <time>2018-12-18T10:07:18Z</time>
      </trkpt>
      <trkpt lat="48.70102" lon="1.70093">
        <ele>181</ele>
        <time>2018-12-18T10:07:22Z</time>
      </trkpt>
      <trkpt lat="48.70105" lon="1.70099">
        <ele>181</ele>
        <time>2018-12-18T10:07:30Z</time>
      </trkpt>
      <trkpt lat="48.70109" lon="1.70107">
        <ele>180</ele>
        <time>2018-12-18T10:07:36Z</time>
      </trkpt>
      <trkpt lat="48.70112" lon="1.70112">
        <ele>180</ele>
        <time>2018-12-18T10:07:40Z</time>
      </trkpt>
      <trkpt lat="48.70116" lon="1.7012">
        <ele>180</ele>
        <time>2018-12-18T10:07:48Z</time>
      </trkpt>
      <trkpt lat="48.70117" lon="1.70128">
        <ele>180</ele>
        <time>2018-12-18T10:07:54Z</time>
      </trkpt>
      <trkpt lat="48.70118" lon="1.70136">
        <ele>180</ele>
        <time>2018-12-18T10:08:00Z</time>
      </trkpt>
      <trkpt lat="48.70121" lon="1.70141">
        <ele>180</ele>
        <time>2018-12-18T10:08:06Z</time>
      </trkpt>
      <trkpt lat="48.70124" lon="1.70147">
        <ele>180</ele>
        <time>2018-12-18T10:08:10Z</time>
      </trkpt>
      <trkpt lat="48.70128" lon="1.7015">
        <ele>180</ele>
        <time>2018-12-18T10:08:12Z</time>
      </trkpt>
      <trkpt lat="48.70132" lon="1.70156">
        <ele>180</ele>
        <time>2018-12-18T10:08:16Z</time>
      </trkpt>
      <trkpt lat="48.70135" lon="1.70163">
        <ele>180</ele>
        <time>2018-12-18T10:08:20Z</time>
      </trkpt>
      <trkpt lat="48.70136" lon="1.70171">
        <ele>178</ele>
        <time>2018-12-18T10:08:24Z</time>
      </trkpt>
      <trkpt lat="48.7014" lon="1.70178">
        <ele>178</ele>
        <time>2018-12-18T10:08:28Z</time>
      </trkpt>
      <trkpt lat="48.7014" lon="1.70187">
        <ele>178</ele>
        <time>2018-12-18T10:08:34Z</time>
      </trkpt>
      <trkpt lat="48.70143" lon="1.70193">
        <ele>178</ele>
        <time>2018-12-18T10:08:38Z</time>
      </trkpt>
      <trkpt lat="48.70148" lon="1.70201">
        <ele>178</ele>
        <time>2018-12-18T10:08:42Z</time>
      </trkpt>
      <trkpt lat="48.70151" lon="1.70211">
        <ele>178</ele>
        <time>2018-12-18T10:08:44Z</time>
      </trkpt>
      <trkpt lat="48.70157" lon="1.70217">
        <ele>178</ele>
        <time>2018-12-18T10:08:46Z</time>
      </trkpt>
      <trkpt lat="48.70163" lon="1.70225">
        <ele>177</ele>
        <time>2018-12-18T10:08:50Z</time>
      </trkpt>
      <trkpt lat="48.70164" lon="1.70233">
        <ele>177</ele>
        <time>2018-12-18T10:08:56Z</time>
      </trkpt>
      <trkpt lat="48.70166" lon="1.70242">
        <ele>177</ele>
        <time>2018-12-18T10:09:02Z</time>
      </trkpt>
      <trkpt lat="48.70168" lon="1.70251">
        <ele>177</ele>
        <time>2018-12-18T10:09:10Z</time>
      </trkpt>
      <trkpt lat="48.70172" lon="1.70259">
        <ele>178</ele>
        <time>2018-12-18T10:09:16Z</time>
      </trkpt>
      <trkpt lat="48.70175" lon="1.70267">
        <ele>179</ele>
        <time>2018-12-18T10:09:20Z</time>
      </trkpt>
      <trkpt lat="48.70176" lon="1.70274">
        <ele>179</ele>
        <time>2018-12-18T10:09:24Z</time>
      </trkpt>
      <trkpt lat="48.7018" lon="1.70279">
        <ele>179</ele>
        <time>2018-12-18T10:09:28Z</time>
      </trkpt>
      <trkpt lat="48.70182" lon="1.70286">
        <ele>179</ele>
        <time>2018-12-18T10:09:34Z</time>
      </trkpt>
      <trkpt lat="48.70185" lon="1.70294">
        <ele>180</ele>
        <time>2018-12-18T10:09:40Z</time>
      </trkpt>
      <trkpt lat="48.70187" lon="1.70301">
        <ele>180</ele>
        <time>2018-12-18T10:09:46Z</time>
      </trkpt>
      <trkpt lat="48.70191" lon="1.70306">
        <ele>180</ele>
        <time>2018-12-18T10:09:52Z</time>
      </trkpt>
      <trkpt lat="48.70193" lon="1.70312">
        <ele>180</ele>
        <time>2018-12-18T10:09:56Z</time>
      </trkpt>
      <trkpt lat="48.70196" lon="1.70319">
        <ele>180</ele>
        <time>2018-12-18T10:10:02Z</time>
      </trkpt>
      <trkpt lat="48.70196" lon="1.70329">
        <ele>180</ele>
        <time>2018-12-18T10:10:10Z</time>
      </trkpt>
      <trkpt lat="48.70198" lon="1.70336">
        <ele>180</ele>
        <time>2018-12-18T10:10:14Z</time>
      </trkpt>
      <trkpt lat="48.70201" lon="1.70344">
        <ele>181</ele>
        <time>2018-12-18T10:10:18Z</time>
      </trkpt>
      <trkpt lat="48.70203" lon="1.70351">
        <ele>181</ele>
        <time>2018-12-18T10:10:22Z</time>
      </trkpt>
      <trkpt lat="48.70202" lon="1.70358">
        <ele>181</ele>
        <time>2018-12-18T10:10:26Z</time>
      </trkpt>
      <trkpt lat="48.70203" lon="1.70368">
        <ele>181</ele>
        <time>2018-12-18T10:10:30Z</time>
      </trkpt>
      <trkpt lat="48.70203" lon="1.70374">
        <ele>181</ele>
        <time>2018-12-18T10:10:34Z</time>
      </trkpt>
      <trkpt lat="48.70202" lon="1.70384">
        <ele>181</ele>
        <time>2018-12-18T10:10:38Z</time>
      </trkpt>
      <trkpt lat="48.70201" lon="1.70392">
        <ele>181</ele>
        <time>2018-12-18T10:10:42Z</time>
      </trkpt>
      <trkpt lat="48.70199" lon="1.70402">
        <ele>181</ele>
        <time>2018-12-18T10:10:46Z</time>
      </trkpt>
      <trkpt lat="48.70197" lon="1.7041">
        <ele>181</ele>
        <time>2018-12-18T10:10:50Z</time>
      </trkpt>
      <trkpt lat="48.70195" lon="1.70418">
        <ele>180</ele>
        <time>2018-12-18T10:10:54Z</time>
      </trkpt>
      <trkpt lat="48.70193" lon="1.70429">
        <ele>180</ele>
        <time>2018-12-18T10:10:58Z</time>
      </trkpt>
      <trkpt lat="48.70191" lon="1.70439">
        <ele>180</ele>
        <time>2018-12-18T10:11:02Z</time>
      </trkpt>
      <trkpt lat="48.70191" lon="1.70448">
        <ele>180</ele>
        <time>2018-12-18T10:11:06Z</time>
      </trkpt>
      <trkpt lat="48.70189" lon="1.70455">
        <ele>180</ele>
        <time>2018-12-18T10:11:10Z</time>
      </trkpt>
      <trkpt lat="48.70188" lon="1.70464">
        <ele>180</ele>
        <time>2018-12-18T10:11:14Z</time>
      </trkpt>
      <trkpt lat="48.70186" lon="1.70473">
        <ele>180</ele>
        <time>2018-12-18T10:11:18Z</time>
      </trkpt>
      <trkpt lat="48.70184" lon="1.70479">
        <ele>180</ele>
        <time>2018-12-18T10:11:22Z</time>
      </trkpt>
      <trkpt lat="48.70182" lon="1.70488">
        <ele>179</ele>
        <time>2018-12-18T10:11:26Z</time>
      </trkpt>
      <trkpt lat="48.7018" lon="1.70499">
        <ele>179</ele>
        <time>2018-12-18T10:11:30Z</time>
      </trkpt>
      <trkpt lat="48.70176" lon="1.70507">
        <ele>178</ele>
        <time>2018-12-18T10:11:34Z</time>
      </trkpt>
      <trkpt lat="48.70172" lon="1.70516">
        <ele>179</ele>
        <time>2018-12-18T10:11:38Z</time>
      </trkpt>
      <trkpt lat="48.7017" lon="1.70523">
        <ele>179</ele>
        <time>2018-12-18T10:11:42Z</time>
      </trkpt>
      <trkpt lat="48.70168" lon="1.70532">
        <ele>179</ele>
        <time>2018-12-18T10:11:46Z</time>
      </trkpt>
      <trkpt lat="48.70164" lon="1.70541">
        <ele>177</ele>
        <time>2018-12-18T10:11:50Z</time>
      </trkpt>
      <trkpt lat="48.70162" lon="1.70549">
        <ele>177</ele>
        <time>2018-12-18T10:11:54Z</time>
      </trkpt>
      <trkpt lat="48.70159" lon="1.70558">
        <ele>177</ele>
        <time>2018-12-18T10:11:58Z</time>
      </trkpt>
      <trkpt lat="48.70157" lon="1.70566">
        <ele>177</ele>
        <time>2018-12-18T10:12:02Z</time>
      </trkpt>
      <trkpt lat="48.70154" lon="1.70573">
        <ele>177</ele>
        <time>2018-12-18T10:12:06Z</time>
      </trkpt>
      <trkpt lat="48.70152" lon="1.70582">
        <ele>177</ele>
        <time>2018-12-18T10:12:10Z</time>
      </trkpt>
      <trkpt lat="48.70151" lon="1.70591">
        <ele>177</ele>
        <time>2018-12-18T10:12:14Z</time>
      </trkpt>
      <trkpt lat="48.70148" lon="1.70602">
        <ele>177</ele>
        <time>2018-12-18T10:12:18Z</time>
      </trkpt>
      <trkpt lat="48.70145" lon="1.70611">
        <ele>177</ele>
        <time>2018-12-18T10:12:22Z</time>
      </trkpt>
      <trkpt lat="48.70141" lon="1.70618">
        <ele>177</ele>
        <time>2018-12-18T10:12:28Z</time>
      </trkpt>
      <trkpt lat="48.70139" lon="1.70626">
        <ele>177</ele>
        <time>2018-12-18T10:12:34Z</time>
      </trkpt>
      <trkpt lat="48.70135" lon="1.70636">
        <ele>177</ele>
        <time>2018-12-18T10:12:38Z</time>
      </trkpt>
      <trkpt lat="48.70131" lon="1.70646">
        <ele>177</ele>
        <time>2018-12-18T10:12:42Z</time>
      </trkpt>
      <trkpt lat="48.70128" lon="1.70654">
        <ele>177</ele>
        <time>2018-12-18T10:12:46Z</time>
      </trkpt>
      <trkpt lat="48.70126" lon="1.70663">
        <ele>177</ele>
        <time>2018-12-18T10:12:50Z</time>
      </trkpt>
      <trkpt lat="48.70125" lon="1.70671">
        <ele>178</ele>
        <time>2018-12-18T10:12:54Z</time>
      </trkpt>
      <trkpt lat="48.70122" lon="1.7068">
        <ele>178</ele>
        <time>2018-12-18T10:12:58Z</time>
      </trkpt>
      <trkpt lat="48.70122" lon="1.70687">
        <ele>178</ele>
        <time>2018-12-18T10:13:02Z</time>
      </trkpt>
      <trkpt lat="48.70123" lon="1.70697">
        <ele>178</ele>
        <time>2018-12-18T10:13:06Z</time>
      </trkpt>
      <trkpt lat="48.70121" lon="1.70703">
        <ele>178</ele>
        <time>2018-12-18T10:13:08Z</time>
      </trkpt>
      <trkpt lat="48.70119" lon="1.70709">
        <ele>178</ele>
        <time>2018-12-18T10:13:12Z</time>
      </trkpt>
      <trkpt lat="48.70118" lon="1.70716">
        <ele>178</ele>
        <time>2018-12-18T10:13:16Z</time>
      </trkpt>
      <trkpt lat="48.70114" lon="1.70723">
        <ele>178</ele>
        <time>2018-12-18T10:13:20Z</time>
      </trkpt>
      <trkpt lat="48.70109" lon="1.70734">
        <ele>178</ele>
        <time>2018-12-18T10:13:26Z</time>
      </trkpt>
      <trkpt lat="48.70107" lon="1.70742">
        <ele>178</ele>
        <time>2018-12-18T10:13:30Z</time>
      </trkpt>
      <trkpt lat="48.70103" lon="1.70751">
        <ele>179</ele>
        <time>2018-12-18T10:13:34Z</time>
      </trkpt>
      <trkpt lat="48.70101" lon="1.70759">
        <ele>179</ele>
        <time>2018-12-18T10:13:38Z</time>
      </trkpt>
      <trkpt lat="48.70098" lon="1.70767">
        <ele>179</ele>
        <time>2018-12-18T10:13:42Z</time>
      </trkpt>
      <trkpt lat="48.70096" lon="1.70775">
        <ele>179</ele>
        <time>2018-12-18T10:13:46Z</time>
      </trkpt>
      <trkpt lat="48.70094" lon="1.70784">
        <ele>179</ele>
        <time>2018-12-18T10:13:52Z</time>
      </trkpt>
      <trkpt lat="48.70093" lon="1.7079">
        <ele>179</ele>
        <time>2018-12-18T10:13:56Z</time>
      </trkpt>
      <trkpt lat="48.7009" lon="1.70799">
        <ele>179</ele>
        <time>2018-12-18T10:14:00Z</time>
      </trkpt>
      <trkpt lat="48.70088" lon="1.70805">
        <ele>179</ele>
        <time>2018-12-18T10:14:04Z</time>
      </trkpt>
      <trkpt lat="48.70085" lon="1.70814">
        <ele>179</ele>
        <time>2018-12-18T10:14:08Z</time>
      </trkpt>
      <trkpt lat="48.70082" lon="1.70821">
        <ele>178</ele>
        <time>2018-12-18T10:14:12Z</time>
      </trkpt>
      <trkpt lat="48.70083" lon="1.70829">
        <ele>178</ele>
        <time>2018-12-18T10:14:18Z</time>
      </trkpt>
      <trkpt lat="48.70081" lon="1.70837">
        <ele>178</ele>
        <time>2018-12-18T10:14:22Z</time>
      </trkpt>
      <trkpt lat="48.70078" lon="1.70846">
        <ele>178</ele>
        <time>2018-12-18T10:14:28Z</time>
      </trkpt>
      <trkpt lat="48.70074" lon="1.70855">
        <ele>178</ele>
        <time>2018-12-18T10:14:32Z</time>
      </trkpt>
      <trkpt lat="48.7007" lon="1.70865">
        <ele>178</ele>
        <time>2018-12-18T10:14:36Z</time>
      </trkpt>
      <trkpt lat="48.70068" lon="1.70873">
        <ele>178</ele>
        <time>2018-12-18T10:14:40Z</time>
      </trkpt>
      <trkpt lat="48.70065" lon="1.70883">
        <ele>177</ele>
        <time>2018-12-18T10:14:44Z</time>
      </trkpt>
      <trkpt lat="48.70062" lon="1.70892">
        <ele>177</ele>
        <time>2018-12-18T10:14:48Z</time>
      </trkpt>
      <trkpt lat="48.70059" lon="1.70901">
        <ele>177</ele>
        <time>2018-12-18T10:14:52Z</time>
      </trkpt>
      <trkpt lat="48.70055" lon="1.70909">
        <ele>177</ele>
        <time>2018-12-18T10:14:56Z</time>
      </trkpt>
      <trkpt lat="48.70051" lon="1.70918">
        <ele>177</ele>
        <time>2018-12-18T10:15:00Z</time>
      </trkpt>
      <trkpt lat="48.70049" lon="1.70927">
        <ele>177</ele>
        <time>2018-12-18T10:15:04Z</time>
      </trkpt>
      <trkpt lat="48.7005" lon="1.70934">
        <ele>177</ele>
        <time>2018-12-18T10:15:08Z</time>
      </trkpt>
      <trkpt lat="48.70048" lon="1.70945">
        <ele>177</ele>
        <time>2018-12-18T10:15:12Z</time>
      </trkpt>
      <trkpt lat="48.70043" lon="1.70948">
        <ele>177</ele>
        <time>2018-12-18T10:15:18Z</time>
      </trkpt>
      <trkpt lat="48.70036" lon="1.70949">
        <ele>177</ele>
        <time>2018-12-18T10:15:24Z</time>
      </trkpt>
      <trkpt lat="48.70031" lon="1.70944">
        <ele>177</ele>
        <time>2018-12-18T10:15:28Z</time>
      </trkpt>
      <trkpt lat="48.70024" lon="1.70941">
        <ele>177</ele>
        <time>2018-12-18T10:15:32Z</time>
      </trkpt>
      <trkpt lat="48.70013" lon="1.70941">
        <ele>177</ele>
        <time>2018-12-18T10:15:36Z</time>
      </trkpt>
      <trkpt lat="48.70008" lon="1.70939">
        <ele>178</ele>
        <time>2018-12-18T10:15:40Z</time>
      </trkpt>
      <trkpt lat="48.70001" lon="1.70938">
        <ele>178</ele>
        <time>2018-12-18T10:15:44Z</time>
      </trkpt>
      <trkpt lat="48.69996" lon="1.70935">
        <ele>178</ele>
        <time>2018-12-18T10:15:48Z</time>
      </trkpt>
      <trkpt lat="48.69991" lon="1.70934">
        <ele>178</ele>
        <time>2018-12-18T10:15:52Z</time>
      </trkpt>
      <trkpt lat="48.69986" lon="1.70934">
        <ele>178</ele>
        <time>2018-12-18T10:15:54Z</time>
      </trkpt>
      <trkpt lat="48.69978" lon="1.70932">
        <ele>178</ele>
        <time>2018-12-18T10:15:58Z</time>
      </trkpt>
      <trkpt lat="48.69974" lon="1.70931">
        <ele>177</ele>
        <time>2018-12-18T10:16:02Z</time>
      </trkpt>
      <trkpt lat="48.69965" lon="1.70926">
        <ele>177</ele>
        <time>2018-12-18T10:16:08Z</time>
      </trkpt>
      <trkpt lat="48.6996" lon="1.70923">
        <ele>177</ele>
        <time>2018-12-18T10:16:12Z</time>
      </trkpt>
      <trkpt lat="48.69954" lon="1.70919">
        <ele>177</ele>
        <time>2018-12-18T10:16:18Z</time>
      </trkpt>
      <trkpt lat="48.69947" lon="1.70917">
        <ele>177</ele>
        <time>2018-12-18T10:16:24Z</time>
      </trkpt>
      <trkpt lat="48.69941" lon="1.70915">
        <ele>178</ele>
        <time>2018-12-18T10:16:28Z</time>
      </trkpt>
      <trkpt lat="48.69934" lon="1.70912">
        <ele>177</ele>
        <time>2018-12-18T10:16:32Z</time>
      </trkpt>
      <trkpt lat="48.69928" lon="1.70912">
        <ele>177</ele>
        <time>2018-12-18T10:16:36Z</time>
      </trkpt>
      <trkpt lat="48.69921" lon="1.70909">
        <ele>177</ele>
        <time>2018-12-18T10:16:40Z</time>
      </trkpt>
      <trkpt lat="48.69916" lon="1.70908">
        <ele>176</ele>
        <time>2018-12-18T10:16:44Z</time>
      </trkpt>
      <trkpt lat="48.69911" lon="1.70905">
        <ele>176</ele>
        <time>2018-12-18T10:16:50Z</time>
      </trkpt>
      <trkpt lat="48.69907" lon="1.70903">
        <ele>176</ele>
        <time>2018-12-18T10:16:54Z</time>
      </trkpt>
      <trkpt lat="48.69901" lon="1.709">
        <ele>176</ele>
        <time>2018-12-18T10:16:58Z</time>
      </trkpt>
      <trkpt lat="48.69896" lon="1.70896">
        <ele>175</ele>
        <time>2018-12-18T10:17:02Z</time>
      </trkpt>
      <trkpt lat="48.69891" lon="1.70894">
        <ele>175</ele>
        <time>2018-12-18T10:17:08Z</time>
      </trkpt>
      <trkpt lat="48.69886" lon="1.70892">
        <ele>175</ele>
        <time>2018-12-18T10:17:12Z</time>
      </trkpt>
      <trkpt lat="48.69879" lon="1.70893">
        <ele>175</ele>
        <time>2018-12-18T10:17:16Z</time>
      </trkpt>
      <trkpt lat="48.69875" lon="1.70888">
        <ele>175</ele>
        <time>2018-12-18T10:17:20Z</time>
      </trkpt>
      <trkpt lat="48.69869" lon="1.70887">
        <ele>175</ele>
        <time>2018-12-18T10:17:24Z</time>
      </trkpt>
      <trkpt lat="48.69861" lon="1.70884">
        <ele>174</ele>
        <time>2018-12-18T10:17:28Z</time>
      </trkpt>
      <trkpt lat="48.69856" lon="1.70879">
        <ele>174</ele>
        <time>2018-12-18T10:17:32Z</time>
      </trkpt>
      <trkpt lat="48.6985" lon="1.70878">
        <ele>174</ele>
        <time>2018-12-18T10:17:36Z</time>
      </trkpt>
      <trkpt lat="48.69843" lon="1.70876">
        <ele>174</ele>
        <time>2018-12-18T10:17:40Z</time>
      </trkpt>
      <trkpt lat="48.69837" lon="1.70874">
        <ele>174</ele>
        <time>2018-12-18T10:17:46Z</time>
      </trkpt>
      <trkpt lat="48.69833" lon="1.70871">
        <ele>171</ele>
        <time>2018-12-18T10:17:50Z</time>
      </trkpt>
      <trkpt lat="48.69827" lon="1.70866">
        <ele>171</ele>
        <time>2018-12-18T10:17:56Z</time>
      </trkpt>
      <trkpt lat="48.69823" lon="1.70862">
        <ele>171</ele>
        <time>2018-12-18T10:18:00Z</time>
      </trkpt>
      <trkpt lat="48.69817" lon="1.70861">
        <ele>171</ele>
        <time>2018-12-18T10:18:04Z</time>
      </trkpt>
      <trkpt lat="48.6981" lon="1.7086">
        <ele>171</ele>
        <time>2018-12-18T10:18:08Z</time>
      </trkpt>
      <trkpt lat="48.69805" lon="1.70858">
        <ele>171</ele>
        <time>2018-12-18T10:18:12Z</time>
      </trkpt>
      <trkpt lat="48.69799" lon="1.70856">
        <ele>171</ele>
        <time>2018-12-18T10:18:16Z</time>
      </trkpt>
      <trkpt lat="48.69793" lon="1.70854">
        <ele>171</ele>
        <time>2018-12-18T10:18:20Z</time>
      </trkpt>
      <trkpt lat="48.69787" lon="1.7085">
        <ele>171</ele>
        <time>2018-12-18T10:18:24Z</time>
      </trkpt>
      <trkpt lat="48.6978" lon="1.70849">
        <ele>171</ele>
        <time>2018-12-18T10:18:28Z</time>
      </trkpt>
      <trkpt lat="48.69774" lon="1.70846">
        <ele>170</ele>
        <time>2018-12-18T10:18:32Z</time>
      </trkpt>
      <trkpt lat="48.69768" lon="1.70843">
        <ele>170</ele>
        <time>2018-12-18T10:18:36Z</time>
      </trkpt>
      <trkpt lat="48.69762" lon="1.70842">
        <ele>170</ele>
        <time>2018-12-18T10:18:40Z</time>
      </trkpt>
      <trkpt lat="48.69756" lon="1.70839">
        <ele>170</ele>
        <time>2018-12-18T10:18:44Z</time>
      </trkpt>
      <trkpt lat="48.69748" lon="1.70838">
        <ele>170</ele>
        <time>2018-12-18T10:18:48Z</time>
      </trkpt>
      <trkpt lat="48.69742" lon="1.70836">
        <ele>170</ele>
        <time>2018-12-18T10:18:52Z</time>
      </trkpt>
      <trkpt lat="48.69737" lon="1.70837">
        <ele>170</ele>
        <time>2018-12-18T10:18:56Z</time>
      </trkpt>
      <trkpt lat="48.6973" lon="1.70833">
        <ele>170</ele>
        <time>2018-12-18T10:19:02Z</time>
      </trkpt>
      <trkpt lat="48.69723" lon="1.70831">
        <ele>170</ele>
        <time>2018-12-18T10:19:08Z</time>
      </trkpt>
      <trkpt lat="48.69718" lon="1.70829">
        <ele>171</ele>
        <time>2018-12-18T10:19:12Z</time>
      </trkpt>
      <trkpt lat="48.69713" lon="1.70826">
        <ele>171</ele>
        <time>2018-12-18T10:19:16Z</time>
      </trkpt>
      <trkpt lat="48.69707" lon="1.70823">
        <ele>171</ele>
        <time>2018-12-18T10:19:20Z</time>
      </trkpt>
      <trkpt lat="48.69702" lon="1.70823">
        <ele>171</ele>
        <time>2018-12-18T10:19:24Z</time>
      </trkpt>
      <trkpt lat="48.69694" lon="1.70819">
        <ele>171</ele>
        <time>2018-12-18T10:19:30Z</time>
      </trkpt>
      <trkpt lat="48.69689" lon="1.70817">
        <ele>171</ele>
        <time>2018-12-18T10:19:32Z</time>
      </trkpt>
      <trkpt lat="48.69684" lon="1.70815">
        <ele>171</ele>
        <time>2018-12-18T10:19:34Z</time>
      </trkpt>
      <trkpt lat="48.69677" lon="1.70813">
        <ele>171</ele>
        <time>2018-12-18T10:19:38Z</time>
      </trkpt>
      <trkpt lat="48.69672" lon="1.70809">
        <ele>171</ele>
        <time>2018-12-18T10:19:44Z</time>
      </trkpt>
      <trkpt lat="48.69666" lon="1.70806">
        <ele>172</ele>
        <time>2018-12-18T10:19:48Z</time>
      </trkpt>
      <trkpt lat="48.69662" lon="1.70804">
        <ele>172</ele>
        <time>2018-12-18T10:19:50Z</time>
      </trkpt>
      <trkpt lat="48.69655" lon="1.70803">
        <ele>172</ele>
        <time>2018-12-18T10:19:56Z</time>
      </trkpt>
      <trkpt lat="48.6965" lon="1.70801">
        <ele>172</ele>
        <time>2018-12-18T10:19:58Z</time>
      </trkpt>
      <trkpt lat="48.69643" lon="1.70796">
        <ele>172</ele>
        <time>2018-12-18T10:20:02Z</time>
      </trkpt>
      <trkpt lat="48.69637" lon="1.70794">
        <ele>173</ele>
        <time>2018-12-18T10:20:06Z</time>
      </trkpt>
      <trkpt lat="48.6963" lon="1.70791">
        <ele>173</ele>
        <time>2018-12-18T10:20:10Z</time>
      </trkpt>
      <trkpt lat="48.69617" lon="1.70785">
        <ele>173</ele>
        <time>2018-12-18T10:20:14Z</time>
      </trkpt>
      <trkpt lat="48.69612" lon="1.70782">
        <ele>173</ele>
        <time>2018-12-18T10:20:16Z</time>
      </trkpt>
      <trkpt lat="48.69606" lon="1.7078">
        <ele>173</ele>
        <time>2018-12-18T10:20:22Z</time>
      </trkpt>
      <trkpt lat="48.69599" lon="1.70778">
        <ele>173</ele>
        <time>2018-12-18T10:20:26Z</time>
      </trkpt>
      <trkpt lat="48.69593" lon="1.70776">
        <ele>173</ele>
        <time>2018-12-18T10:20:32Z</time>
      </trkpt>
      <trkpt lat="48.69587" lon="1.70773">
        <ele>173</ele>
        <time>2018-12-18T10:20:36Z</time>
      </trkpt>
      <trkpt lat="48.69582" lon="1.70771">
        <ele>174</ele>
        <time>2018-12-18T10:20:40Z</time>
      </trkpt>
      <trkpt lat="48.69576" lon="1.70767">
        <ele>174</ele>
        <time>2018-12-18T10:20:44Z</time>
      </trkpt>
      <trkpt lat="48.69569" lon="1.70769">
        <ele>174</ele>
        <time>2018-12-18T10:20:48Z</time>
      </trkpt>
      <trkpt lat="48.69565" lon="1.70766">
        <ele>174</ele>
        <time>2018-12-18T10:20:52Z</time>
      </trkpt>
      <trkpt lat="48.69558" lon="1.70764">
        <ele>175</ele>
        <time>2018-12-18T10:20:56Z</time>
      </trkpt>
      <trkpt lat="48.6955" lon="1.70759">
        <ele>175</ele>
        <time>2018-12-18T10:21:00Z</time>
      </trkpt>
      <trkpt lat="48.69543" lon="1.70758">
        <ele>175</ele>
        <time>2018-12-18T10:21:04Z</time>
      </trkpt>
      <trkpt lat="48.69538" lon="1.70757">
        <ele>175</ele>
        <time>2018-12-18T10:21:08Z</time>
      </trkpt>
      <trkpt lat="48.69532" lon="1.70757">
        <ele>175</ele>
        <time>2018-12-18T10:21:14Z</time>
      </trkpt>
      <trkpt lat="48.69526" lon="1.70755">
        <ele>175</ele>
        <time>2018-12-18T10:21:20Z</time>
      </trkpt>
      <trkpt lat="48.69519" lon="1.70756">
        <ele>175</ele>
        <time>2018-12-18T10:21:24Z</time>
      </trkpt>
      <trkpt lat="48.69515" lon="1.70754">
        <ele>175</ele>
        <time>2018-12-18T10:21:26Z</time>
      </trkpt>
      <trkpt lat="48.6951" lon="1.70752">
        <ele>175</ele>
        <time>2018-12-18T10:21:30Z</time>
      </trkpt>
      <trkpt lat="48.69504" lon="1.70748">
        <ele>175</ele>
        <time>2018-12-18T10:21:34Z</time>
      </trkpt>
      <trkpt lat="48.69499" lon="1.70745">
        <ele>175</ele>
        <time>2018-12-18T10:21:38Z</time>
      </trkpt>
      <trkpt lat="48.69493" lon="1.70741">
        <ele>174</ele>
        <time>2018-12-18T10:21:44Z</time>
      </trkpt>
      <trkpt lat="48.69487" lon="1.70739">
        <ele>174</ele>
        <time>2018-12-18T10:21:50Z</time>
      </trkpt>
      <trkpt lat="48.69483" lon="1.70735">
        <ele>174</ele>
        <time>2018-12-18T10:21:54Z</time>
      </trkpt>
      <trkpt lat="48.69476" lon="1.70736">
        <ele>174</ele>
        <time>2018-12-18T10:21:58Z</time>
      </trkpt>
      <trkpt lat="48.6947" lon="1.70733">
        <ele>174</ele>
        <time>2018-12-18T10:22:00Z</time>
      </trkpt>
      <trkpt lat="48.69463" lon="1.70733">
        <ele>173</ele>
        <time>2018-12-18T10:22:04Z</time>
      </trkpt>
      <trkpt lat="48.69459" lon="1.7073">
        <ele>173</ele>
        <time>2018-12-18T10:22:08Z</time>
      </trkpt>
      <trkpt lat="48.69451" lon="1.70727">
        <ele>173</ele>
        <time>2018-12-18T10:22:12Z</time>
      </trkpt>
      <trkpt lat="48.69445" lon="1.70725">
        <ele>173</ele>
        <time>2018-12-18T10:22:14Z</time>
      </trkpt>
      <trkpt lat="48.69437" lon="1.70724">
        <ele>173</ele>
        <time>2018-12-18T10:22:18Z</time>
      </trkpt>
      <trkpt lat="48.69432" lon="1.70723">
        <ele>173</ele>
        <time>2018-12-18T10:22:22Z</time>
      </trkpt>
      <trkpt lat="48.69427" lon="1.70722">
        <ele>173</ele>
        <time>2018-12-18T10:22:26Z</time>
      </trkpt>
      <trkpt lat="48.69421" lon="1.7072">
        <ele>173</ele>
        <time>2018-12-18T10:22:30Z</time>
      </trkpt>
      <trkpt lat="48.69415" lon="1.70718">
        <ele>173</ele>
        <time>2018-12-18T10:22:34Z</time>
      </trkpt>
      <trkpt lat="48.69411" lon="1.70718">
        <ele>173</ele>
        <time>2018-12-18T10:22:38Z</time>
      </trkpt>
      <trkpt lat="48.69404" lon="1.70716">
        <ele>173</ele>
        <time>2018-12-18T10:22:42Z</time>
      </trkpt>
      <trkpt lat="48.69399" lon="1.70712">
        <ele>173</ele>
        <time>2018-12-18T10:22:46Z</time>
      </trkpt>
      <trkpt lat="48.69393" lon="1.70709">
        <ele>173</ele>
        <time>2018-12-18T10:22:52Z</time>
      </trkpt>
      <trkpt lat="48.69386" lon="1.70707">
        <ele>173</ele>
        <time>2018-12-18T10:22:58Z</time>
      </trkpt>
      <trkpt lat="48.69378" lon="1.70706">
        <ele>173</ele>
        <time>2018-12-18T10:23:04Z</time>
      </trkpt>
      <trkpt lat="48.69374" lon="1.70703">
        <ele>173</ele>
        <time>2018-12-18T10:23:10Z</time>
      </trkpt>
      <trkpt lat="48.69369" lon="1.70701">
        <ele>173</ele>
        <time>2018-12-18T10:23:14Z</time>
      </trkpt>
      <trkpt lat="48.69362" lon="1.70697">
        <ele>173</ele>
        <time>2018-12-18T10:23:18Z</time>
      </trkpt>
      <trkpt lat="48.69357" lon="1.70699">
        <ele>173</ele>
        <time>2018-12-18T10:23:22Z</time>
      </trkpt>
      <trkpt lat="48.69352" lon="1.70697">
        <ele>173</ele>
        <time>2018-12-18T10:23:26Z</time>
      </trkpt>
      <trkpt lat="48.69346" lon="1.70692">
        <ele>173</ele>
        <time>2018-12-18T10:23:30Z</time>
      </trkpt>
      <trkpt lat="48.69341" lon="1.70689">
        <ele>173</ele>
        <time>2018-12-18T10:23:32Z</time>
      </trkpt>
      <trkpt lat="48.69336" lon="1.70688">
        <ele>173</ele>
        <time>2018-12-18T10:23:36Z</time>
      </trkpt>
      <trkpt lat="48.69329" lon="1.70689">
        <ele>173</ele>
        <time>2018-12-18T10:23:40Z</time>
      </trkpt>
      <trkpt lat="48.69324" lon="1.70691">
        <ele>173</ele>
        <time>2018-12-18T10:23:44Z</time>
      </trkpt>
      <trkpt lat="48.69316" lon="1.7069">
        <ele>173</ele>
        <time>2018-12-18T10:23:50Z</time>
      </trkpt>
      <trkpt lat="48.69311" lon="1.70687">
        <ele>173</ele>
        <time>2018-12-18T10:23:54Z</time>
      </trkpt>
      <trkpt lat="48.69305" lon="1.70684">
        <ele>173</ele>
        <time>2018-12-18T10:23:58Z</time>
      </trkpt>
      <trkpt lat="48.69298" lon="1.7068">
        <ele>173</ele>
        <time>2018-12-18T10:24:02Z</time>
      </trkpt>
      <trkpt lat="48.69291" lon="1.70677">
        <ele>173</ele>
        <time>2018-12-18T10:24:06Z</time>
      </trkpt>
      <trkpt lat="48.69284" lon="1.70674">
        <ele>174</ele>
        <time>2018-12-18T10:24:10Z</time>
      </trkpt>
      <trkpt lat="48.69279" lon="1.70672">
        <ele>174</ele>
        <time>2018-12-18T10:24:14Z</time>
      </trkpt>
      <trkpt lat="48.69273" lon="1.7067">
        <ele>174</ele>
        <time>2018-12-18T10:24:18Z</time>
      </trkpt>
      <trkpt lat="48.69268" lon="1.70668">
        <ele>174</ele>
        <time>2018-12-18T10:24:22Z</time>
      </trkpt>
      <trkpt lat="48.69263" lon="1.70669">
        <ele>174</ele>
        <time>2018-12-18T10:24:26Z</time>
      </trkpt>
      <trkpt lat="48.69257" lon="1.70665">
        <ele>175</ele>
        <time>2018-12-18T10:24:30Z</time>
      </trkpt>
      <trkpt lat="48.69252" lon="1.70662">
        <ele>175</ele>
        <time>2018-12-18T10:24:32Z</time>
      </trkpt>
      <trkpt lat="48.69247" lon="1.70662">
        <ele>175</ele>
        <time>2018-12-18T10:24:36Z</time>
      </trkpt>
      <trkpt lat="48.69242" lon="1.70661">
        <ele>175</ele>
        <time>2018-12-18T10:24:42Z</time>
      </trkpt>
      <trkpt lat="48.69235" lon="1.70663">
        <ele>175</ele>
        <time>2018-12-18T10:24:46Z</time>
      </trkpt>
      <trkpt lat="48.69231" lon="1.70662">
        <ele>175</ele>
        <time>2018-12-18T10:24:48Z</time>
      </trkpt>
      <trkpt lat="48.69226" lon="1.70659">
        <ele>175</ele>
        <time>2018-12-18T10:24:50Z</time>
      </trkpt>
      <trkpt lat="48.6922" lon="1.70655">
        <ele>176</ele>
        <time>2018-12-18T10:24:54Z</time>
      </trkpt>
      <trkpt lat="48.69212" lon="1.70652">
        <ele>176</ele>
        <time>2018-12-18T10:25:00Z</time>
      </trkpt>
      <trkpt lat="48.69206" lon="1.70648">
        <ele>176</ele>
        <time>2018-12-18T10:25:04Z</time>
      </trkpt>
      <trkpt lat="48.692" lon="1.70645">
        <ele>176</ele>
        <time>2018-12-18T10:25:10Z</time>
      </trkpt>
      <trkpt lat="48.69195" lon="1.70641">
        <ele>176</ele>
        <time>2018-12-18T10:25:14Z</time>
      </trkpt>
      <trkpt lat="48.6919" lon="1.7064">
        <ele>176</ele>
        <time>2018-12-18T10:25:18Z</time>
      </trkpt>
      <trkpt lat="48.69185" lon="1.70638">
        <ele>176</ele>
        <time>2018-12-18T10:25:36Z</time>
      </trkpt>
      <trkpt lat="48.69181" lon="1.70636">
        <ele>176</ele>
        <time>2018-12-18T10:25:46Z</time>
      </trkpt>
      <trkpt lat="48.69177" lon="1.7064">
        <ele>176</ele>
        <time>2018-12-18T10:26:20Z</time>
      </trkpt>
      <trkpt lat="48.69172" lon="1.70642">
        <ele>175</ele>
        <time>2018-12-18T10:26:30Z</time>
      </trkpt>
      <trkpt lat="48.69168" lon="1.70648">
        <ele>175</ele>
        <time>2018-12-18T10:26:36Z</time>
      </trkpt>
      <trkpt lat="48.69164" lon="1.70651">
        <ele>175</ele>
        <time>2018-12-18T10:26:40Z</time>
      </trkpt>
      <trkpt lat="48.69161" lon="1.70657">
        <ele>175</ele>
        <time>2018-12-18T10:26:44Z</time>
      </trkpt>
      <trkpt lat="48.69157" lon="1.7066">
        <ele>175</ele>
        <time>2018-12-18T10:26:48Z</time>
      </trkpt>
      <trkpt lat="48.69152" lon="1.70664">
        <ele>175</ele>
        <time>2018-12-18T10:26:52Z</time>
      </trkpt>
      <trkpt lat="48.69147" lon="1.70671">
        <ele>176</ele>
        <time>2018-12-18T10:26:56Z</time>
      </trkpt>
      <trkpt lat="48.69145" lon="1.70679">
        <ele>176</ele>
        <time>2018-12-18T10:27:02Z</time>
      </trkpt>
      <trkpt lat="48.69142" lon="1.70686">
        <ele>176</ele>
        <time>2018-12-18T10:27:08Z</time>
      </trkpt>
      <trkpt lat="48.69137" lon="1.70691">
        <ele>176</ele>
        <time>2018-12-18T10:27:12Z</time>
      </trkpt>
      <trkpt lat="48.69135" lon="1.70699">
        <ele>176</ele>
        <time>2018-12-18T10:27:18Z</time>
      </trkpt>
      <trkpt lat="48.69131" lon="1.70706">
        <ele>176</ele>
        <time>2018-12-18T10:27:22Z</time>
      </trkpt>
      <trkpt lat="48.69127" lon="1.70713">
        <ele>176</ele>
        <time>2018-12-18T10:27:26Z</time>
      </trkpt>
      <trkpt lat="48.69121" lon="1.70717">
        <ele>176</ele>
        <time>2018-12-18T10:27:32Z</time>
      </trkpt>
      <trkpt lat="48.69117" lon="1.70725">
        <ele>177</ele>
        <time>2018-12-18T10:27:36Z</time>
      </trkpt>
      <trkpt lat="48.69115" lon="1.70731">
        <ele>177</ele>
        <time>2018-12-18T10:27:40Z</time>
      </trkpt>
      <trkpt lat="48.6911" lon="1.70733">
        <ele>177</ele>
        <time>2018-12-18T10:27:44Z</time>
      </trkpt>
      <trkpt lat="48.69106" lon="1.70739">
        <ele>177</ele>
        <time>2018-12-18T10:27:48Z</time>
      </trkpt>
      <trkpt lat="48.69103" lon="1.70746">
        <ele>177</ele>
        <time>2018-12-18T10:27:52Z</time>
      </trkpt>
      <trkpt lat="48.69099" lon="1.70753">
        <ele>177</ele>
        <time>2018-12-18T10:27:56Z</time>
      </trkpt>
      <trkpt lat="48.69094" lon="1.70761">
        <ele>177</ele>
        <time>2018-12-18T10:28:00Z</time>
      </trkpt>
      <trkpt lat="48.6909" lon="1.7077">
        <ele>177</ele>
        <time>2018-12-18T10:28:04Z</time>
      </trkpt>
      <trkpt lat="48.69085" lon="1.70778">
        <ele>177</ele>
        <time>2018-12-18T10:28:10Z</time>
      </trkpt>
      <trkpt lat="48.69081" lon="1.70784">
        <ele>177</ele>
        <time>2018-12-18T10:28:14Z</time>
      </trkpt>
      <trkpt lat="48.69077" lon="1.70788">
        <ele>177</ele>
        <time>2018-12-18T10:28:18Z</time>
      </trkpt>
      <trkpt lat="48.69071" lon="1.70794">
        <ele>176</ele>
        <time>2018-12-18T10:28:24Z</time>
      </trkpt>
      <trkpt lat="48.69067" lon="1.708">
        <ele>176</ele>
        <time>2018-12-18T10:28:28Z</time>
      </trkpt>
      <trkpt lat="48.69062" lon="1.70811">
        <ele>176</ele>
        <time>2018-12-18T10:28:32Z</time>
      </trkpt>
      <trkpt lat="48.6906" lon="1.70818">
        <ele>176</ele>
        <time>2018-12-18T10:28:36Z</time>
      </trkpt>
      <trkpt lat="48.69055" lon="1.70825">
        <ele>176</ele>
        <time>2018-12-18T10:28:40Z</time>
      </trkpt>
      <trkpt lat="48.69051" lon="1.70831">
        <ele>176</ele>
        <time>2018-12-18T10:28:44Z</time>
      </trkpt>
      <trkpt lat="48.69047" lon="1.70837">
        <ele>174</ele>
        <time>2018-12-18T10:28:48Z</time>
      </trkpt>
      <trkpt lat="48.69043" lon="1.70844">
        <ele>174</ele>
        <time>2018-12-18T10:28:52Z</time>
      </trkpt>
      <trkpt lat="48.69039" lon="1.70852">
        <ele>174</ele>
        <time>2018-12-18T10:28:56Z</time>
      </trkpt>
      <trkpt lat="48.69035" lon="1.70861">
        <ele>174</ele>
        <time>2018-12-18T10:29:00Z</time>
      </trkpt>
      <trkpt lat="48.69032" lon="1.70867">
        <ele>174</ele>
        <time>2018-12-18T10:29:04Z</time>
      </trkpt>
      <trkpt lat="48.69028" lon="1.70873">
        <ele>174</ele>
        <time>2018-12-18T10:29:08Z</time>
      </trkpt>
      <trkpt lat="48.69023" lon="1.7088">
        <ele>174</ele>
        <time>2018-12-18T10:29:12Z</time>
      </trkpt>
      <trkpt lat="48.69018" lon="1.70886">
        <ele>174</ele>
        <time>2018-12-18T10:29:18Z</time>
      </trkpt>
      <trkpt lat="48.69014" lon="1.70893">
        <ele>174</ele>
        <time>2018-12-18T10:29:22Z</time>
      </trkpt>
      <trkpt lat="48.6901" lon="1.70899">
        <ele>174</ele>
        <time>2018-12-18T10:29:28Z</time>
      </trkpt>
      <trkpt lat="48.69005" lon="1.70909">
        <ele>175</ele>
        <time>2018-12-18T10:29:34Z</time>
      </trkpt>
      <trkpt lat="48.69001" lon="1.70917">
        <ele>175</ele>
        <time>2018-12-18T10:29:38Z</time>
      </trkpt>
      <trkpt lat="48.68996" lon="1.70924">
        <ele>175</ele>
        <time>2018-12-18T10:29:44Z</time>
      </trkpt>
      <trkpt lat="48.68991" lon="1.7093">
        <ele>175</ele>
        <time>2018-12-18T10:29:48Z</time>
      </trkpt>
      <trkpt lat="48.68985" lon="1.70938">
        <ele>175</ele>
        <time>2018-12-18T10:29:54Z</time>
      </trkpt>
      <trkpt lat="48.68981" lon="1.70944">
        <ele>175</ele>
        <time>2018-12-18T10:29:58Z</time>
      </trkpt>
      <trkpt lat="48.68979" lon="1.70952">
        <ele>175</ele>
        <time>2018-12-18T10:30:02Z</time>
      </trkpt>
      <trkpt lat="48.68976" lon="1.70959">
        <ele>176</ele>
        <time>2018-12-18T10:30:06Z</time>
      </trkpt>
      <trkpt lat="48.68972" lon="1.70966">
        <ele>175</ele>
        <time>2018-12-18T10:30:10Z</time>
      </trkpt>
      <trkpt lat="48.68968" lon="1.70973">
        <ele>175</ele>
        <time>2018-12-18T10:30:14Z</time>
      </trkpt>
      <trkpt lat="48.68965" lon="1.70982">
        <ele>175</ele>
        <time>2018-12-18T10:30:20Z</time>
      </trkpt>
      <trkpt lat="48.68961" lon="1.70988">
        <ele>175</ele>
        <time>2018-12-18T10:30:26Z</time>
      </trkpt>
      <trkpt lat="48.68956" lon="1.70992">
        <ele>175</ele>
        <time>2018-12-18T10:30:30Z</time>
      </trkpt>
      <trkpt lat="48.68952" lon="1.71">
        <ele>175</ele>
        <time>2018-12-18T10:30:34Z</time>
      </trkpt>
      <trkpt lat="48.6895" lon="1.71006">
        <ele>175</ele>
        <time>2018-12-18T10:30:38Z</time>
      </trkpt>
      <trkpt lat="48.68946" lon="1.71012">
        <ele>174</ele>
        <time>2018-12-18T10:30:42Z</time>
      </trkpt>
      <trkpt lat="48.68941" lon="1.71017">
        <ele>174</ele>
        <time>2018-12-18T10:30:48Z</time>
      </trkpt>
      <trkpt lat="48.68937" lon="1.71024">
        <ele>174</ele>
        <time>2018-12-18T10:30:54Z</time>
      </trkpt>
      <trkpt lat="48.68933" lon="1.71033">
        <ele>174</ele>
        <time>2018-12-18T10:31:00Z</time>
      </trkpt>
      <trkpt lat="48.6893" lon="1.71037">
        <ele>174</ele>
        <time>2018-12-18T10:31:04Z</time>
      </trkpt>
      <trkpt lat="48.68926" lon="1.71044">
        <ele>174</ele>
        <time>2018-12-18T10:31:08Z</time>
      </trkpt>
      <trkpt lat="48.68923" lon="1.71048">
        <ele>174</ele>
        <time>2018-12-18T10:31:12Z</time>
      </trkpt>
      <trkpt lat="48.68919" lon="1.71055">
        <ele>174</ele>
        <time>2018-12-18T10:31:16Z</time>
      </trkpt>
      <trkpt lat="48.68915" lon="1.71063">
        <ele>175</ele>
        <time>2018-12-18T10:31:22Z</time>
      </trkpt>
      <trkpt lat="48.68909" lon="1.71069">
        <ele>175</ele>
        <time>2018-12-18T10:31:28Z</time>
      </trkpt>
      <trkpt lat="48.68906" lon="1.71076">
        <ele>175</ele>
        <time>2018-12-18T10:31:34Z</time>
      </trkpt>
      <trkpt lat="48.68903" lon="1.71081">
        <ele>175</ele>
        <time>2018-12-18T10:31:38Z</time>
      </trkpt>
      <trkpt lat="48.68899" lon="1.71088">
        <ele>175</ele>
        <time>2018-12-18T10:31:42Z</time>
      </trkpt>
      <trkpt lat="48.68893" lon="1.71094">
        <ele>175</ele>
        <time>2018-12-18T10:31:48Z</time>
      </trkpt>
      <trkpt lat="48.68889" lon="1.711">
        <ele>175</ele>
        <time>2018-12-18T10:31:52Z</time>
      </trkpt>
      <trkpt lat="48.68885" lon="1.71104">
        <ele>175</ele>
        <time>2018-12-18T10:31:58Z</time>
      </trkpt>
      <trkpt lat="48.6888" lon="1.71111">
        <ele>176</ele>
        <time>2018-12-18T10:32:04Z</time>
      </trkpt>
      <trkpt lat="48.68874" lon="1.71117">
        <ele>176</ele>
        <time>2018-12-18T10:32:08Z</time>
      </trkpt>
      <trkpt lat="48.68869" lon="1.71128">
        <ele>176</ele>
        <time>2018-12-18T10:32:12Z</time>
      </trkpt>
      <trkpt lat="48.68864" lon="1.71136">
        <ele>176</ele>
        <time>2018-12-18T10:32:16Z</time>
      </trkpt>
      <trkpt lat="48.68861" lon="1.71142">
        <ele>176</ele>
        <time>2018-12-18T10:32:18Z</time>
      </trkpt>
      <trkpt lat="48.68857" lon="1.71148">
        <ele>176</ele>
        <time>2018-12-18T10:32:20Z</time>
      </trkpt>
      <trkpt lat="48.68854" lon="1.71156">
        <ele>176</ele>
        <time>2018-12-18T10:32:22Z</time>
      </trkpt>
      <trkpt lat="48.6885" lon="1.71164">
        <ele>176</ele>
        <time>2018-12-18T10:32:26Z</time>
      </trkpt>
      <trkpt lat="48.68846" lon="1.71169">
        <ele>177</ele>
        <time>2018-12-18T10:32:28Z</time>
      </trkpt>
      <trkpt lat="48.68842" lon="1.71179">
        <ele>177</ele>
        <time>2018-12-18T10:32:34Z</time>
      </trkpt>
      <trkpt lat="48.68838" lon="1.71186">
        <ele>177</ele>
        <time>2018-12-18T10:32:36Z</time>
      </trkpt>
      <trkpt lat="48.68834" lon="1.71192">
        <ele>177</ele>
        <time>2018-12-18T10:32:40Z</time>
      </trkpt>
      <trkpt lat="48.68828" lon="1.71199">
        <ele>178</ele>
        <time>2018-12-18T10:32:44Z</time>
      </trkpt>
      <trkpt lat="48.68823" lon="1.71204">
        <ele>178</ele>
        <time>2018-12-18T10:32:48Z</time>
      </trkpt>
      <trkpt lat="48.68818" lon="1.71216">
        <ele>178</ele>
        <time>2018-12-18T10:32:54Z</time>
      </trkpt>
      <trkpt lat="48.68813" lon="1.71224">
        <ele>178</ele>
        <time>2018-12-18T10:33:00Z</time>
      </trkpt>
      <trkpt lat="48.68807" lon="1.71231">
        <ele>178</ele>
        <time>2018-12-18T10:33:06Z</time>
      </trkpt>
      <trkpt lat="48.68803" lon="1.71239">
        <ele>178</ele>
        <time>2018-12-18T10:33:12Z</time>
      </trkpt>
      <trkpt lat="48.68799" lon="1.71244">
        <ele>178</ele>
        <time>2018-12-18T10:33:16Z</time>
      </trkpt>
      <trkpt lat="48.68797" lon="1.71253">
        <ele>178</ele>
        <time>2018-12-18T10:33:22Z</time>
      </trkpt>
      <trkpt lat="48.68797" lon="1.7126">
        <ele>178</ele>
        <time>2018-12-18T10:33:26Z</time>
      </trkpt>
      <trkpt lat="48.688" lon="1.71268">
        <ele>178</ele>
        <time>2018-12-18T10:33:32Z</time>
      </trkpt>
      <trkpt lat="48.68806" lon="1.71274">
        <ele>178</ele>
        <time>2018-12-18T10:33:38Z</time>
      </trkpt>
      <trkpt lat="48.68809" lon="1.71279">
        <ele>178</ele>
        <time>2018-12-18T10:33:42Z</time>
      </trkpt>
      <trkpt lat="48.68814" lon="1.71289">
        <ele>177</ele>
        <time>2018-12-18T10:33:48Z</time>
      </trkpt>
      <trkpt lat="48.68818" lon="1.71297">
        <ele>177</ele>
        <time>2018-12-18T10:33:52Z</time>
      </trkpt>
      <trkpt lat="48.68823" lon="1.71303">
        <ele>177</ele>
        <time>2018-12-18T10:33:56Z</time>
      </trkpt>
      <trkpt lat="48.68826" lon="1.71309">
        <ele>177</ele>
        <time>2018-12-18T10:34:00Z</time>
      </trkpt>
      <trkpt lat="48.6883" lon="1.71316">
        <ele>177</ele>
        <time>2018-12-18T10:34:04Z</time>
      </trkpt>
      <trkpt lat="48.68833" lon="1.71321">
        <ele>177</ele>
        <time>2018-12-18T10:34:06Z</time>
      </trkpt>
      <trkpt lat="48.68835" lon="1.71332">
        <ele>176</ele>
        <time>2018-12-18T10:34:10Z</time>
      </trkpt>
      <trkpt lat="48.68837" lon="1.71338">
        <ele>176</ele>
        <time>2018-12-18T10:34:12Z</time>
      </trkpt>
      <trkpt lat="48.68843" lon="1.7135">
        <ele>175</ele>
        <time>2018-12-18T10:34:16Z</time>
      </trkpt>
      <trkpt lat="48.68847" lon="1.71357">
        <ele>175</ele>
        <time>2018-12-18T10:34:20Z</time>
      </trkpt>
      <trkpt lat="48.68851" lon="1.71363">
        <ele>174</ele>
        <time>2018-12-18T10:34:24Z</time>
      </trkpt>
      <trkpt lat="48.68855" lon="1.71373">
        <ele>174</ele>
        <time>2018-12-18T10:34:28Z</time>
      </trkpt>
      <trkpt lat="48.68859" lon="1.7138">
        <ele>174</ele>
        <time>2018-12-18T10:34:32Z</time>
      </trkpt>
      <trkpt lat="48.68862" lon="1.71387">
        <ele>174</ele>
        <time>2018-12-18T10:34:36Z</time>
      </trkpt>
      <trkpt lat="48.68866" lon="1.71396">
        <ele>174</ele>
        <time>2018-12-18T10:34:40Z</time>
      </trkpt>
      <trkpt lat="48.68871" lon="1.71403">
        <ele>174</ele>
        <time>2018-12-18T10:34:44Z</time>
      </trkpt>
      <trkpt lat="48.68876" lon="1.71411">
        <ele>174</ele>
        <time>2018-12-18T10:34:48Z</time>
      </trkpt>
      <trkpt lat="48.6888" lon="1.71421">
        <ele>173</ele>
        <time>2018-12-18T10:34:52Z</time>
      </trkpt>
      <trkpt lat="48.68883" lon="1.7143">
        <ele>173</ele>
        <time>2018-12-18T10:34:56Z</time>
      </trkpt>
      <trkpt lat="48.68887" lon="1.71436">
        <ele>173</ele>
        <time>2018-12-18T10:35:00Z</time>
      </trkpt>
      <trkpt lat="48.68892" lon="1.71444">
        <ele>173</ele>
        <time>2018-12-18T10:35:04Z</time>
      </trkpt>
      <trkpt lat="48.68895" lon="1.7145">
        <ele>173</ele>
        <time>2018-12-18T10:35:08Z</time>
      </trkpt>
      <trkpt lat="48.689" lon="1.71455">
        <ele>172</ele>
        <time>2018-12-18T10:35:12Z</time>
      </trkpt>
      <trkpt lat="48.68904" lon="1.71464">
        <ele>172</ele>
        <time>2018-12-18T10:35:16Z</time>
      </trkpt>
      <trkpt lat="48.68909" lon="1.71471">
        <ele>172</ele>
        <time>2018-12-18T10:35:20Z</time>
      </trkpt>
      <trkpt lat="48.68914" lon="1.71479">
        <ele>172</ele>
        <time>2018-12-18T10:35:24Z</time>
      </trkpt>
      <trkpt lat="48.6892" lon="1.71488">
        <ele>171</ele>
        <time>2018-12-18T10:35:28Z</time>
      </trkpt>
      <trkpt lat="48.68924" lon="1.71495">
        <ele>171</ele>
        <time>2018-12-18T10:35:32Z</time>
      </trkpt>
      <trkpt lat="48.68928" lon="1.71501">
        <ele>171</ele>
        <time>2018-12-18T10:35:36Z</time>
      </trkpt>
      <trkpt lat="48.68931" lon="1.71508">
        <ele>171</ele>
        <time>2018-12-18T10:35:40Z</time>
      </trkpt>
      <trkpt lat="48.68936" lon="1.71514">
        <ele>171</ele>
        <time>2018-12-18T10:35:44Z</time>
      </trkpt>
      <trkpt lat="48.6894" lon="1.7152">
        <ele>171</ele>
        <time>2018-12-18T10:35:48Z</time>
      </trkpt>
      <trkpt lat="48.68943" lon="1.71525">
        <ele>171</ele>
        <time>2018-12-18T10:35:52Z</time>
      </trkpt>
      <trkpt lat="48.68946" lon="1.71532">
        <ele>171</ele>
        <time>2018-12-18T10:35:56Z</time>
      </trkpt>
      <trkpt lat="48.6895" lon="1.71539">
        <ele>171</ele>
        <time>2018-12-18T10:36:00Z</time>
      </trkpt>
      <trkpt lat="48.68956" lon="1.71547">
        <ele>171</ele>
        <time>2018-12-18T10:36:04Z</time>
      </trkpt>
      <trkpt lat="48.6896" lon="1.71554">
        <ele>171</ele>
        <time>2018-12-18T10:36:08Z</time>
      </trkpt>
      <trkpt lat="48.68964" lon="1.71561">
        <ele>171</ele>
        <time>2018-12-18T10:36:12Z</time>
      </trkpt>
      <trkpt lat="48.68968" lon="1.71568">
        <ele>171</ele>
        <time>2018-12-18T10:36:16Z</time>
      </trkpt>
      <trkpt lat="48.68973" lon="1.71576">
        <ele>171</ele>
        <time>2018-12-18T10:36:20Z</time>
      </trkpt>
      <trkpt lat="48.68976" lon="1.71581">
        <ele>170</ele>
        <time>2018-12-18T10:36:24Z</time>
      </trkpt>
      <trkpt lat="48.68982" lon="1.71588">
        <ele>170</ele>
        <time>2018-12-18T10:36:28Z</time>
      </trkpt>
      <trkpt lat="48.68985" lon="1.71595">
        <ele>170</ele>
        <time>2018-12-18T10:36:32Z</time>
      </trkpt>
      <trkpt lat="48.68989" lon="1.71601">
        <ele>170</ele>
        <time>2018-12-18T10:36:36Z</time>
      </trkpt>
      <trkpt lat="48.68993" lon="1.71609">
        <ele>170</ele>
        <time>2018-12-18T10:36:40Z</time>
      </trkpt>
      <trkpt lat="48.68997" lon="1.71616">
        <ele>170</ele>
        <time>2018-12-18T10:36:44Z</time>
      </trkpt>
      <trkpt lat="48.69002" lon="1.71619">
        <ele>169</ele>
        <time>2018-12-18T10:36:48Z</time>
      </trkpt>
      <trkpt lat="48.69005" lon="1.71627">
        <ele>169</ele>
        <time>2018-12-18T10:36:52Z</time>
      </trkpt>
      <trkpt lat="48.69006" lon="1.71636">
        <ele>169</ele>
        <time>2018-12-18T10:36:56Z</time>
      </trkpt>
      <trkpt lat="48.6901" lon="1.71646">
        <ele>169</ele>
        <time>2018-12-18T10:37:00Z</time>
      </trkpt>
      <trkpt lat="48.69012" lon="1.71654">
        <ele>169</ele>
        <time>2018-12-18T10:37:04Z</time>
      </trkpt>
      <trkpt lat="48.69015" lon="1.7166">
        <ele>169</ele>
        <time>2018-12-18T10:37:08Z</time>
      </trkpt>
      <trkpt lat="48.69018" lon="1.71665">
        <ele>169</ele>
        <time>2018-12-18T10:37:12Z</time>
      </trkpt>
      <trkpt lat="48.69022" lon="1.71672">
        <ele>168</ele>
        <time>2018-12-18T10:37:16Z</time>
      </trkpt>
      <trkpt lat="48.69026" lon="1.71679">
        <ele>168</ele>
        <time>2018-12-18T10:37:22Z</time>
      </trkpt>
      <trkpt lat="48.6903" lon="1.71684">
        <ele>168</ele>
        <time>2018-12-18T10:37:26Z</time>
      </trkpt>
      <trkpt lat="48.69031" lon="1.71693">
        <ele>168</ele>
        <time>2018-12-18T10:37:32Z</time>
      </trkpt>
      <trkpt lat="48.69033" lon="1.717">
        <ele>168</ele>
        <time>2018-12-18T10:37:36Z</time>
      </trkpt>
      <trkpt lat="48.69038" lon="1.71706">
        <ele>168</ele>
        <time>2018-12-18T10:37:40Z</time>
      </trkpt>
      <trkpt lat="48.69043" lon="1.71713">
        <ele>168</ele>
        <time>2018-12-18T10:37:44Z</time>
      </trkpt>
      <trkpt lat="48.69043" lon="1.7172">
        <ele>168</ele>
        <time>2018-12-18T10:37:46Z</time>
      </trkpt>
      <trkpt lat="48.69049" lon="1.71729">
        <ele>168</ele>
        <time>2018-12-18T10:37:50Z</time>
      </trkpt>
      <trkpt lat="48.69052" lon="1.71739">
        <ele>167</ele>
        <time>2018-12-18T10:37:54Z</time>
      </trkpt>
      <trkpt lat="48.69053" lon="1.71748">
        <ele>167</ele>
        <time>2018-12-18T10:38:00Z</time>
      </trkpt>
      <trkpt lat="48.69056" lon="1.71757">
        <ele>167</ele>
        <time>2018-12-18T10:38:06Z</time>
      </trkpt>
      <trkpt lat="48.6906" lon="1.71767">
        <ele>167</ele>
        <time>2018-12-18T10:38:12Z</time>
      </trkpt>
      <trkpt lat="48.69064" lon="1.71779">
        <ele>168</ele>
        <time>2018-12-18T10:38:16Z</time>
      </trkpt>
      <trkpt lat="48.69067" lon="1.71786">
        <ele>168</ele>
        <time>2018-12-18T10:38:20Z</time>
      </trkpt>
      <trkpt lat="48.69069" lon="1.71792">
        <ele>168</ele>
        <time>2018-12-18T10:38:24Z</time>
      </trkpt>
      <trkpt lat="48.69071" lon="1.718">
        <ele>168</ele>
        <time>2018-12-18T10:38:28Z</time>
      </trkpt>
      <trkpt lat="48.69074" lon="1.71807">
        <ele>168</ele>
        <time>2018-12-18T10:38:32Z</time>
      </trkpt>
      <trkpt lat="48.69077" lon="1.71812">
        <ele>167</ele>
        <time>2018-12-18T10:38:36Z</time>
      </trkpt>
      <trkpt lat="48.69081" lon="1.71816">
        <ele>167</ele>
        <time>2018-12-18T10:38:40Z</time>
      </trkpt>
      <trkpt lat="48.69084" lon="1.71821">
        <ele>168</ele>
        <time>2018-12-18T10:38:44Z</time>
      </trkpt>
      <trkpt lat="48.69089" lon="1.71826">
        <ele>168</ele>
        <time>2018-12-18T10:38:50Z</time>
      </trkpt>
      <trkpt lat="48.69091" lon="1.71834">
        <ele>168</ele>
        <time>2018-12-18T10:38:56Z</time>
      </trkpt>
      <trkpt lat="48.69091" lon="1.71843">
        <ele>168</ele>
        <time>2018-12-18T10:39:00Z</time>
      </trkpt>
      <trkpt lat="48.69092" lon="1.71852">
        <ele>168</ele>
        <time>2018-12-18T10:39:04Z</time>
      </trkpt>
      <trkpt lat="48.69095" lon="1.71859">
        <ele>168</ele>
        <time>2018-12-18T10:39:08Z</time>
      </trkpt>
      <trkpt lat="48.691" lon="1.71865">
        <ele>169</ele>
        <time>2018-12-18T10:39:12Z</time>
      </trkpt>
      <trkpt lat="48.69102" lon="1.71874">
        <ele>169</ele>
        <time>2018-12-18T10:39:16Z</time>
      </trkpt>
      <trkpt lat="48.69106" lon="1.71883">
        <ele>169</ele>
        <time>2018-12-18T10:39:20Z</time>
      </trkpt>
      <trkpt lat="48.6911" lon="1.71892">
        <ele>169</ele>
        <time>2018-12-18T10:39:24Z</time>
      </trkpt>
      <trkpt lat="48.69112" lon="1.71902">
        <ele>169</ele>
        <time>2018-12-18T10:39:28Z</time>
      </trkpt>
      <trkpt lat="48.69117" lon="1.71913">
        <ele>169</ele>
        <time>2018-12-18T10:39:32Z</time>
      </trkpt>
      <trkpt lat="48.69117" lon="1.71921">
        <ele>169</ele>
        <time>2018-12-18T10:39:34Z</time>
      </trkpt>
      <trkpt lat="48.69116" lon="1.7193">
        <ele>169</ele>
        <time>2018-12-18T10:39:36Z</time>
      </trkpt>
      <trkpt lat="48.69116" lon="1.71942">
        <ele>169</ele>
        <time>2018-12-18T10:39:40Z</time>
      </trkpt>
      <trkpt lat="48.69118" lon="1.71953">
        <ele>169</ele>
        <time>2018-12-18T10:39:46Z</time>
      </trkpt>
      <trkpt lat="48.69119" lon="1.71959">
        <ele>169</ele>
        <time>2018-12-18T10:39:50Z</time>
      </trkpt>
      <trkpt lat="48.69121" lon="1.71966">
        <ele>169</ele>
        <time>2018-12-18T10:39:54Z</time>
      </trkpt>
      <trkpt lat="48.69122" lon="1.71974">
        <ele>169</ele>
        <time>2018-12-18T10:40:00Z</time>
      </trkpt>
      <trkpt lat="48.69163" lon="1.72065">
        <ele>169</ele>
        <time>2018-12-18T10:40:24Z</time>
      </trkpt>
      <trkpt lat="48.69167" lon="1.72072">
        <ele>169</ele>
        <time>2018-12-18T10:40:30Z</time>
      </trkpt>
      <trkpt lat="48.69169" lon="1.72082">
        <ele>169</ele>
        <time>2018-12-18T10:40:34Z</time>
      </trkpt>
      <trkpt lat="48.69174" lon="1.72086">
        <ele>169</ele>
        <time>2018-12-18T10:40:40Z</time>
      </trkpt>
      <trkpt lat="48.69179" lon="1.72095">
        <ele>169</ele>
        <time>2018-12-18T10:40:46Z</time>
      </trkpt>
      <trkpt lat="48.69184" lon="1.72099">
        <ele>169</ele>
        <time>2018-12-18T10:40:50Z</time>
      </trkpt>
      <trkpt lat="48.69188" lon="1.72104">
        <ele>169</ele>
        <time>2018-12-18T10:40:54Z</time>
      </trkpt>
      <trkpt lat="48.69194" lon="1.72108">
        <ele>169</ele>
        <time>2018-12-18T10:41:00Z</time>
      </trkpt>
      <trkpt lat="48.69199" lon="1.72117">
        <ele>169</ele>
        <time>2018-12-18T10:41:06Z</time>
      </trkpt>
      <trkpt lat="48.69204" lon="1.72122">
        <ele>169</ele>
        <time>2018-12-18T10:41:12Z</time>
      </trkpt>
      <trkpt lat="48.69209" lon="1.72131">
        <ele>169</ele>
        <time>2018-12-18T10:41:16Z</time>
      </trkpt>
      <trkpt lat="48.69213" lon="1.72135">
        <ele>169</ele>
        <time>2018-12-18T10:41:18Z</time>
      </trkpt>
      <trkpt lat="48.69219" lon="1.72141">
        <ele>169</ele>
        <time>2018-12-18T10:41:22Z</time>
      </trkpt>
      <trkpt lat="48.69224" lon="1.72145">
        <ele>169</ele>
        <time>2018-12-18T10:41:26Z</time>
      </trkpt>
      <trkpt lat="48.6923" lon="1.72147">
        <ele>169</ele>
        <time>2018-12-18T10:41:30Z</time>
      </trkpt>
      <trkpt lat="48.69234" lon="1.72151">
        <ele>168</ele>
        <time>2018-12-18T10:41:34Z</time>
      </trkpt>
      <trkpt lat="48.69238" lon="1.72156">
        <ele>168</ele>
        <time>2018-12-18T10:41:38Z</time>
      </trkpt>
      <trkpt lat="48.69241" lon="1.72164">
        <ele>168</ele>
        <time>2018-12-18T10:41:42Z</time>
      </trkpt>
      <trkpt lat="48.69244" lon="1.72169">
        <ele>168</ele>
        <time>2018-12-18T10:41:46Z</time>
      </trkpt>
      <trkpt lat="48.69248" lon="1.72177">
        <ele>168</ele>
        <time>2018-12-18T10:41:50Z</time>
      </trkpt>
      <trkpt lat="48.69252" lon="1.72183">
        <ele>166</ele>
        <time>2018-12-18T10:41:54Z</time>
      </trkpt>
      <trkpt lat="48.69257" lon="1.72188">
        <ele>166</ele>
        <time>2018-12-18T10:41:58Z</time>
      </trkpt>
      <trkpt lat="48.69262" lon="1.72193">
        <ele>166</ele>
        <time>2018-12-18T10:42:02Z</time>
      </trkpt>
      <trkpt lat="48.69267" lon="1.722">
        <ele>166</ele>
        <time>2018-12-18T10:42:06Z</time>
      </trkpt>
      <trkpt lat="48.69272" lon="1.72206">
        <ele>165</ele>
        <time>2018-12-18T10:42:10Z</time>
      </trkpt>
      <trkpt lat="48.69277" lon="1.72214">
        <ele>165</ele>
        <time>2018-12-18T10:42:16Z</time>
      </trkpt>
      <trkpt lat="48.69281" lon="1.7222">
        <ele>165</ele>
        <time>2018-12-18T10:42:22Z</time>
      </trkpt>
      <trkpt lat="48.69285" lon="1.72227">
        <ele>165</ele>
        <time>2018-12-18T10:42:26Z</time>
      </trkpt>
      <trkpt lat="48.6929" lon="1.72232">
        <ele>165</ele>
        <time>2018-12-18T10:42:28Z</time>
      </trkpt>
      <trkpt lat="48.69296" lon="1.72241">
        <ele>164</ele>
        <time>2018-12-18T10:42:32Z</time>
      </trkpt>
      <trkpt lat="48.69298" lon="1.7225">
        <ele>164</ele>
        <time>2018-12-18T10:42:36Z</time>
      </trkpt>
      <trkpt lat="48.69302" lon="1.72254">
        <ele>164</ele>
        <time>2018-12-18T10:42:40Z</time>
      </trkpt>
      <trkpt lat="48.69306" lon="1.7226">
        <ele>164</ele>
        <time>2018-12-18T10:42:44Z</time>
      </trkpt>
      <trkpt lat="48.6931" lon="1.72265">
        <ele>164</ele>
        <time>2018-12-18T10:42:48Z</time>
      </trkpt>
      <trkpt lat="48.69313" lon="1.72271">
        <ele>164</ele>
        <time>2018-12-18T10:42:52Z</time>
      </trkpt>
      <trkpt lat="48.69318" lon="1.72275">
        <ele>164</ele>
        <time>2018-12-18T10:43:00Z</time>
      </trkpt>
      <trkpt lat="48.69318" lon="1.72285">
        <ele>164</ele>
        <time>2018-12-18T10:43:04Z</time>
      </trkpt>
      <trkpt lat="48.6932" lon="1.72292">
        <ele>164</ele>
        <time>2018-12-18T10:43:12Z</time>
      </trkpt>
      <trkpt lat="48.69324" lon="1.723">
        <ele>164</ele>
        <time>2018-12-18T10:43:18Z</time>
      </trkpt>
      <trkpt lat="48.69329" lon="1.72305">
        <ele>164</ele>
        <time>2018-12-18T10:43:28Z</time>
      </trkpt>
      <trkpt lat="48.69333" lon="1.72313">
        <ele>162</ele>
        <time>2018-12-18T10:43:34Z</time>
      </trkpt>
      <trkpt lat="48.69338" lon="1.7232">
        <ele>162</ele>
        <time>2018-12-18T10:43:40Z</time>
      </trkpt>
      <trkpt lat="48.69341" lon="1.72327">
        <ele>162</ele>
        <time>2018-12-18T10:43:46Z</time>
      </trkpt>
      <trkpt lat="48.69345" lon="1.72335">
        <ele>163</ele>
        <time>2018-12-18T10:43:54Z</time>
      </trkpt>
      <trkpt lat="48.69355" lon="1.72364">
        <ele>162</ele>
        <time>2018-12-18T10:43:56Z</time>
      </trkpt>
      <trkpt lat="48.69362" lon="1.72372">
        <ele>162</ele>
        <time>2018-12-18T10:43:58Z</time>
      </trkpt>
      <trkpt lat="48.69365" lon="1.72378">
        <ele>162</ele>
        <time>2018-12-18T10:44:04Z</time>
      </trkpt>
      <trkpt lat="48.69368" lon="1.72385">
        <ele>162</ele>
        <time>2018-12-18T10:44:08Z</time>
      </trkpt>
      <trkpt lat="48.69371" lon="1.7239">
        <ele>162</ele>
        <time>2018-12-18T10:44:12Z</time>
      </trkpt>
      <trkpt lat="48.69373" lon="1.72397">
        <ele>162</ele>
        <time>2018-12-18T10:44:16Z</time>
      </trkpt>
      <trkpt lat="48.69376" lon="1.72404">
        <ele>162</ele>
        <time>2018-12-18T10:44:20Z</time>
      </trkpt>
      <trkpt lat="48.6938" lon="1.72407">
        <ele>162</ele>
        <time>2018-12-18T10:44:28Z</time>
      </trkpt>
      <trkpt lat="48.69383" lon="1.72413">
        <ele>162</ele>
        <time>2018-12-18T10:44:32Z</time>
      </trkpt>
      <trkpt lat="48.69385" lon="1.7242">
        <ele>162</ele>
        <time>2018-12-18T10:44:36Z</time>
      </trkpt>
      <trkpt lat="48.69388" lon="1.72428">
        <ele>162</ele>
        <time>2018-12-18T10:44:42Z</time>
      </trkpt>
      <trkpt lat="48.69395" lon="1.72432">
        <ele>162</ele>
        <time>2018-12-18T10:44:48Z</time>
      </trkpt>
      <trkpt lat="48.694" lon="1.72439">
        <ele>162</ele>
        <time>2018-12-18T10:44:52Z</time>
      </trkpt>
      <trkpt lat="48.69404" lon="1.72447">
        <ele>162</ele>
        <time>2018-12-18T10:44:56Z</time>
      </trkpt>
      <trkpt lat="48.69409" lon="1.72458">
        <ele>162</ele>
        <time>2018-12-18T10:45:02Z</time>
      </trkpt>
      <trkpt lat="48.69413" lon="1.72465">
        <ele>163</ele>
        <time>2018-12-18T10:45:04Z</time>
      </trkpt>
      <trkpt lat="48.69415" lon="1.72474">
        <ele>163</ele>
        <time>2018-12-18T10:45:06Z</time>
      </trkpt>
      <trkpt lat="48.69419" lon="1.72488">
        <ele>163</ele>
        <time>2018-12-18T10:45:08Z</time>
      </trkpt>
      <trkpt lat="48.69422" lon="1.72497">
        <ele>163</ele>
        <time>2018-12-18T10:45:10Z</time>
      </trkpt>
      <trkpt lat="48.69427" lon="1.7251">
        <ele>163</ele>
        <time>2018-12-18T10:45:12Z</time>
      </trkpt>
      <trkpt lat="48.69429" lon="1.72518">
        <ele>163</ele>
        <time>2018-12-18T10:45:14Z</time>
      </trkpt>
      <trkpt lat="48.69431" lon="1.72525">
        <ele>163</ele>
        <time>2018-12-18T10:45:16Z</time>
      </trkpt>
      <trkpt lat="48.69434" lon="1.72531">
        <ele>163</ele>
        <time>2018-12-18T10:45:18Z</time>
      </trkpt>
      <trkpt lat="48.69436" lon="1.72536">
        <ele>163</ele>
        <time>2018-12-18T10:45:20Z</time>
      </trkpt>
      <trkpt lat="48.69441" lon="1.72544">
        <ele>163</ele>
        <time>2018-12-18T10:45:24Z</time>
      </trkpt>
      <trkpt lat="48.69445" lon="1.7255">
        <ele>163</ele>
        <time>2018-12-18T10:45:32Z</time>
      </trkpt>
      <trkpt lat="48.69452" lon="1.72554">
        <ele>163</ele>
        <time>2018-12-18T10:45:38Z</time>
      </trkpt>
      <trkpt lat="48.69456" lon="1.72559">
        <ele>163</ele>
        <time>2018-12-18T10:45:42Z</time>
      </trkpt>
      <trkpt lat="48.69459" lon="1.72564">
        <ele>164</ele>
        <time>2018-12-18T10:45:46Z</time>
      </trkpt>
      <trkpt lat="48.69463" lon="1.72571">
        <ele>164</ele>
        <time>2018-12-18T10:45:52Z</time>
      </trkpt>
      <trkpt lat="48.69466" lon="1.72578">
        <ele>164</ele>
        <time>2018-12-18T10:45:58Z</time>
      </trkpt>
      <trkpt lat="48.6947" lon="1.72583">
        <ele>164</ele>
        <time>2018-12-18T10:46:04Z</time>
      </trkpt>
      <trkpt lat="48.69473" lon="1.72588">
        <ele>163</ele>
        <time>2018-12-18T10:46:08Z</time>
      </trkpt>
      <trkpt lat="48.6948" lon="1.72592">
        <ele>164</ele>
        <time>2018-12-18T10:46:14Z</time>
      </trkpt>
      <trkpt lat="48.69483" lon="1.72597">
        <ele>164</ele>
        <time>2018-12-18T10:46:18Z</time>
      </trkpt>
      <trkpt lat="48.69487" lon="1.72605">
        <ele>164</ele>
        <time>2018-12-18T10:46:22Z</time>
      </trkpt>
      <trkpt lat="48.6949" lon="1.72612">
        <ele>164</ele>
        <time>2018-12-18T10:46:26Z</time>
      </trkpt>
      <trkpt lat="48.69494" lon="1.72617">
        <ele>164</ele>
        <time>2018-12-18T10:46:30Z</time>
      </trkpt>
      <trkpt lat="48.69498" lon="1.72626">
        <ele>163</ele>
        <time>2018-12-18T10:46:34Z</time>
      </trkpt>
      <trkpt lat="48.69503" lon="1.72631">
        <ele>166</ele>
        <time>2018-12-18T10:46:38Z</time>
      </trkpt>
      <trkpt lat="48.69507" lon="1.72634">
        <ele>166</ele>
        <time>2018-12-18T10:46:42Z</time>
      </trkpt>
      <trkpt lat="48.69513" lon="1.72642">
        <ele>166</ele>
        <time>2018-12-18T10:46:46Z</time>
      </trkpt>
      <trkpt lat="48.69516" lon="1.72649">
        <ele>166</ele>
        <time>2018-12-18T10:46:50Z</time>
      </trkpt>
      <trkpt lat="48.69522" lon="1.72656">
        <ele>166</ele>
        <time>2018-12-18T10:46:54Z</time>
      </trkpt>
      <trkpt lat="48.69528" lon="1.7266">
        <ele>166</ele>
        <time>2018-12-18T10:46:58Z</time>
      </trkpt>
      <trkpt lat="48.69535" lon="1.72665">
        <ele>167</ele>
        <time>2018-12-18T10:47:04Z</time>
      </trkpt>
      <trkpt lat="48.69538" lon="1.72672">
        <ele>166</ele>
        <time>2018-12-18T10:47:10Z</time>
      </trkpt>
      <trkpt lat="48.69544" lon="1.72675">
        <ele>167</ele>
        <time>2018-12-18T10:47:14Z</time>
      </trkpt>
      <trkpt lat="48.69549" lon="1.72682">
        <ele>167</ele>
        <time>2018-12-18T10:47:18Z</time>
      </trkpt>
      <trkpt lat="48.69553" lon="1.72686">
        <ele>167</ele>
        <time>2018-12-18T10:47:24Z</time>
      </trkpt>
      <trkpt lat="48.69556" lon="1.72692">
        <ele>167</ele>
        <time>2018-12-18T10:47:36Z</time>
      </trkpt>
    </trkseg>
  </trk>
</gpx>